[[{"header":{"parameterUnit":"m.s-1","parameterCategory":1,"la1":31.0,"la2":29.5877,"lo1":-88.7671,"lo2":-86.6584,"dy":0.0162,"dx":0.0185,"nx":115,"ny":88,"refTime":"2023-05-26T00:00:00:Z","depth":0,"parameterNumber":2,"parameterNumberName":"U-component_of_WINDS"},"data":[0.0,0.0,0.0,0.0,0.0,0.0,0.0,0.0,0.0,0.0,0.0,0.0,0.0,0.0,0.0,0.0,0.0,0.0,0.0,0.0,0.0,0.0,0.0,0.0,0.0,0.0,0.0,0.0,0.0,0.0,0.0,0.0,0.0,0.0,0.0,0.0,0.0,0.0,0.0,0.0,0.0,0.0,0.0,0.0,0.0,0.0,0.0,0.0,0.0,0.0,0.0,0.0,0.0,0.0,0.0,0.0,0.0,0.0,0.0,0.0,0.0,0.0,0.0,0.0,0.0,0.0,0.0,0.0,0.0,0.0,0.0,0.0,0.0,0.0,0.0,0.0,0.0,0.0,0.0,0.0,0.0,0.0,0.0,0.0,0.0,0.0,0.0,0.0,0.0,0.0,0.0,0.0,0.0,0.0,0.0,0.0,0.0,0.0,0.0,0.0,0.0,0.0,0.0,0.0,0.0,0.0,0.0,0.0,0.0,0.0,0.0,0.0,0.0,0.0,0.0,0.0,0.0,0.0,0.0,0.0,0.0,0.0,0.0,0.0,0.0,0.0,0.0,0.0,0.0,0.0,0.0,0.0,0.0,0.0,0.0,0.0,0.0,0.0,0.0,0.0,0.0,0.0,0.0,0.0,0.0,0.0,0.0,0.0,0.0,0.0,0.0,0.0,0.0,0.0,0.0,0.0,0.0,0.0,0.0,0.0,0.0,0.0,0.0,0.0,0.0,0.0,0.0,0.0,0.0,0.0,0.0,0.0,0.0,0.0,0.0,0.0,0.0,0.0,0.0,0.0,0.0,0.0,0.0,0.0,0.0,0.0,0.0,0.0,0.0,0.0,0.0,0.0,0.0,0.0,0.0,0.0,0.0,0.0,0.0,0.0,0.0,0.0,0.0,0.0,0.0,0.0,0.0,0.0,0.0,0.0,0.0,0.0,0.0,0.0,0.0,0.0,0.0,0.0,0.0,0.0,0.0,0.0,0.0,0.0,0.0,0.0,0.0,0.0,0.0,0.0,0.0,0.0,0.0,0.0,0.0,0.0,0.0,0.0,0.0,0.0,0.0,0.0,0.0,0.0,0.0,0.0,0.0,0.0,0.0,0.0,0.0,0.0,0.0,0.0,0.0,0.0,0.0,0.0,0.0,0.0,0.0,0.0,0.0,0.0,0.0,0.0,0.0,0.0,0.0,0.0,0.0,0.0,0.0,0.0,0.0,0.0,0.0,0.0,0.0,0.0,0.0,0.0,0.0,0.0,0.0,0.0,0.0,0.0,0.0,0.0,0.0,0.0,0.0,0.0,0.0,0.0,0.0,0.0,0.0,0.0,0.0,0.0,0.0,0.0,0.0,0.0,0.0,0.0,0.0,0.0,0.0,0.0,0.0,0.0,0.0,0.0,0.0,0.0,0.0,0.0,0.0,0.0,0.0,0.0,0.0,0.0,0.0,0.0,0.0,0.0,0.0,0.0,0.0,0.0,0.0,0.0,0.0,0.0,0.0,0.0,0.0,0.0,0.0,0.0,0.0,0.0,0.0,0.0,0.0,0.0,0.0,0.0,0.0,0.0,0.0,0.0,0.0,0.0,0.0,0.0,0.0,0.0,0.0,0.0,0.0,0.0,0.0,0.0,0.0,0.0,0.0,0.0,0.0,0.0,0.0,0.0,0.0,0.0,0.0,0.0,0.0,0.0,0.0,0.0,0.0,0.0,0.0,0.0,0.0,0.0,0.0,0.0,0.0,0.0,0.0,0.0,0.0,0.0,0.0,0.0,0.0,0.0,0.0,0.0,0.0,0.0,0.0,0.0,0.0,0.0,0.0,0.0,0.0,0.0,0.0,0.0,0.0,0.0,0.0,0.0,0.0,0.0,0.0,0.0,0.0,0.0,0.0,0.0,0.0,0.0,0.0,0.0,0.0,0.0,0.0,0.0,0.0,0.0,0.0,0.0,0.0,0.0,0.0,0.0,0.0,0.0,0.0,0.0,0.0,0.0,0.0,0.0,0.0,0.0,0.0,0.0,0.0,0.0,0.0,0.0,0.0,0.0,0.0,0.0,0.0,0.0,0.0,0.0,0.0,0.0,0.0,0.0,0.0,0.0,0.0,0.0,0.0,0.0,0.0,0.0,0.0,0.0,0.0,0.0,0.0,0.0,0.0,0.0,0.0,0.0,0.0,0.0,0.0,0.0,0.0,0.0,0.0,0.0,0.0,0.0,0.0,0.0,0.0,0.0,0.0,0.0,0.0,0.0,0.0,0.0,0.0,0.0,0.0,0.0,0.0,0.0,0.0,0.0,0.0,0.0,0.0,0.0,0.0,0.0,0.0,0.0,0.0,0.0,0.0,0.0,0.0,0.0,0.0,0.0,0.0,0.0,0.0,0.0,0.0,0.0,0.0,0.0,0.0,0.0,0.0,0.0,0.0,0.0,0.0,0.0,0.0,0.0,0.0,0.0,0.0,0.0,0.0,0.0,0.0,0.0,0.0,0.0,0.0,0.0,0.0,0.0,0.0,0.0,0.0,0.0,0.0,0.0,0.0,0.0,0.0,0.0,0.0,0.0,0.0,0.0,0.0,0.0,0.0,0.0,0.0,0.0,0.0,0.0,0.0,0.0,0.0,0.0,0.0,0.0,0.0,0.0,0.0,0.0,0.0,0.0,0.0,0.0,0.0,0.0,0.0,0.0,0.0,0.0,0.0,0.0,0.0,0.0,0.0,0.0,0.0,0.0,0.0,0.0,0.0,0.0,0.0,0.0,0.0,0.0,0.0,0.0,0.0,0.0,0.0,0.0,0.0,0.0,0.0,0.0,0.0,0.0,0.0,0.0,0.0,0.0,0.0,0.0,0.0,0.0,0.0,0.0,0.0,0.0,0.0,0.0,0.0,0.0,0.0,0.0,0.0,0.0,0.0,0.0,0.0,0.0,0.0,0.0,0.0,0.0,0.0,0.0,0.0,0.0,0.0,0.0,0.0,0.0,0.0,0.0,0.0,0.0,0.0,0.0,0.0,0.0,0.0,0.0,0.0,0.0,0.0,0.0,0.0,0.0,0.0,0.0,0.0,0.0,0.0,0.0,0.0,0.0,0.0,0.0,0.0,0.0,0.0,0.0,0.0,0.0,0.0,0.0,0.0,0.0,0.0,0.0,0.0,0.0,0.0,0.0,0.0,0.0,0.0,0.0,0.0,0.0,0.0,0.0,0.0,0.0,0.0,0.0,0.0,0.0,0.0,0.0,0.0,0.0,0.0,0.0,0.0,0.0,0.0,0.0,0.0,0.0,0.0,0.0,0.0,0.0,0.0,0.0,0.0,0.0,0.0,0.0,0.0,0.0,0.0,0.0,0.0,0.0,0.0,0.0,0.0,0.0,0.0,0.0,0.0,0.0,0.0,0.0,0.0,0.0,0.0,0.0,0.0,0.0,0.0,0.0,0.0,0.0,0.0,0.0,0.0,0.0,0.0,0.0,0.0,0.0,0.0,0.0,0.0,0.0,0.0,0.0,0.0,0.0,0.0,0.0,0.0,0.0,0.0,0.0,0.0,0.0,0.0,0.0,0.0,0.0,0.0,0.0,0.0,0.0,0.0,0.0,0.0,0.0,0.0,0.0,0.0,0.0,0.0,0.0,0.0,0.0,0.0,0.0,0.0,0.0,0.0,0.0,0.0,0.0,0.0,0.0,0.0,0.0,0.0,0.0,0.0,0.0,0.0,0.0,0.0,0.0,0.0,0.0,0.0,0.0,0.0,0.0,0.0,0.0,0.0,0.0,0.0,0.0,0.0,0.0,0.0,0.0,0.0,0.0,0.0,0.0,0.0,0.0,0.0,0.0,0.0,0.0,0.0,0.0,0.0,0.0,0.0,0.0,0.0,0.0,0.0,0.0,0.0,0.0,0.0,0.0,0.0,0.0,0.0,0.0,0.0,0.0,0.0,0.0,0.0,0.0,0.0,0.0,0.0,0.0,0.0,0.0,0.0,0.0,0.0,0.0,0.0,0.0,0.0,0.0,0.0,0.0,0.0,0.0,0.0,0.0,0.0,0.0,0.0,0.0,0.0,0.0,0.0,0.0,0.0,0.0,0.0,0.0,0.0,0.0,0.0,0.0,0.0,0.0,0.0,0.0,0.0,0.0,0.0,0.0,0.0,0.0,0.0,0.0,0.0,0.0,0.0,0.0,0.0,0.0,0.0,0.0,0.0,0.0,0.0,0.0,0.0,0.0,0.0,0.0,0.0,0.0,0.0,0.0,0.0,0.0,0.0,0.0,0.0,0.0,0.0,0.0,2.4004,0.0,0.0,0.0,0.0,0.0,0.0,0.0,0.0,0.0,0.0,0.0,0.0,0.0,0.0,0.0,0.0,0.0,0.0,0.0,0.0,0.0,0.0,0.0,0.0,0.0,0.0,0.0,0.0,0.0,0.0,0.0,0.0,0.0,0.0,0.0,0.0,0.0,0.0,0.0,0.0,0.0,0.0,0.0,0.0,0.0,0.0,0.0,0.0,0.0,0.0,0.0,0.0,0.0,0.0,0.0,0.0,0.0,0.0,0.0,0.0,0.0,0.0,0.0,0.0,0.0,0.0,0.0,0.0,0.0,0.0,0.0,0.0,0.0,0.0,0.0,0.0,0.0,0.0,0.0,0.0,0.0,0.0,0.0,0.0,0.0,0.0,0.0,0.0,0.0,0.0,0.0,0.0,0.0,0.0,0.0,0.0,0.0,0.0,0.0,0.0,0.0,0.0,0.0,0.0,0.0,0.0,0.0,0.0,0.0,0.0,2.5978,2.608,2.5536,2.4967,2.444,0.0,0.0,0.0,0.0,0.0,0.0,0.0,0.0,0.0,0.0,0.0,0.0,0.0,0.0,0.0,0.0,0.0,0.0,0.0,0.0,0.0,0.0,0.0,0.0,0.0,0.0,0.0,0.0,0.0,0.0,0.0,0.0,0.0,0.0,0.0,0.0,0.0,0.0,0.0,0.0,0.0,0.0,0.0,0.0,0.0,0.0,0.0,0.0,0.0,0.0,0.0,0.0,0.0,0.0,0.0,0.0,0.0,0.0,0.0,0.0,0.0,0.0,0.0,0.0,0.0,0.0,0.0,0.0,0.0,0.0,0.0,0.0,0.0,0.0,0.0,0.0,0.0,0.0,0.0,0.0,0.0,0.0,0.0,0.0,0.0,0.0,0.0,0.0,0.0,0.0,0.0,0.0,0.0,0.0,0.0,0.0,0.0,0.0,0.0,0.0,0.0,0.0,0.0,0.0,0.0,0.0,0.0,0.0,0.0,0.0,0.0,0.0,2.5929,2.5285,2.4625,0.0,0.0,0.0,0.0,0.0,0.0,0.0,0.0,0.0,0.0,0.0,0.0,0.0,0.0,0.0,0.0,0.0,0.0,0.0,0.0,0.0,0.0,0.0,0.0,0.0,0.0,0.0,0.0,0.0,0.0,0.0,0.0,0.0,0.0,0.0,0.0,0.0,0.0,0.0,0.0,0.0,0.0,0.0,0.0,0.0,0.0,0.0,0.0,0.0,0.0,0.0,0.0,0.0,0.0,0.0,0.0,0.0,0.0,0.0,0.0,0.0,0.0,0.0,0.0,0.0,0.0,0.0,0.0,0.0,0.0,0.0,0.0,0.0,0.0,0.0,0.0,0.0,0.0,0.0,0.0,0.0,0.0,0.0,0.0,0.0,0.0,0.0,0.0,0.0,0.0,0.0,0.0,0.0,0.0,0.0,0.0,0.0,0.0,0.0,0.0,0.0,0.0,0.0,0.0,0.0,0.0,0.0,0.0,0.0,0.0,2.6102,2.6474,2.5904,0.0,2.4114,0.0,0.0,0.0,0.0,0.0,0.0,0.0,0.0,0.0,0.0,0.0,0.0,0.0,0.0,0.0,0.0,0.0,0.0,0.0,0.0,0.0,0.0,0.0,0.0,0.0,0.0,0.0,0.0,0.0,0.0,0.0,0.0,0.0,0.0,0.0,0.0,0.0,0.0,0.0,0.0,0.0,0.0,0.0,0.0,0.0,0.0,0.0,0.0,0.0,0.0,0.0,0.0,0.0,0.0,0.0,0.0,0.0,0.0,0.0,0.0,0.0,0.0,0.0,0.0,0.0,0.0,0.0,0.0,0.0,0.0,0.0,0.0,0.0,0.0,0.0,0.0,0.0,0.0,0.0,0.0,0.0,0.0,0.0,0.0,0.0,0.0,0.0,0.0,0.0,0.0,0.0,0.0,0.0,0.0,0.0,0.0,0.0,0.0,0.0,0.0,0.0,0.0,0.0,0.0,0.0,0.0,0.0,0.0,0.0,0.0,2.6032,2.631,2.5544,2.4718,0.0,0.0,0.0,0.0,0.0,0.0,0.0,0.0,0.0,0.0,0.0,0.0,0.0,0.0,0.0,0.0,0.0,0.0,0.0,0.0,0.0,0.0,0.0,0.0,0.0,0.0,0.0,0.0,0.0,0.0,0.0,0.0,0.0,0.0,0.0,0.0,0.0,0.0,0.0,0.0,0.0,0.0,0.0,0.0,0.0,0.0,0.0,0.0,0.0,0.0,0.0,0.0,0.0,0.0,0.0,0.0,0.0,0.0,0.0,0.0,0.0,0.0,0.0,0.0,0.0,0.0,0.0,0.0,0.0,0.0,0.0,0.0,0.0,0.0,0.0,0.0,0.0,0.0,0.0,0.0,0.0,0.0,0.0,0.0,0.0,0.0,0.0,0.0,0.0,0.0,0.0,0.0,0.0,0.0,0.0,0.0,0.0,0.0,0.0,0.0,0.0,0.0,0.0,0.0,0.0,0.0,0.0,0.0,0.0,0.0,2.5515,2.5802,2.5906,2.5194,2.4445,2.3722,0.0,0.0,0.0,0.0,0.0,0.0,0.0,0.0,0.0,0.0,0.0,0.0,0.0,0.0,0.0,0.0,0.0,0.0,0.0,0.0,0.0,0.0,0.0,0.0,0.0,0.0,0.0,0.0,0.0,0.0,0.0,0.0,0.0,0.0,0.0,0.0,0.0,0.0,0.0,0.0,0.0,0.0,0.0,0.0,0.0,0.0,0.0,0.0,0.0,0.0,0.0,0.0,0.0,0.0,0.0,0.0,0.0,0.0,0.0,0.0,0.0,0.0,0.0,0.0,0.0,0.0,0.0,0.0,0.0,0.0,0.0,0.0,0.0,0.0,0.0,0.0,0.0,0.0,0.0,0.0,0.0,0.0,0.0,0.0,0.0,0.0,0.0,0.0,0.0,0.0,0.0,0.0,0.0,0.0,0.0,0.0,0.0,0.0,0.0,0.0,0.0,0.0,0.0,0.0,0.0,0.0,0.0,0.0,2.4595,2.5094,2.5345,2.5351,2.4978,2.4445,0.0,0.0,0.0,0.0,0.0,0.0,0.0,0.0,0.0,0.0,0.0,0.0,0.0,0.0,0.0,0.0,0.0,0.0,0.0,0.0,0.0,0.0,0.0,0.0,0.0,0.0,0.0,0.0,0.0,0.0,0.0,0.0,0.0,0.0,0.0,0.0,0.0,0.0,0.0,0.0,0.0,0.0,0.0,0.0,0.0,0.0,0.0,0.0,0.0,0.0,0.0,0.0,0.0,0.0,0.0,0.0,0.0,0.0,0.0,0.0,0.0,0.0,0.0,0.0,0.0,0.0,0.0,0.0,0.0,0.0,0.0,0.0,0.0,0.0,0.0,0.0,0.0,0.0,0.0,0.0,0.0,0.0,0.0,0.0,0.0,0.0,0.0,0.0,0.0,0.0,0.0,0.0,0.0,0.0,0.0,0.0,0.0,0.0,0.0,0.0,0.0,0.0,0.0,0.0,0.0,0.0,0.0,0.0,0.0,2.4204,2.5059,2.5397,2.5167,2.4731,2.4139,0.0,0.0,0.0,0.0,0.0,0.0,0.0,0.0,0.0,0.0,0.0,0.0,0.0,0.0,0.0,0.0,0.0,0.0,0.0,0.0,0.0,0.0,0.0,0.0,0.0,0.0,0.0,0.0,0.0,0.0,0.0,0.0,0.0,0.0,0.0,0.0,0.0,0.0,0.0,0.0,0.0,0.0,0.0,0.0,0.0,0.0,0.0,0.0,0.0,0.0,0.0,0.0,0.0,0.0,0.0,0.0,0.0,0.0,0.0,0.0,0.0,0.0,0.0,0.0,0.0,0.0,0.0,0.0,0.0,0.0,0.0,0.0,0.0,0.0,0.0,0.0,0.0,0.0,0.0,0.0,0.0,0.0,0.0,0.0,0.0,0.0,0.0,0.0,0.0,0.0,0.0,0.0,0.0,0.0,0.0,0.0,0.0,0.0,0.0,0.0,0.0,0.0,0.0,0.0,0.0,0.0,0.0,0.0,0.0,2.4231,0.0,2.5363,2.5022,2.4721,2.4132,0.0,0.0,0.0,0.0,0.0,0.0,0.0,0.0,0.0,0.0,0.0,0.0,0.0,0.0,0.0,0.0,0.0,0.0,0.0,0.0,0.0,0.0,0.0,0.0,0.0,0.0,0.0,0.0,0.0,0.0,0.0,0.0,0.0,0.0,0.0,0.0,0.0,0.0,0.0,0.0,0.0,0.0,0.0,0.0,0.0,0.0,0.0,0.0,0.0,0.0,0.0,0.0,0.0,0.0,0.0,0.0,0.0,0.0,0.0,0.0,0.0,0.0,0.0,0.0,0.0,0.0,0.0,0.0,0.0,0.0,0.0,0.0,0.0,0.0,0.0,0.0,0.0,0.0,0.0,0.0,0.0,0.0,0.0,0.0,0.0,0.0,0.0,0.0,0.0,0.0,0.0,0.0,0.0,0.0,0.0,0.0,0.0,0.0,0.0,0.0,0.0,0.0,0.0,0.0,0.0,0.0,0.0,0.0,2.3398,2.4713,2.5111,2.5153,2.4835,2.4956,2.4483,0.0,0.0,0.0,0.0,0.0,0.0,0.0,0.0,0.0,0.0,0.0,0.0,0.0,0.0,0.0,0.0,0.0,0.0,0.0,0.0,0.0,0.0,0.0,0.0,0.0,0.0,0.0,0.0,0.0,0.0,0.0,0.0,0.0,0.0,0.0,0.0,0.0,0.0,0.0,0.0,0.0,0.0,0.0,0.0,0.0,0.0,0.0,0.0,0.0,0.0,0.0,0.0,0.0,0.0,0.0,0.0,0.0,0.0,0.0,0.0,0.0,0.0,0.0,0.0,0.0,0.0,0.0,0.0,0.0,0.0,0.0,0.0,0.0,0.0,0.0,0.0,0.0,0.0,0.0,0.0,0.0,0.0,0.0,0.0,0.0,0.0,0.0,0.0,0.0,0.0,0.0,0.0,0.0,0.0,0.0,0.0,0.0,0.0,0.0,0.0,0.0,0.0,0.0,0.0,0.0,0.0,0.0,0.0,0.0,2.458,2.4832,2.4951,2.4996,2.4688,2.4268,0.0,0.0,0.0,0.0,0.0,0.0,0.0,0.0,0.0,0.0,0.0,0.0,0.0,0.0,0.0,0.0,0.0,0.0,0.0,0.0,0.0,0.0,0.0,0.0,0.0,0.0,0.0,0.0,0.0,0.0,0.0,0.0,0.0,0.0,0.0,0.0,0.0,0.0,0.0,0.0,0.0,0.0,0.0,0.0,0.0,0.0,0.0,0.0,0.0,0.0,0.0,0.0,0.0,0.0,0.0,0.0,0.0,0.0,0.0,0.0,0.0,0.0,0.0,0.0,0.0,0.0,0.0,0.0,0.0,0.0,0.0,0.0,0.0,0.0,0.0,0.0,0.0,0.0,0.0,0.0,0.0,0.0,0.0,0.0,0.0,0.0,0.0,0.0,0.0,0.0,0.0,0.0,0.0,0.0,0.0,0.0,0.0,0.0,0.0,0.0,0.0,0.0,0.0,0.0,0.0,0.0,0.0,0.0,0.0,2.4567,2.5033,2.5347,2.5543,2.5022,2.4559,2.414,0.0,0.0,0.0,0.0,0.0,0.0,0.0,0.0,0.0,0.0,0.0,0.0,0.0,0.0,0.0,0.0,0.0,0.0,0.0,0.0,0.0,0.0,0.0,0.0,0.0,0.0,0.0,0.0,0.0,0.0,0.0,0.0,0.0,0.0,0.0,0.0,0.0,0.0,0.0,0.0,0.0,0.0,0.0,0.0,0.0,0.0,0.0,0.0,0.0,0.0,0.0,0.0,0.0,0.0,0.0,0.0,0.0,0.0,0.0,0.0,0.0,0.0,0.0,0.0,0.0,0.0,0.0,0.0,0.0,0.0,0.0,0.0,0.0,0.0,0.0,0.0,0.0,0.0,0.0,0.0,0.0,0.0,0.0,0.0,0.0,0.0,0.0,0.0,0.0,0.0,0.0,0.0,0.0,0.0,0.0,0.0,0.0,0.0,0.0,0.0,0.0,0.0,0.0,0.0,0.0,0.0,0.0,0.0,2.4808,2.5655,2.6132,2.6263,2.5728,2.524,0.0,0.0,0.0,0.0,0.0,0.0,0.0,0.0,0.0,0.0,0.0,0.0,0.0,0.0,0.0,0.0,0.0,0.0,0.0,0.0,0.0,0.0,0.0,0.0,0.0,0.0,0.0,0.0,0.0,0.0,0.0,0.0,0.0,0.0,0.0,0.0,0.0,0.0,0.0,0.0,0.0,0.0,0.0,0.0,0.0,0.0,0.0,0.0,0.0,0.0,0.0,0.0,0.0,0.0,0.0,0.0,0.0,0.0,0.0,0.0,0.0,0.0,0.0,0.0,0.0,0.0,0.0,0.0,0.0,0.0,0.0,0.0,0.0,0.0,0.0,0.0,0.0,0.0,0.0,0.0,0.0,0.0,0.0,0.0,0.0,0.0,0.0,0.0,0.0,0.0,0.0,0.0,0.0,0.0,0.0,0.0,0.0,0.0,0.0,0.0,0.0,0.0,0.0,0.0,0.0,0.0,0.0,0.0,0.0,2.6004,2.6767,2.682,2.6085,2.5545,2.5088,0.0,0.0,0.0,0.0,0.0,0.0,0.0,0.0,0.0,0.0,0.0,0.0,0.0,0.0,0.0,0.0,0.0,0.0,0.0,0.0,0.0,0.0,0.0,0.0,0.0,0.0,0.0,0.0,0.0,0.0,0.0,0.0,0.0,0.0,0.0,0.0,0.0,0.0,0.0,0.0,0.0,0.0,0.0,0.0,0.0,0.0,0.0,0.0,0.0,0.0,0.0,0.0,0.0,0.0,0.0,0.0,0.0,0.0,0.0,0.0,0.0,0.0,0.0,0.0,0.0,0.0,0.0,0.0,0.0,0.0,0.0,0.0,0.0,0.0,0.0,0.0,0.0,0.0,0.0,0.0,0.0,0.0,0.0,0.0,0.0,0.0,0.0,0.0,0.0,0.0,0.0,0.0,0.0,0.0,0.0,0.0,0.0,0.0,0.0,0.0,0.0,0.0,0.0,0.0,0.0,0.0,0.0,0.0,2.5283,2.6362,2.7168,2.7393,2.7022,2.6388,2.5746,0.0,0.0,0.0,0.0,0.0,0.0,0.0,0.0,0.0,0.0,0.0,0.0,0.0,0.0,0.0,0.0,0.0,0.0,0.0,0.0,0.0,0.0,0.0,0.0,0.0,0.0,0.0,0.0,0.0,0.0,0.0,0.0,0.0,0.0,0.0,0.0,0.0,0.0,0.0,0.0,0.0,0.0,0.0,0.0,0.0,0.0,0.0,0.0,0.0,0.0,0.0,0.0,0.0,0.0,0.0,0.0,0.0,0.0,0.0,0.0,0.0,0.0,0.0,0.0,0.0,0.0,0.0,0.0,0.0,0.0,0.0,0.0,0.0,0.0,0.0,0.0,0.0,0.0,0.0,0.0,0.0,0.0,0.0,0.0,0.0,0.0,0.0,0.0,0.0,0.0,0.0,0.0,0.0,0.0,0.0,0.0,0.0,0.0,0.0,0.0,0.0,0.0,0.0,0.0,0.0,0.0,0.0,0.0,2.5289,2.6288,2.7196,2.7902,2.8356,2.7636,2.6798,0.0,0.0,0.0,0.0,0.0,0.0,0.0,0.0,0.0,0.0,0.0,0.0,0.0,0.0,0.0,0.0,0.0,0.0,0.0,0.0,0.0,0.0,0.0,0.0,0.0,0.0,0.0,0.0,0.0,0.0,0.0,0.0,0.0,0.0,0.0,0.0,0.0,0.0,0.0,0.0,0.0,0.0,0.0,0.0,0.0,0.0,0.0,0.0,0.0,0.0,0.0,0.0,0.0,0.0,0.0,0.0,0.0,0.0,0.0,0.0,0.0,0.0,0.0,0.0,0.0,0.0,0.0,0.0,0.0,0.0,0.0,0.0,0.0,0.0,0.0,0.0,0.0,0.0,0.0,0.0,0.0,0.0,0.0,0.0,0.0,0.0,0.0,0.0,0.0,0.0,0.0,0.0,0.0,0.0,0.0,0.0,0.0,0.0,0.0,0.0,0.0,0.0,0.0,0.0,0.0,0.0,0.0,0.0,2.5378,2.702,2.7653,2.8206,2.8611,2.7692,2.7096,0.0,0.0,0.0,0.0,0.0,0.0,0.0,0.0,0.0,0.0,0.0,0.0,0.0,0.0,0.0,0.0,0.0,0.0,0.0,0.0,0.0,0.0,0.0,0.0,0.0,0.0,0.0,0.0,0.0,0.0,0.0,0.0,0.0,0.0,0.0,0.0,0.0,0.0,0.0,0.0,0.0,0.0,0.0,0.0,0.0,0.0,0.0,0.0,3.2846,0.0,0.0,0.0,0.0,0.0,0.0,0.0,0.0,0.0,0.0,0.0,0.0,0.0,0.0,0.0,0.0,0.0,0.0,0.0,0.0,0.0,0.0,0.0,0.0,0.0,0.0,0.0,0.0,0.0,0.0,0.0,0.0,0.0,0.0,0.0,0.0,0.0,0.0,0.0,0.0,0.0,0.0,0.0,0.0,0.0,0.0,0.0,0.0,0.0,0.0,0.0,0.0,0.0,0.0,0.0,0.0,0.0,0.0,0.0,2.5622,2.7239,2.8033,2.8634,2.9037,2.8556,2.7945,0.0,0.0,0.0,0.0,0.0,0.0,0.0,0.0,0.0,0.0,0.0,0.0,0.0,0.0,0.0,0.0,0.0,0.0,0.0,0.0,0.0,0.0,0.0,0.0,0.0,0.0,0.0,0.0,0.0,0.0,0.0,0.0,0.0,0.0,0.0,0.0,0.0,0.0,0.0,0.0,0.0,0.0,0.0,0.0,0.0,0.0,0.0,0.0,0.0,0.0,0.0,0.0,0.0,0.0,0.0,0.0,0.0,0.0,0.0,0.0,0.0,0.0,0.0,0.0,0.0,0.0,0.0,0.0,0.0,0.0,0.0,0.0,0.0,0.0,0.0,0.0,0.0,0.0,0.0,0.0,0.0,0.0,0.0,0.0,0.0,0.0,0.0,0.0,0.0,0.0,0.0,0.0,0.0,0.0,0.0,0.0,0.0,0.0,0.0,0.0,0.0,0.0,0.0,0.0,0.0,0.0,0.0,2.5031,2.5972,2.737,2.8388,2.915,2.9598,2.9692,2.9022,2.7486,0.0,0.0,0.0,0.0,0.0,0.0,0.0,0.0,0.0,0.0,0.0,0.0,0.0,0.0,0.0,0.0,0.0,0.0,0.0,0.0,0.0,0.0,0.0,0.0,0.0,0.0,0.0,0.0,0.0,0.0,0.0,0.0,0.0,0.0,0.0,0.0,0.0,0.0,3.3395,3.3864,0.0,0.0,0.0,0.0,0.0,0.0,0.0,0.0,3.4403,0.0,0.0,0.0,0.0,0.0,0.0,0.0,0.0,0.0,0.0,0.0,0.0,0.0,0.0,0.0,0.0,0.0,0.0,0.0,0.0,0.0,0.0,0.0,0.0,0.0,0.0,0.0,0.0,0.0,0.0,0.0,0.0,0.0,0.0,0.0,0.0,0.0,0.0,0.0,0.0,0.0,0.0,0.0,0.0,0.0,0.0,0.0,0.0,0.0,0.0,0.0,0.0,0.0,0.0,0.0,0.0,2.4486,2.5338,2.6474,2.785,2.8877,2.962,3.0067,3.0512,3.0055,2.8517,0.0,0.0,0.0,0.0,0.0,0.0,0.0,0.0,0.0,0.0,0.0,0.0,0.0,0.0,0.0,0.0,0.0,0.0,0.0,0.0,0.0,0.0,0.0,0.0,0.0,0.0,0.0,0.0,0.0,0.0,0.0,0.0,0.0,0.0,0.0,0.0,0.0,0.0,0.0,3.4178,3.4426,0.0,0.0,0.0,0.0,0.0,0.0,0.0,0.0,3.393,0.0,0.0,0.0,0.0,0.0,0.0,0.0,0.0,0.0,0.0,0.0,0.0,0.0,0.0,0.0,0.0,0.0,0.0,0.0,0.0,0.0,0.0,0.0,0.0,0.0,0.0,0.0,0.0,0.0,0.0,0.0,0.0,0.0,0.0,0.0,0.0,0.0,0.0,0.0,0.0,0.0,0.0,0.0,0.0,0.0,0.0,0.0,0.0,0.0,0.0,0.0,0.0,0.0,0.0,0.0,2.4326,2.5624,2.6824,2.7981,2.9232,3.0136,3.0583,3.0853,3.0422,0.0,0.0,0.0,0.0,0.0,0.0,0.0,0.0,0.0,0.0,0.0,0.0,0.0,0.0,0.0,0.0,0.0,0.0,0.0,0.0,0.0,0.0,0.0,0.0,0.0,0.0,0.0,0.0,0.0,0.0,0.0,0.0,0.0,0.0,0.0,0.0,0.0,0.0,0.0,0.0,3.4463,3.4901,3.4832,0.0,0.0,0.0,0.0,0.0,0.0,3.5527,3.5181,0.0,0.0,0.0,0.0,0.0,0.0,0.0,0.0,0.0,0.0,0.0,0.0,0.0,0.0,0.0,0.0,0.0,0.0,0.0,0.0,0.0,0.0,0.0,0.0,0.0,0.0,0.0,0.0,0.0,0.0,0.0,0.0,0.0,0.0,0.0,0.0,0.0,0.0,0.0,0.0,0.0,0.0,0.0,0.0,0.0,0.0,0.0,0.0,0.0,0.0,0.0,0.0,0.0,0.0,0.0,2.4358,2.6019,2.7348,2.8286,2.974,3.0716,3.1123,3.1102,3.0583,0.0,0.0,0.0,0.0,0.0,0.0,0.0,0.0,0.0,0.0,0.0,0.0,0.0,0.0,0.0,0.0,0.0,0.0,0.0,0.0,0.0,0.0,0.0,0.0,0.0,0.0,0.0,0.0,0.0,0.0,0.0,0.0,0.0,0.0,0.0,0.0,0.0,0.0,0.0,0.0,0.0,3.559,3.5432,3.6313,0.0,0.0,0.0,0.0,3.7512,3.71,0.0,0.0,0.0,0.0,0.0,0.0,0.0,0.0,0.0,0.0,0.0,0.0,0.0,0.0,0.0,0.0,0.0,0.0,0.0,0.0,0.0,0.0,0.0,0.0,0.0,0.0,0.0,0.0,0.0,0.0,0.0,0.0,0.0,0.0,0.0,0.0,0.0,0.0,0.0,0.0,0.0,0.0,0.0,0.0,0.0,0.0,0.0,0.0,0.0,0.0,0.0,0.0,0.0,0.0,0.0,0.0,2.4877,2.6802,2.833,2.9316,3.0568,3.1323,3.1589,3.1385,3.0717,0.0,0.0,0.0,0.0,0.0,0.0,0.0,0.0,0.0,0.0,0.0,0.0,0.0,0.0,0.0,0.0,0.0,0.0,0.0,0.0,0.0,0.0,0.0,0.0,0.0,0.0,0.0,0.0,0.0,0.0,0.0,0.0,0.0,0.0,0.0,0.0,0.0,0.0,0.0,0.0,0.0,3.6477,3.6429,3.7006,3.7419,0.0,0.0,3.7512,3.7512,3.7431,0.0,0.0,0.0,0.0,0.0,0.0,0.0,0.0,0.0,0.0,0.0,0.0,0.0,0.0,0.0,0.0,0.0,0.0,0.0,0.0,0.0,0.0,0.0,0.0,0.0,0.0,0.0,0.0,0.0,0.0,0.0,0.0,0.0,0.0,0.0,0.0,0.0,0.0,0.0,0.0,0.0,0.0,0.0,0.0,0.0,0.0,0.0,0.0,0.0,0.0,0.0,0.0,0.0,0.0,0.0,2.4248,2.5101,2.6997,2.8483,2.9491,3.0673,3.1487,3.1856,3.1392,3.0617,0.0,0.0,0.0,0.0,0.0,0.0,0.0,0.0,0.0,0.0,0.0,0.0,0.0,0.0,0.0,0.0,0.0,0.0,0.0,0.0,0.0,0.0,0.0,0.0,0.0,0.0,0.0,0.0,0.0,0.0,0.0,0.0,0.0,0.0,0.0,0.0,0.0,0.0,0.0,0.0,0.0,0.0,3.6926,3.772,0.0,0.0,0.0,3.8622,3.8782,0.0,0.0,0.0,0.0,0.0,0.0,0.0,0.0,0.0,0.0,0.0,0.0,0.0,0.0,0.0,0.0,0.0,0.0,0.0,0.0,0.0,0.0,0.0,0.0,0.0,0.0,0.0,0.0,0.0,0.0,0.0,0.0,0.0,0.0,0.0,0.0,0.0,0.0,0.0,0.0,0.0,0.0,0.0,0.0,0.0,0.0,0.0,0.0,0.0,0.0,0.0,0.0,0.0,0.0,0.0,0.0,0.0,2.5402,2.7167,2.8676,2.9816,3.0973,3.1784,3.217,3.157,0.0,0.0,0.0,0.0,0.0,0.0,0.0,0.0,0.0,0.0,0.0,0.0,0.0,0.0,0.0,0.0,0.0,0.0,0.0,0.0,0.0,0.0,0.0,0.0,0.0,0.0,0.0,2.7518,0.0,0.0,0.0,0.0,0.0,0.0,0.0,0.0,0.0,0.0,0.0,0.0,0.0,0.0,3.6809,3.7284,3.8291,3.8974,0.0,0.0,3.9661,3.9712,3.8979,3.8263,0.0,0.0,0.0,0.0,0.0,0.0,0.0,0.0,0.0,0.0,0.0,0.0,0.0,0.0,0.0,0.0,0.0,0.0,0.0,0.0,0.0,0.0,0.0,0.0,0.0,0.0,0.0,0.0,0.0,0.0,0.0,0.0,0.0,0.0,0.0,0.0,0.0,0.0,0.0,0.0,0.0,0.0,0.0,0.0,0.0,0.0,0.0,0.0,0.0,0.0,0.0,0.0,0.0,0.0,2.4323,2.5935,2.7549,2.9165,3.0756,3.1786,3.2463,3.2723,3.2211,3.1359,0.0,0.0,0.0,0.0,0.0,0.0,0.0,0.0,0.0,0.0,0.0,0.0,0.0,0.0,0.0,0.0,0.0,0.0,0.0,0.0,0.0,0.0,0.0,0.0,0.0,0.0,0.0,0.0,0.0,0.0,0.0,0.0,0.0,0.0,0.0,0.0,0.0,0.0,0.0,0.0,0.0,3.6999,3.759,3.8655,3.9375,0.0,3.9857,4.007,3.9508,3.9348,3.9039,3.8182,0.0,0.0,0.0,0.0,0.0,0.0,0.0,0.0,0.0,0.0,0.0,0.0,0.0,0.0,0.0,0.0,0.0,0.0,0.0,0.0,0.0,0.0,0.0,0.0,0.0,0.0,0.0,0.0,0.0,0.0,0.0,0.0,0.0,0.0,0.0,0.0,0.0,0.0,0.0,0.0,0.0,0.0,0.0,0.0,0.0,0.0,0.0,0.0,0.0,0.0,0.0,0.0,0.0,2.4953,2.6605,2.8079,2.9564,3.1048,3.1945,3.2604,3.2972,3.22,3.1281,0.0,0.0,0.0,0.0,0.0,0.0,0.0,0.0,0.0,0.0,0.0,0.0,0.0,0.0,0.0,0.0,0.0,0.0,0.0,0.0,0.0,0.0,0.0,0.0,0.0,0.0,0.0,0.0,2.896,2.9547,3.0254,0.0,0.0,0.0,0.0,0.0,0.0,0.0,0.0,0.0,0.0,3.7098,3.7899,3.8988,0.0,0.0,3.9994,4.0223,3.9785,3.9438,3.8895,3.7998,3.7799,0.0,0.0,0.0,0.0,0.0,0.0,0.0,0.0,0.0,0.0,0.0,0.0,0.0,0.0,0.0,0.0,0.0,0.0,0.0,0.0,0.0,0.0,0.0,0.0,0.0,0.0,0.0,0.0,0.0,0.0,0.0,0.0,0.0,0.0,0.0,0.0,0.0,0.0,0.0,0.0,0.0,0.0,0.0,0.0,0.0,0.0,0.0,0.0,0.0,0.0,0.0,0.0,2.5275,2.7066,2.8397,2.9789,3.1236,3.2113,3.2748,3.3138,3.2502,3.1658,0.0,0.0,0.0,0.0,0.0,0.0,0.0,0.0,0.0,0.0,0.0,0.0,0.0,0.0,0.0,0.0,0.0,0.0,0.0,0.0,0.0,0.0,0.0,0.0,0.0,0.0,0.0,0.0,2.8616,2.9131,2.9657,0.0,0.0,0.0,0.0,0.0,0.0,0.0,0.0,0.0,0.0,3.7224,3.8201,3.9204,3.9817,3.9858,4.0306,4.0537,4.0103,3.9757,3.9222,3.8474,0.0,0.0,0.0,0.0,0.0,0.0,0.0,0.0,0.0,0.0,0.0,0.0,0.0,0.0,0.0,0.0,0.0,0.0,0.0,0.0,0.0,0.0,0.0,0.0,0.0,0.0,0.0,1.7223,0.0,0.0,1.7621,0.0,0.0,0.0,0.0,0.0,0.0,0.0,0.0,0.0,0.0,0.0,0.0,0.0,0.0,0.0,0.0,0.0,0.0,0.0,0.0,0.0,0.0,2.5259,2.7268,2.8471,2.983,3.1487,3.2402,3.3029,3.3326,3.3255,3.2728,3.1578,0.0,0.0,0.0,0.0,0.0,0.0,0.0,0.0,0.0,0.0,0.0,0.0,0.0,0.0,0.0,0.0,0.0,0.0,0.0,0.0,0.0,0.0,0.0,0.0,0.0,0.0,2.7743,2.8239,2.8602,0.0,0.0,0.0,0.0,0.0,0.0,0.0,0.0,0.0,0.0,3.646,3.7403,3.8527,3.9233,3.9784,4.028,4.0855,4.1064,4.0461,4.0357,4.0247,0.0,0.0,0.0,0.0,0.0,0.0,0.0,0.0,0.0,0.0,0.0,0.0,0.0,0.0,0.0,0.0,0.0,0.0,0.0,0.0,0.0,0.0,0.0,0.0,0.0,0.0,0.0,1.8428,1.8271,0.0,0.0,0.0,0.0,0.0,0.0,0.0,0.0,0.0,0.0,0.0,1.99,2.0177,0.0,0.0,0.0,0.0,0.0,0.0,0.0,0.0,0.0,0.0,0.0,0.0,2.6269,2.7865,2.9219,3.08,3.2565,3.312,3.3706,3.4389,3.3813,3.2886,3.1574,0.0,0.0,0.0,0.0,0.0,0.0,0.0,0.0,0.0,0.0,0.0,0.0,0.0,0.0,0.0,0.0,0.0,0.0,0.0,0.0,0.0,0.0,0.0,0.0,0.0,2.7633,0.0,0.0,0.0,0.0,0.0,0.0,0.0,0.0,0.0,0.0,0.0,3.4246,3.5936,3.6673,3.741,3.8348,3.9282,3.9982,0.0,0.0,0.0,0.0,0.0,0.0,0.0,0.0,0.0,0.0,0.0,0.0,0.0,0.0,4.1391,4.0367,4.107,4.1773,4.1824,0.0,0.0,0.0,0.0,0.0,0.0,0.0,0.0,0.0,0.0,0.0,0.0,0.0,0.0,1.907,0.0,1.8995,0.0,0.0,0.0,0.0,0.0,0.0,0.0,0.0,2.0484,2.0643,2.0616,2.0657,2.059,0.0,2.0554,2.0689,0.0,0.0,0.0,0.0,0.0,0.0,0.0,0.0,2.7347,2.8975,3.0278,3.1696,3.3207,3.3757,3.4344,3.5032,3.4421,3.3558,3.2496,3.1047,3.0317,0.0,0.0,0.0,0.0,0.0,0.0,0.0,0.0,0.0,0.0,0.0,0.0,0.0,0.0,0.0,0.0,0.0,0.0,0.0,0.0,0.0,0.0,0.0,2.7744,0.0,0.0,0.0,0.0,0.0,0.0,0.0,0.0,0.0,3.3635,3.4161,3.4967,3.6444,3.7222,3.7974,3.8827,0.0,0.0,0.0,0.0,0.0,0.0,0.0,4.1168,4.0829,4.1397,4.1968,4.2253,4.2799,4.3241,4.3241,0.0,0.0,4.2377,4.2988,4.3796,4.3796,4.3796,4.3796,4.3796,4.3796,4.3796,0.0,0.0,0.0,0.0,0.0,0.0,0.0,0.0,1.9203,1.9221,0.0,1.9471,0.0,0.0,0.0,0.0,2.0565,2.0623,0.0,0.0,2.1616,2.1647,2.1592,2.1313,2.1096,2.1025,2.1075,2.1276,2.1559,2.1613,0.0,0.0,0.0,0.0,0.0,0.0,2.8462,3.0439,3.1523,3.2512,3.348,3.4371,3.4979,3.523,3.5049,3.4723,3.4322,3.2901,3.1942,3.1503,3.0151,0.0,0.0,0.0,0.0,0.0,0.0,0.0,0.0,0.0,0.0,0.0,0.0,0.0,0.0,0.0,0.0,0.0,0.0,0.0,0.0,2.6857,0.0,0.0,0.0,0.0,0.0,0.0,0.0,0.0,0.0,0.0,3.4389,3.5588,3.6585,3.7161,0.0,0.0,0.0,0.0,4.123,4.2082,4.2657,4.2997,4.2997,4.3023,4.3049,4.3023,0.0,0.0,4.4994,4.5341,4.5475,4.5502,4.5953,4.5874,4.4226,4.4784,4.5502,4.5528,4.5529,4.5528,4.5555,4.5502,4.5502,2.0115,0.0,0.0,0.0,0.0,2.0312,2.0501,2.0547,2.0826,2.08,2.0611,2.0664,0.0,0.0,0.0,0.0,0.0,0.0,2.1555,2.176,2.227,2.2413,2.2245,2.2135,2.1959,2.1726,2.1734,2.2029,2.255,2.2587,2.2886,2.3446,0.0,0.0,0.0,0.0,2.943,3.1043,3.2441,3.369,3.4817,3.5418,3.5759,3.5832,3.579,3.556,3.5102,3.408,3.3542,3.3568,3.1957,0.0,0.0,0.0,0.0,0.0,0.0,0.0,0.0,0.0,0.0,0.0,0.0,0.0,0.0,0.0,0.0,0.0,0.0,0.0,2.853,2.8639,2.8735,0.0,0.0,0.0,0.0,0.0,0.0,0.0,0.0,0.0,3.6018,3.6325,3.6748,0.0,0.0,4.0029,4.0875,4.1466,4.206,4.2658,4.3258,0.0,4.365,4.4017,4.4278,4.4304,4.4748,4.5324,4.5983,4.6171,4.6199,4.6227,4.6672,4.6854,4.6461,4.6531,4.6778,4.6779,4.6779,4.6779,4.6779,4.6779,4.6752,2.0375,2.0043,2.0293,2.0398,2.0434,2.0864,2.1067,2.1067,2.1472,2.1564,2.1357,2.1581,2.1498,2.1261,2.1019,0.0,0.0,0.0,2.2276,2.2657,2.3016,2.3172,2.3147,2.2937,2.2706,2.2531,2.2538,2.2762,2.3184,2.3591,2.4087,2.4673,0.0,0.0,2.7709,2.9187,3.0663,3.2126,3.3477,3.4583,3.5495,3.5997,3.6222,3.6222,3.6222,3.6018,3.5536,3.482,3.4462,3.4459,3.3,3.1808,0.0,0.0,0.0,0.0,0.0,0.0,0.0,0.0,0.0,0.0,0.0,2.4385,2.4493,0.0,0.0,0.0,2.7496,2.8602,2.9236,2.9475,0.0,0.0,0.0,0.0,0.0,0.0,0.0,3.3627,3.44,3.5446,3.6926,3.7534,3.8088,3.8827,4.0126,4.1291,4.191,0.0,4.3344,4.3775,4.4458,4.4932,4.4932,4.5401,4.595,4.6449,4.6761,4.7179,4.7757,4.7832,4.7861,4.7887,4.7937,4.8015,4.8012,4.7832,4.7638,4.7638,4.7638,4.7638,4.7638,4.7666,4.7638,2.0344,2.0361,2.0846,2.1,2.0966,2.1004,2.1042,2.1042,2.1493,2.1681,2.1719,2.2169,2.2263,2.204,2.1888,0.0,2.2533,2.2559,2.3092,2.3985,2.3799,2.3888,2.4176,2.3692,2.3412,2.3345,2.3438,2.3474,2.353,2.4508,2.5358,2.6087,2.6168,2.7055,2.8721,3.0377,3.192,3.3357,3.4425,3.5236,3.5701,3.6208,3.6429,3.6356,3.6389,3.6188,3.5754,3.5268,3.4847,3.4458,3.3566,3.2455,3.1271,0.0,0.0,0.0,0.0,0.0,0.0,0.0,0.0,0.0,0.0,0.0,0.0,0.0,0.0,0.0,2.8071,0.0,2.9252,2.9784,0.0,0.0,0.0,3.1497,3.2156,3.2704,3.3558,3.4893,0.0,0.0,3.7349,3.9046,4.025,4.0488,4.168,4.2634,4.3,4.3962,4.485,4.5187,4.6039,4.6654,4.6708,4.7153,4.7832,4.8747,4.9169,4.9218,4.9636,4.9797,4.9845,4.974,4.9453,4.9143,4.9169,4.8728,4.8332,4.8309,4.8201,4.8175,4.8152,4.8152,4.8126,2.0503,2.0574,2.1046,2.1002,2.0742,2.1013,2.1167,2.1195,2.1889,2.2197,2.2236,2.2697,2.2757,2.2518,2.2716,2.2741,2.268,2.314,2.3491,2.3718,2.4315,2.4512,2.4365,2.4568,2.4422,2.4008,2.4,2.4138,2.4424,2.5016,2.5769,2.6685,2.7601,2.853,2.9531,3.0728,3.193,3.3185,3.4277,3.5201,3.59,3.659,3.6683,3.611,3.6327,3.6321,3.5933,3.5487,3.5178,3.5074,3.389,3.2967,3.2339,3.0858,0.0,0.0,0.0,0.0,0.0,0.0,0.0,0.0,0.0,2.5602,2.5508,0.0,2.7068,0.0,2.9011,3.0185,3.0573,3.1019,0.0,0.0,3.228,3.3053,3.3235,3.4381,3.5426,3.6119,3.7067,3.8068,3.8874,4.0459,4.1738,4.2278,4.2488,4.3027,4.404,4.4752,4.5537,4.6363,4.7318,4.8113,4.8427,4.893,4.9348,4.9636,4.9714,4.974,4.9871,4.9897,4.9897,4.9897,4.9793,4.9714,4.9714,4.9587,4.9352,4.8986,4.8512,4.8172,4.8172,4.8172,4.8172,2.058,2.0814,2.1157,2.1125,2.0917,2.1155,2.1234,2.1314,2.2133,2.2489,2.2528,2.2999,2.314,2.3019,2.307,2.307,2.3058,2.3346,2.3675,2.4021,2.4558,2.4804,2.484,2.5141,2.5104,2.4783,2.4783,2.4894,2.508,2.5695,2.637,2.7074,2.8094,2.908,3.0064,3.1288,3.2424,3.3429,3.4367,3.5067,3.5502,3.5908,3.5866,3.5306,3.5478,3.5416,3.5021,3.4777,3.455,3.4307,3.361,3.2857,3.2112,3.1001,2.9827,0.0,0.0,0.0,0.0,0.0,0.0,0.0,0.0,0.0,0.0,0.0,2.8382,2.9057,3.0354,3.1319,3.181,3.2275,3.2604,3.2685,3.3608,3.439,3.4758,3.5705,3.6661,3.7487,3.8301,3.9031,3.9698,4.099,4.2049,4.2577,4.2948,4.3667,4.4951,4.5922,4.6703,4.7265,4.8111,4.8928,4.9551,4.9989,5.0394,5.0603,5.0655,5.0655,5.0655,5.0655,5.0655,5.0629,5.0446,5.0289,5.0289,5.0054,4.9793,4.9505,4.9191,4.8829,4.8303,4.8172,4.825,2.058,2.1033,2.1242,2.1349,2.1316,2.1316,2.1316,2.1357,2.2245,2.2648,2.2797,2.3254,2.3463,2.3451,2.3288,2.3273,2.3463,2.3463,2.3781,2.4427,2.4666,2.4944,2.5283,2.5513,2.5598,2.5571,2.5571,2.5571,2.5571,2.6322,2.6922,2.7383,2.8165,2.9146,3.0292,3.1682,3.2783,3.3625,3.4342,3.4703,3.4685,3.4731,3.4617,3.4279,3.4193,3.399,3.359,3.3539,3.3322,3.2959,3.2852,3.2328,3.128,3.0823,3.0205,0.0,2.8641,0.0,0.0,0.0,0.0,0.0,0.0,0.0,0.0,2.908,3.0077,3.0986,3.1811,3.2452,3.2922,3.3545,3.3982,3.4108,3.4828,3.561,3.6396,3.6909,3.7614,3.8752,3.9284,3.9765,4.0169,4.1083,4.184,4.2357,4.3151,4.4154,4.5529,4.6749,4.7583,4.7839,4.8545,4.9389,5.009,5.0555,5.0866,5.1309,5.1424,5.1534,5.1481,5.1513,5.157,5.1518,5.1178,5.089,5.089,5.0472,5.0132,5.0054,4.9976,4.9636,4.8773,4.8512,4.862,2.0713,2.1003,2.1413,2.1448,2.1316,2.1316,2.1316,2.1357,2.2245,2.297,2.356,2.3672,2.3728,2.3728,2.368,2.368,2.3728,2.3728,2.3804,2.396,2.4669,2.5053,2.516,2.5898,2.6092,2.5917,2.5904,2.5917,2.5904,2.6368,2.6918,2.7568,2.84,2.9252,3.0123,0.0,0.0,0.0,3.3277,3.3513,3.3545,3.3838,3.3858,3.35,3.3195,0.0,3.2421,3.2158,3.1982,3.1896,3.1548,0.0,0.0,0.0,0.0,0.0,0.0,0.0,0.0,0.0,0.0,0.0,3.0971,3.0483,2.9515,3.0781,3.175,3.1964,3.3023,3.3716,3.386,3.457,3.5087,3.5138,3.6107,3.6995,3.7448,3.8139,3.8815,3.9268,4.0035,4.0563,4.0668,4.1403,4.2175,4.2744,4.3353,4.4039,4.4856,4.6111,4.711,4.7688,4.8848,4.9933,5.0472,5.0567,5.063,5.081,5.1057,5.1183,5.1246,5.144,5.1596,5.1596,5.1518,5.1439,5.1439,5.1335,5.1073,5.0707,5.0629,5.042,4.9714,4.9587,4.964,2.1253,2.1502,2.154,2.1603,0.0,2.1599,2.172,2.1963,2.2406,2.3038,2.38,2.38,2.38,2.38,2.38,2.38,2.38,2.38,2.392,2.4172,2.4811,2.5209,2.5435,2.6109,2.6359,2.6212,2.6212,2.6212,2.6212,2.6603,2.6946,2.7294,2.8157,2.89,2.9508,3.0129,3.1074,3.2268,3.2676,3.2901,3.2902,3.2951,3.2769,3.2435,3.2064,0.0,0.0,0.0,0.0,0.0,0.0,0.0,0.0,2.9414,0.0,2.9429,2.9256,2.9543,3.044,3.0829,3.1348,3.2077,3.2857,3.2726,3.1389,3.2413,3.3137,3.3156,3.4134,3.4805,3.5019,3.5678,3.6113,3.6362,3.6892,3.747,3.8072,3.8678,3.9286,3.9827,4.0442,4.0869,4.0869,4.134,4.1841,4.2286,4.2966,4.3536,4.4021,4.5455,4.6825,4.771,4.8622,4.9468,4.9982,5.0264,5.0423,5.0582,5.0715,5.0931,5.1088,5.1246,5.1377,5.1534,5.1596,5.1596,5.1596,5.1596,5.1518,5.1282,5.1178,5.11,5.076,5.0289,5.0002,2.1832,2.2061,2.1865,2.1832,2.1978,2.2025,2.2285,2.2728,0.0,0.0,0.0,2.38,2.38,2.38,2.38,2.38,2.38,2.3892,2.4132,2.4532,2.501,2.5435,2.5832,2.6188,2.64,2.64,2.64,2.64,2.6426,2.6742,2.6953,2.7071,2.774,2.8314,2.8808,2.9586,3.0531,3.1533,3.1955,3.2206,3.2266,3.1944,3.1651,3.1392,3.097,3.0447,2.9808,2.9701,2.9521,2.9213,2.9125,2.8995,2.8774,2.8707,2.89,2.9367,2.9384,2.99,3.1115,3.1819,3.244,3.2972,3.4251,3.4554,3.3405,3.4083,3.4564,3.4564,3.5287,3.5879,3.6211,3.6621,3.7031,3.7383,3.748,3.7818,3.8545,3.8977,3.949,4.0177,4.0647,4.0918,4.0897,4.1167,4.1437,4.1579,4.2251,4.2896,4.3245,4.4755,4.6392,4.7416,4.7879,4.8396,4.9137,4.9493,4.9879,5.0174,5.0359,5.0556,5.0899,5.1057,5.1246,5.1534,5.1596,5.1596,5.1596,5.1596,5.1596,5.1596,5.1596,5.1596,5.1518,5.0864,5.042,2.2064,2.2266,2.2406,2.2372,2.2252,2.2416,2.2728,2.313,2.313,2.3371,2.38,2.38,2.38,2.38,2.38,2.38,2.38,2.4212,2.4412,2.4532,2.5316,2.5713,2.5832,2.6228,2.64,2.64,2.64,2.64,2.6386,2.6465,2.6676,2.6992,2.715,2.7569,2.8353,2.9188,2.9679,2.9834,3.0245,3.0631,3.1055,3.0678,3.0624,3.0872,3.0229,2.9697,2.9305,2.8975,2.8756,2.8682,2.8373,2.8443,2.8998,2.8685,2.9004,3.0029,3.0148,3.0807,3.2221,3.278,3.3499,3.4556,3.5182,3.5374,3.5118,3.585,3.6343,3.6362,3.6699,3.7051,3.7148,3.748,3.7754,3.7816,3.8164,3.8599,3.902,3.9398,3.9778,4.0218,4.0668,4.0918,4.0918,4.0989,4.1132,4.1437,4.1721,4.2004,4.2756,4.3987,4.5358,4.6338,4.6674,4.7141,4.7993,4.8256,4.8616,4.9202,4.959,4.9976,5.055,5.0867,5.1183,5.1534,5.1565,5.1596,5.1596,5.1596,5.1596,5.1596,5.1596,5.1596,5.1596,5.1387,5.1309,2.2503,2.267,2.2772,2.2924,2.2992,2.3195,2.3359,2.352,2.352,2.36,2.38,2.38,2.38,2.38,2.38,2.38,2.38,2.4292,2.4612,2.4851,2.5514,2.5911,2.6149,2.6307,2.64,2.64,2.64,2.64,2.64,2.64,2.6518,2.6676,2.6874,2.7333,2.7922,2.8549,2.8837,2.8861,2.9679,3.0206,3.04,3.0076,2.9968,3.0157,2.9643,2.9076,2.8514,2.8313,2.8014,2.7565,2.7401,2.7436,2.7769,2.7618,2.7958,2.895,2.9421,3.0357,3.189,3.3354,3.4512,3.5266,3.5888,3.6321,3.6482,3.6621,3.6782,3.7031,3.7383,3.7637,3.7656,3.8027,3.8281,3.8281,3.8493,3.8683,3.8902,3.9353,3.9786,3.9986,4.0504,4.0918,4.0918,4.0918,4.0954,4.1188,4.1331,4.1686,4.2194,4.2861,4.3744,4.4914,4.5392,4.5968,4.6908,4.7274,4.7672,4.8387,4.8975,4.9493,5.0008,5.0455,5.0931,5.1277,5.1471,5.1596,5.1596,5.1596,5.1596,5.1596,5.1596,5.1596,5.1596,5.1596,5.1596,2.3008,2.3268,2.3286,2.3485,2.3738,2.38,2.38,2.38,2.38,2.38,2.38,2.38,2.38,2.38,2.38,2.384,2.4012,2.4412,2.4851,2.5289,2.5713,2.6109,2.6386,2.64,2.64,2.64,2.64,2.64,2.64,2.64,2.64,2.6426,2.6781,2.7136,2.7476,2.7922,2.8118,2.8197,2.9042,2.9625,2.9819,2.9562,2.9403,2.9296,2.9048,2.8542,2.7801,2.7748,2.7445,2.686,2.6707,2.6735,2.6881,2.6819,2.7163,2.8078,2.8799,2.9986,3.1782,3.3744,3.5082,3.5568,3.6238,3.6867,3.7328,3.7068,3.708,3.7546,3.7891,3.803,3.8105,3.8359,3.8611,3.8611,3.8611,3.8611,3.8683,3.9245,3.9714,3.9786,4.0397,4.0918,4.0918,4.0918,4.0918,4.0954,4.1167,4.1452,4.17,4.1806,4.2441,4.328,4.4043,4.4834,4.5832,4.6305,4.6841,4.7573,4.8289,4.891,4.9461,5.0136,5.0646,5.1025,5.1403,5.1565,5.1596,5.1596,5.1596,5.1596,5.1596,5.1596,5.1596,5.1596,5.1596,2.3568,2.3995,2.4183,2.4193,2.4116,2.3921,2.3812,2.38,2.38,2.38,2.38,2.38,2.38,2.38,2.38,2.4052,2.4412,2.4851,2.5289,2.5713,2.6149,2.6347,2.64,2.64,2.64,2.64,2.64,2.64,2.64,2.64,2.64,2.6439,2.6795,2.7032,2.711,2.7451,2.7673,2.7673,2.779,2.8221,2.8964,2.8973,2.8778,2.8427,2.8398,2.8021,2.7312,2.7259,2.7221,2.7144,2.6719,2.6843,2.7337,2.7158,2.7524,2.8667,2.9225,3.0492,3.275,3.3936,3.4819,3.553,3.6015,3.659,3.7292,3.7326,3.7655,3.8236,3.8493,3.8513,3.8552,3.8591,3.8611,3.8611,3.8611,3.8611,3.8683,3.9245,3.9714,3.9714,4.0397,4.0918,4.0918,4.0918,4.0918,4.0918,4.0954,4.1061,4.1132,4.1345,4.1579,4.1969,4.2581,4.3663,4.4697,4.5222,4.5866,4.6774,4.7374,4.8133,4.9105,4.9815,5.0327,5.0899,5.1377,5.1565,5.1596,5.1596,5.1596,5.1596,5.1596,5.1596,5.1596,5.1596,5.1596,2.4064,2.4438,2.4558,2.4501,2.4427,2.415,2.3945,2.3812,2.38,2.38,2.38,2.38,2.38,2.38,2.4092,2.4332,2.4532,2.5209,2.5594,2.5832,2.6228,2.64,2.64,2.64,2.64,2.64,2.64,2.64,2.64,2.64,2.64,2.6426,2.6584,2.6623,2.6663,2.7057,2.7254,2.7254,2.7476,2.779,2.8065,2.8143,2.8065,2.7922,2.7883,2.767,2.7167,2.7075,2.6997,2.6762,2.6527,2.6581,2.6847,2.6742,2.7097,2.8143,2.9523,3.1017,3.274,3.384,3.4632,3.5194,3.5829,3.6553,3.7292,3.7365,3.7733,3.8428,3.8611,3.8611,3.8611,3.8611,3.8611,3.8611,3.8611,3.8611,3.8611,3.9264,3.9714,3.975,4.0397,4.0918,4.0918,4.0918,4.0918,4.0918,4.0918,4.0918,4.0918,4.1025,4.1224,4.1473,4.1898,4.2546,4.3593,4.4125,4.4812,4.5765,4.664,4.7573,4.8453,4.9558,5.0264,5.0741,5.122,5.1534,5.1596,5.1596,5.1596,5.1596,5.1596,5.1596,5.1596,5.1596,5.1596,2.4551,2.4866,2.4795,2.4758,2.468,2.4415,2.415,2.3921,2.3909,2.3872,2.38,2.392,2.4012,2.4052,2.4372,2.4612,2.4918,2.5514,2.5872,2.599,2.6268,2.64,2.64,2.64,2.64,2.64,2.64,2.64,2.64,2.64,2.64,2.64,2.64,2.64,2.6426,2.6716,2.6821,2.6874,2.7136,2.728,2.728,2.728,2.7319,2.7398,2.7437,2.7254,2.686,2.6834,2.6702,2.6426,2.64,2.64,2.64,2.64,2.6821,2.7883,2.9586,3.1171,3.2359,3.3575,3.4481,3.4969,3.5754,3.6534,3.7181,3.7365,3.777,3.8465,3.8611,3.8611,3.8611,3.8611,3.8611,3.8611,3.8611,3.8611,3.8647,3.9245,3.9714,3.9786,4.0397,4.0918,4.0918,4.0918,4.0918,4.0918,4.0918,4.0918,4.0918,4.0918,4.1025,4.1295,4.1331,4.1827,4.2756,4.335,4.3987,4.4949,4.6001,4.6908,4.7795,4.9072,5.0104,5.0493,5.1063,5.1471,5.1565,5.1596,5.1596,5.1596,5.1596,5.1596,5.1596,5.1596,5.1596,2.5189,2.5324,2.5083,2.4987,2.4957,2.4692,2.4415,2.4174,2.4174,2.4041,2.3941,2.4264,2.4464,2.4504,2.4584,2.4958,2.5634,2.5792,2.603,2.6307,2.6386,2.64,2.64,2.64,2.64,2.64,2.64,2.64,2.64,2.64,2.64,2.64,2.64,2.64,2.6386,2.6426,2.6426,2.6465,2.6505,2.6505,2.6465,2.6505,2.6702,2.6978,2.7032,2.6821,2.6505,2.6426,2.6426,2.6386,2.64,2.64,2.64,2.6426,2.6978,2.8211,2.9431,3.0709,3.1993,3.3196,3.418,3.4969,3.5754,3.6553,3.7311,3.7439,3.7826,3.8538,3.8611,3.8611,3.8611,3.8611,3.8611,3.8611,3.8611,3.8611,3.8611,3.9208,3.9642,3.9822,4.0397,4.0882,4.0918,4.0918,4.0918,4.0918,4.0918,4.0918,4.0918,4.0918,4.0918,4.0954,4.1061,4.1324,4.2349,4.2826,4.3524,4.4457,4.529,4.6338,4.7539,4.8657,4.95,5.027,5.0867,5.1277,5.1471,5.1596,5.1596,5.1596,5.1596,5.1596,5.1596,5.1596,5.1596,2.5502,2.5391,2.5294,2.5162,2.4993,2.4897,2.4704,2.4451,2.4439,2.4567,2.4743,2.4746,2.5062,2.5572,2.5393,2.5514,2.5792,2.607,2.6268,2.64,2.64,2.64,2.64,2.64,2.64,2.64,2.64,2.64,2.64,2.64,2.64,2.64,2.64,2.64,2.64,2.64,2.64,2.64,2.64,2.64,2.64,2.64,2.6465,2.6584,2.6623,2.6544,2.6386,2.64,2.64,2.64,2.64,2.64,2.6426,2.69,2.749,2.8289,2.9446,3.067,3.1916,3.312,3.4142,3.4969,3.5978,3.6812,3.7292,3.7642,3.8045,3.8465,3.8611,3.8611,3.8611,3.8611,3.8611,3.8611,3.8611,3.8611,3.8683,3.9047,3.9445,3.975,4.0397,4.0882,4.0918,4.0918,4.0918,4.0918,4.0918,4.0918,4.0918,4.0918,4.0918,4.0918,4.0918,4.1132,4.1735,4.2159,4.2721,4.3593,4.4503,4.5561,4.6741,4.8035,4.8983,4.995,5.0582,5.1183,5.144,5.1596,5.1596,5.1596,5.1596,5.1596,5.1596,5.1596,5.1596,2.5632,2.5415,2.5391,2.5294,2.5138,2.5126,2.4969,2.4782,2.4882,2.5082,2.5273,2.5385,2.5786,2.6221,2.6174,2.6122,2.6149,2.6321,2.6386,2.64,2.64,2.64,2.64,2.64,2.64,2.64,2.64,2.64,2.64,2.64,2.64,2.64,2.64,2.64,2.64,2.64,2.64,2.64,2.64,2.64,2.64,2.64,2.64,2.6386,2.64,2.64,2.64,2.64,2.64,2.64,2.64,2.64,2.6465,2.7175,2.7844,2.8328,2.9446,3.067,3.1916,3.312,3.4218,3.5119,3.6163,3.6997,3.7532,3.7862,3.8192,3.8465,3.8611,3.8611,3.8611,3.8611,3.8611,3.8611,3.8611,3.8611,3.8611,3.8958,3.9409,3.9858,4.0469,4.0847,4.0918,4.0918,4.0918,4.0918,4.0918,4.0918,4.0918,4.0918,4.0918,4.0918,4.0918,4.1025,4.1345,4.1664,4.23,4.3176,4.3814,4.4846,4.6035,4.734,4.8494,4.95,5.0359,5.0968,5.1377,5.1534,5.1596,5.1596,5.1596,5.1596,5.1596,5.1596,5.1596,2.5644,2.5427,2.5403,2.5391,2.5355,2.5355,2.5234,2.5156,2.5497,2.5583,2.5699,2.6216,2.6518,2.6671,2.6745,2.6774,2.6667,2.6533,2.6413,2.64,2.64,2.64,2.64,2.64,2.64,2.64,2.64,2.64,2.64,2.64,2.64,2.64,2.64,2.64,2.64,2.64,2.64,2.64,2.64,2.64,2.64,2.64,2.64,2.64,2.64,2.64,2.64,2.64,2.64,2.64,2.64,2.64,2.6505,2.7215,2.7883,2.8353,2.9407,3.0647,3.1916,3.312,3.4331,3.5418,3.6367,3.7181,3.7789,3.8009,3.8228,3.8501,3.8611,3.8611,3.8611,3.8611,3.8611,3.8611,3.8611,3.8611,3.8647,3.8958,3.9465,4.0094,4.0632,4.0882,4.0918,4.0918,4.0918,4.0918,4.0918,4.0918,4.0918,4.0918,4.0918,4.0918,4.0918,4.0954,4.1096,4.1274,4.2053,4.2791,4.3363,4.4194,4.546,4.6741,4.7846,4.8918,5.0295,5.0994,5.144,5.1596,5.1596,5.1596,5.1596,5.1596,5.1596,5.1596,5.1596,2.5909,2.5644,2.5463,2.5391,2.5391,2.5391,2.5513,2.5725,2.5937,2.6268,2.6768,2.6825,2.7066,2.7248,2.7214,2.7014,2.6827,2.672,2.6587,2.6426,2.64,2.64,2.64,2.64,2.64,2.64,2.64,2.64,2.6413,2.6413,2.64,2.64,2.64,2.64,2.6413,2.64,2.64,2.64,2.64,2.64,2.64,2.64,2.64,2.64,2.64,2.64,2.64,2.64,2.64,2.64,2.64,2.64,2.6544,2.7175,2.7647,2.7961,2.9275,3.0531,3.1571,3.2968,3.4331,3.5493,3.6571,3.7365,3.7936,3.8265,3.8428,3.8574,3.8611,3.8611,3.8611,3.8611,3.8611,3.8611,3.8611,3.8611,3.8683,3.9156,3.957,3.9894,4.0489,4.0847,4.0918,4.0918,4.0918,4.0918,4.0918,4.0918,4.0918,4.0918,4.0918,4.0918,4.0918,4.0918,4.0989,4.1096,4.1523,4.2229,4.2826,4.3571,4.4846,4.6136,4.7217,4.8665,5.0014,5.0899,5.1377,5.1596,5.1596,5.1596,5.1596,5.1596,5.1596,5.1596,5.1596,2.6017,2.5764,2.5511,2.5391,2.5433,2.5562,2.5805,2.6146,2.6486,2.6965,2.7392,2.7459,2.7577,2.7802,2.7603,2.7335,2.7134,2.6907,2.6787,2.6694,2.6587,2.6547,2.6573,2.6707,2.672,2.672,2.676,2.672,2.6747,2.672,2.672,2.672,2.672,2.6734,2.672,2.6707,2.668,2.6573,2.6547,2.6493,2.6413,2.64,2.64,2.64,2.64,2.64,2.64,2.64,2.64,2.64,2.64,2.64,2.6465,2.7018,2.753,2.8079,2.908,3.0376,3.1571,3.3006,3.4406,3.568,3.6812,3.7623,3.8119,3.8501,3.8574,3.8611,3.8611,3.8611,3.8611,3.8611,3.8611,3.8611,3.8611,3.8611,3.8683,3.9245,3.9642,3.9894,4.0397,4.0811,4.0918,4.0918,4.0918,4.0918,4.0918,4.0918,4.0918,4.0918,4.0918,4.0918,4.0918,4.0918,4.0918,4.0989,4.1117,4.1629,4.2194,4.3106,4.4181,4.5528,4.6741,4.8755,5.0327,5.0873,5.1377,5.1534,5.1596,5.1596,5.1596,5.1596,5.1596,5.1596,5.1596,2.6054,2.5801,2.5535,2.5482,2.5555,2.5915,2.6146,2.6358,2.705,2.7445,2.7643,2.7954,2.8165,2.8112,2.7871,2.7682,2.7602,2.7188,2.7041,2.7094,2.7001,2.6894,2.6881,2.7054,2.7188,2.7229,2.7242,2.7255,2.7202,2.7202,2.7309,2.7229,2.7215,2.7282,2.7215,2.7282,2.7081,2.6881,2.6841,2.672,2.6507,2.648,2.6493,2.6493,2.6466,2.6453,2.6453,2.6426,2.64,2.64,2.64,2.64,2.6465,2.6781,2.7465,2.8157,2.9017,3.0338,3.1801,3.3082,3.4481,3.5978,3.6886,3.7733,3.8392,3.8574,3.8611,3.8611,3.8611,3.8611,3.8611,3.8611,3.8611,3.8611,3.8611,3.8611,3.8647,3.9264,3.9642,3.9822,4.0361,4.0918,4.0918,4.0918,4.0918,4.0918,4.0918,4.0918,4.0918,4.0918,4.0918,4.0918,4.0918,4.0918,4.0918,4.0918,4.1025,4.1239,4.1841,4.2686,4.3905,4.5324,4.6874,4.8853,5.0264,5.0842,5.1314,5.1502,5.1596,5.1596,5.1596,5.1596,5.1596,5.1596,5.1596,2.6439,2.6331,2.5873,2.5896,2.6173,2.616,2.6528,2.7093,2.7347,2.7685,2.7981,2.8136,2.8192,2.8179,2.8098,2.7951,2.7696,2.7535,2.7362,2.7336,2.7428,2.7335,2.7229,2.7269,2.7322,2.7336,2.7362,2.7309,2.7309,2.7349,2.7336,2.7309,2.7349,2.7336,2.7309,2.7336,2.7269,2.7202,2.7148,2.7162,2.7081,2.7055,2.7081,2.7055,2.6827,2.672,2.668,2.6507,2.64,2.64,2.64,2.64,2.6465,2.7018,2.753,2.7947,2.9173,3.0415,3.1587,3.304,3.4536,3.6015,3.709,3.7733,3.8501,3.8611,3.8611,3.8611,3.8611,3.8611,3.8611,3.8611,3.8611,3.8611,3.8611,3.8611,3.872,3.9228,3.9714,3.9786,4.0397,4.079,4.0918,4.0918,4.0918,4.0918,4.0918,4.0918,4.0918,4.0918,4.0918,4.0918,4.0918,4.0918,4.0918,4.0918,4.0954,4.1025,4.1558,4.2356,4.3905,4.5652,4.7374,4.9299,5.0104,5.0715,5.122,5.1596,5.1596,5.1596,5.1596,5.1596,5.1596,5.1596,5.1596,2.6596,2.6604,2.6402,2.6376,2.6512,2.6737,2.711,2.75,2.7741,2.7939,2.8136,2.8192,2.8192,2.8192,2.8179,2.8098,2.7883,2.7749,2.7682,2.775,2.7844,2.7817,2.771,2.767,2.7684,2.7684,2.767,2.7684,2.7697,2.7684,2.767,2.7697,2.767,2.7684,2.7697,2.767,2.7603,2.7523,2.7483,2.7443,2.7322,2.7309,2.7296,2.7282,2.7081,2.7014,2.6987,2.6841,2.6667,2.6466,2.64,2.64,2.6426,2.6978,2.7516,2.7883,2.9433,3.0849,3.2197,3.3796,3.5427,3.6808,3.7746,3.8321,3.8759,3.8828,3.8845,3.863,3.863,3.8611,3.8611,3.8611,3.8611,3.8611,3.8611,3.8611,3.8611,3.9264,3.9642,3.9894,4.0361,4.0918,4.0918,4.0918,4.0918,4.0918,4.0918,4.0918,4.0918,4.0918,4.0918,4.0918,4.0918,4.0918,4.0918,4.0918,4.0918,4.0989,4.1594,4.23,4.3697,4.5595,4.7274,4.8787,4.9726,5.0582,5.112,5.1528,5.1596,5.1596,5.1596,5.1596,5.1596,5.1596,5.1596,2.6677,2.6742,2.6962,2.6922,2.6952,2.7568,2.78,2.7735,2.8061,2.819,2.8192,2.8192,2.8192,2.8192,2.8192,2.8179,2.8152,2.7924,2.7978,2.8058,2.8138,2.8112,2.8085,2.8072,2.8085,2.8098,2.8165,2.8138,2.8085,2.8125,2.8152,2.8098,2.8125,2.8165,2.8085,2.8125,2.8031,2.7831,2.7749,2.7697,2.7536,2.751,2.751,2.7496,2.7403,2.7268,2.7282,2.7229,2.7055,2.652,2.648,2.6533,2.6599,2.6943,2.759,2.854,2.9966,3.1543,3.3176,3.4908,3.6626,3.7778,3.8709,3.9313,3.9244,3.9199,3.9023,3.873,3.8613,3.8611,3.8611,3.8611,3.8611,3.8611,3.8611,3.8611,3.872,3.9208,3.9642,3.975,4.0397,4.0775,4.0882,4.0918,4.0918,4.0918,4.0918,4.0918,4.0918,4.0918,4.0918,4.0918,4.0918,4.0918,4.0918,4.0918,4.0918,4.0989,4.1735,4.2511,4.3502,4.5187,4.6784,4.8207,4.9468,5.0391,5.1025,5.134,5.1502,5.1596,5.1596,5.1596,5.1596,5.1596,5.1596,2.7111,2.7448,2.7323,2.7662,2.8235,2.8291,2.8303,2.8382,2.8468,2.8406,2.8232,2.8192,2.8192,2.8192,2.8192,2.8192,2.8192,2.8098,2.8138,2.8165,2.8192,2.8192,2.8192,2.8192,2.8192,2.8192,2.8192,2.8192,2.8192,2.8192,2.8192,2.8192,2.8192,2.8192,2.8192,2.8179,2.8165,2.8098,2.8085,2.8031,2.7978,2.7938,2.7938,2.7924,2.7709,2.7495,2.7349,2.7309,2.7242,2.7148,2.7108,2.7108,2.7189,2.7755,2.8386,2.9203,3.0635,3.2182,3.3618,3.5305,3.6775,3.8078,3.8994,3.9429,3.9728,3.9434,3.9219,3.9004,3.8789,3.8669,3.8611,3.8611,3.8611,3.8611,3.8611,3.8611,3.8683,3.9011,3.9409,3.9714,4.013,4.0561,4.0847,4.0882,4.0918,4.0918,4.0918,4.0918,4.0918,4.0918,4.0918,4.0918,4.0918,4.0918,4.0918,4.0918,4.0918,4.0989,4.1664,4.2384,4.3397,4.4652,4.6248,4.7846,4.9339,5.0136,5.0709,5.1309,5.1534,5.1565,5.1596,5.1596,5.1596,5.1596,5.1596,2.7468,2.7727,2.8072,2.8424,2.8796,2.8859,2.8867,2.8775,2.8657,2.8524,2.8393,2.8272,2.8192,2.8192,2.8192,2.8192,2.8192,2.8192,2.8179,2.8192,2.8192,2.8192,2.8192,2.8192,2.8192,2.8192,2.8192,2.8192,2.8192,2.8192,2.8192,2.8192,2.8192,2.8192,2.8192,2.8192,2.8179,2.8179,2.8192,2.8192,2.8192,2.8192,2.8192,2.8179,2.8031,2.7857,2.775,2.7724,2.7724,2.7724,2.771,2.7576,2.7472,2.8111,2.8855,2.9719,3.1319,3.301,3.4496,3.625,3.7842,3.8834,3.9702,4.0008,4.0158,3.9941,3.959,3.9277,3.9004,3.8845,3.865,3.8611,3.8611,3.8611,3.8611,3.8611,3.8683,3.8958,3.9357,3.9698,4.0058,4.0489,4.074,4.0847,4.0918,4.0918,4.0918,4.0918,4.0918,4.0918,4.0918,4.0918,4.0918,4.0918,4.0918,4.0918,4.0918,4.1025,4.1381,4.2053,4.2826,4.4206,4.5674,4.7217,4.8657,4.9622,5.0232,5.0842,5.144,5.1565,5.1596,5.1596,5.1596,5.1596,5.1596,2.7772,2.801,2.8867,2.9128,2.9065,2.9362,2.9379,2.9041,2.8858,2.8724,2.8564,2.8353,2.8272,2.8192,2.8192,2.8192,2.8192,2.8192,2.8192,2.8192,2.8192,2.8192,2.8192,2.8192,2.8192,2.8192,2.8192,2.8192,2.8192,2.8192,2.8192,2.8192,2.8192,2.8192,2.8192,2.8192,2.8192,2.8192,2.8192,2.8192,2.8192,2.8192,2.8192,2.8179,2.8165,2.8138,2.8098,2.8112,2.8152,2.8192,2.8192,2.7966,2.7892,2.8262,2.9119,3.0042,3.1919,3.3685,3.5378,3.724,3.8806,3.9863,4.0666,4.0938,4.0703,4.0469,4.0117,3.9668,3.9297,3.9023,3.8767,3.865,3.863,3.8611,3.8611,3.8611,3.8647,3.8921,3.9192,3.9554,3.9878,4.0238,4.0596,4.0811,4.0847,4.0918,4.0918,4.0918,4.0918,4.0918,4.0918,4.0918,4.0918,4.0918,4.0918,4.0918,4.0918,4.1025,4.1259,4.17,4.2335,4.3432,4.4823,4.6405,4.7705,4.8787,4.9912,5.0709,5.1214,5.1466,5.1596,5.1596,5.1596,5.1596,5.1596,2.8191,2.8957,2.9137,2.938,2.9712,2.9788,2.9673,2.9432,2.9325,2.9045,2.8644,2.8537,2.8406,2.8259,2.8192,2.8192,2.8192,2.8192,2.8192,2.8192,2.8192,2.8192,2.8192,2.8192,2.8192,2.8192,2.8205,2.8219,2.8192,2.8192,2.8192,2.8192,2.8192,2.8192,2.8192,2.8192,2.8192,2.8192,2.8192,2.8192,2.8192,2.8192,2.8192,2.8192,2.8192,2.8192,2.8192,2.8192,2.8192,2.8192,2.8192,2.8335,2.8507,2.898,2.9728,3.0804,3.2314,3.4099,3.5845,3.7578,3.888,3.9863,4.0704,4.1133,4.0976,4.0742,4.0469,4.0118,3.9609,3.918,3.9101,3.8848,3.865,3.863,3.863,3.8611,3.8611,3.872,3.8902,3.9228,3.959,4.0022,4.0382,4.074,4.0847,4.0918,4.0918,4.0918,4.0918,4.0918,4.0918,4.0918,4.0918,4.0918,4.0918,4.0918,4.0918,4.0954,4.1167,4.1366,4.1983,4.2686,4.3917,4.5504,4.7117,4.8526,4.9533,5.0455,5.1057,5.1372,5.1471,5.1596,5.1596,5.1596,5.1596,2.8777,2.9227,2.9451,2.9689,2.9869,2.9913,2.9833,2.97,2.9539,2.9325,2.9032,2.8751,2.8537,2.8377,2.8232,2.8192,2.8192,2.8192,2.8192,2.8192,2.8192,2.8192,2.8205,2.8205,2.8299,2.8379,2.8419,2.8326,2.8192,2.8192,2.8219,2.8192,2.8192,2.8192,2.8192,2.8192,2.8192,2.8192,2.8192,2.8192,2.8192,2.8192,2.8192,2.8192,2.8192,2.8192,2.8192,2.8192,2.8192,2.8192,2.8192,2.8403,2.8824,2.9328,3.0025,3.1191,3.2623,3.4262,3.5965,3.7609,3.8938,3.9823,4.0685,4.1133,4.1172,4.0976,4.0762,4.043,4.0039,3.9551,3.9551,3.916,3.8945,3.8867,3.8787,3.8669,3.863,3.863,3.8739,3.8977,3.9409,3.9878,4.0274,4.0596,4.0811,4.0918,4.0918,4.0918,4.0918,4.0918,4.0918,4.0918,4.0918,4.0918,4.0918,4.0918,4.0918,4.0954,4.1025,4.1239,4.1629,4.2335,4.3328,4.4709,4.6348,4.7813,4.8983,4.9822,5.0525,5.1246,5.144,5.1565,5.1596,5.1596,5.1596,2.9272,2.9362,2.9734,2.9913,2.9913,2.9913,2.9913,2.9873,2.9673,2.9539,2.9463,2.9018,2.8778,2.8631,2.8404,2.8272,2.8205,2.8192,2.8219,2.8312,2.8312,2.8312,2.8366,2.8393,2.8526,2.8657,2.8684,2.8564,2.8444,2.8446,2.8393,2.8406,2.8353,2.8272,2.8299,2.8232,2.8219,2.8192,2.8192,2.8192,2.8192,2.8192,2.8192,2.8192,2.8192,2.8192,2.8192,2.8192,2.8192,2.8192,2.8221,2.8431,2.895,2.9398,3.0317,3.1647,3.287,3.4343,3.5965,3.7649,3.8977,3.9823,4.0704,4.1094,4.1211,4.1113,4.0996,4.0644,4.0273,4.0019,3.9961,3.9609,3.9394,3.9297,3.9082,3.8828,3.8769,3.875,3.8691,3.898,3.9357,3.9718,4.0119,4.0417,4.0668,4.0882,4.0918,4.0918,4.0918,4.0918,4.0918,4.0918,4.0918,4.0918,4.0918,4.0918,4.0918,4.0918,4.0954,4.1061,4.1487,4.1947,4.3014,4.3952,4.5153,4.6583,4.7879,4.9307,5.0295,5.1025,5.1372,5.1565,5.1596,5.1596,5.1596,2.9465,2.9824,2.9869,2.9913,2.9913,2.9913,2.9913,2.99,2.986,2.9713,2.9526,2.9392,2.9192,2.8938,2.8684,2.8446,2.8299,2.8286,2.8406,2.8524,2.8551,2.8657,2.8828,2.8895,2.8885,2.8978,2.8991,2.8935,2.8868,2.8855,2.8841,2.8831,2.8631,2.8551,2.8524,2.8419,2.8192,2.8205,2.8219,2.8219,2.8232,2.8245,2.8245,2.8245,2.8245,2.8272,2.8286,2.8286,2.8232,2.8219,2.8192,2.86,2.9314,2.9872,3.104,3.2226,3.3296,3.4262,3.6046,3.7689,3.8977,3.9863,4.0704,4.1094,4.1211,4.1211,4.1172,4.1152,4.0703,4.0469,4.0391,4.0059,3.9863,3.9766,3.9648,3.9394,3.9238,3.9141,3.9043,3.8999,3.9423,3.9629,3.9931,4.0212,4.0489,4.0704,4.0918,4.0918,4.0918,4.0918,4.0918,4.0918,4.0918,4.0918,4.0918,4.0918,4.0918,4.0918,4.0918,4.0954,4.1274,4.17,4.2194,4.3189,4.4366,4.5799,4.7449,4.8885,5.0072,5.0772,5.1151,5.1408,5.1596,5.1596,5.1596,2.9734,2.9913,2.9913,2.9913,2.9913,2.9913,2.9913,2.9913,2.9913,2.9847,2.9713,2.9584,2.9325,2.9015,2.8855,2.8791,2.8657,2.8631,2.8711,2.8775,2.8815,2.8881,2.8948,2.9015,2.9055,2.9272,2.9312,2.9419,2.9348,2.9161,2.9001,2.9001,2.8881,2.8815,2.8801,2.8711,2.8671,2.8671,2.8671,2.8657,2.8657,2.8644,2.8644,2.8644,2.8631,2.8617,2.8591,2.847,2.8417,2.8364,2.8312,2.86,2.937,2.9998,3.0957,3.2654,3.3731,3.4913,3.6368,3.7809,3.8938,3.9863,4.0665,4.1172,4.1211,4.1211,4.1211,4.1191,4.1054,4.0898,4.0801,4.0488,4.0332,4.0215,4.0117,3.9902,3.9687,3.9648,3.9551,3.9488,3.9519,3.9807,4.0051,4.027,4.0602,4.0858,4.0959,4.0918,4.0918,4.0918,4.0918,4.0918,4.0918,4.0918,4.0918,4.0918,4.0918,4.0918,4.0918,4.0954,4.1096,4.1452,4.1983,4.277,4.3987,4.5504,4.7117,4.8338,4.9436,5.0206,5.0931,5.1189,5.1471,5.1596,5.1596,2.9913,2.9913,2.9913,2.9913,2.9913,2.9913,2.9913,2.9913,2.9913,2.9913,2.986,2.9686,2.9432,2.9161,2.9152,2.9085,2.8975,2.9001,2.9055,2.9081,2.9121,2.9219,2.9255,2.9268,2.9406,2.9579,2.9593,2.9686,2.9642,2.9495,2.9268,2.9202,2.9205,2.9165,2.9138,2.8988,2.8921,2.8921,2.8921,2.8935,2.8948,2.8961,2.8961,2.8975,2.8988,2.9001,2.8961,2.8845,2.8711,2.8671,2.8708,2.9055,2.9579,3.0448,3.1461,3.2989,3.414,3.5561,3.6907,3.8185,3.9135,3.9981,4.0646,4.1211,4.1211,4.1211,4.1211,4.1211,4.1191,4.1172,4.1132,4.084,4.0742,4.0605,4.0469,4.0254,4.0078,4.0059,3.9922,3.9725,3.9816,4.0231,4.0441,4.0541,4.0718,4.1002,4.1022,4.0939,4.0918,4.0918,4.0918,4.0918,4.0918,4.0918,4.0918,4.0918,4.0918,4.0918,4.0918,4.0918,4.1025,4.1345,4.1877,4.2791,4.364,4.4675,4.5911,4.7383,4.8787,4.9726,5.0582,5.1057,5.1346,5.1502,5.1596,2.9913,2.9913,2.9913,2.9913,2.9913,2.9913,2.9913,2.9913,2.9913,2.9913,2.9913,2.986,2.9686,2.9513,2.9432,2.9325,2.9041,2.9001,2.9188,2.9392,2.9472,2.9579,2.9659,2.974,2.9793,2.9833,2.982,2.9847,2.9855,2.982,2.978,2.9833,2.9553,2.9472,2.9406,2.9285,2.9148,2.9135,2.9135,2.9108,2.9095,2.9081,2.9081,2.9055,2.9028,2.9001,2.9001,2.8988,2.9048,2.9048,2.9231,2.9697,3.0198,3.1186,3.2343,3.3575,3.4948,3.6356,3.7712,3.8658,3.9569,4.0314,4.088,4.1211,4.1211,4.1211,4.1211,4.1211,4.1211,4.1211,4.1191,4.1133,4.1016,4.0957,4.082,4.0703,4.0566,4.0508,4.0332,4.0019,4.0131,4.0611,4.0908,4.0982,4.1208,4.1477,4.1187,4.1104,4.0939,4.0918,4.0918,4.0918,4.0918,4.0918,4.0918,4.0918,4.0918,4.0918,4.0918,4.0918,4.0918,4.1345,4.1792,4.2229,4.3001,4.3848,4.4812,4.6483,4.801,4.9332,5.0232,5.0804,5.1277,5.1471,5.1565,2.9913,2.9913,2.9913,2.9913,2.9913,2.9913,2.9913,2.9913,2.9913,2.9913,2.9913,2.99,2.986,2.9766,2.9753,2.97,2.9548,2.9535,2.9646,2.97,2.978,2.982,2.9913,2.9913,2.99,2.9913,2.9913,2.9913,2.9913,2.9913,2.9913,2.986,2.978,2.978,2.9686,2.9593,2.9553,2.9553,2.9508,2.9522,2.9535,2.9579,2.9579,2.9579,2.9535,2.9535,2.9522,2.9392,2.9515,2.9666,2.9749,3.0262,3.0995,3.2076,3.3198,3.4439,3.5857,3.7328,3.8391,3.9144,3.9784,4.0685,4.1094,4.1211,4.1211,4.1211,4.1211,4.1211,4.1211,4.1211,4.1211,4.1211,4.1172,4.1211,4.1172,4.1035,4.0957,4.0859,4.0801,4.0488,4.0662,4.1031,4.1276,4.1494,4.1729,4.1915,4.1571,4.1229,4.1042,4.0918,4.0918,4.0918,4.0918,4.0918,4.0918,4.0918,4.0918,4.0918,4.0918,4.0918,4.0918,4.1239,4.165,4.1983,4.2405,4.335,4.4469,4.5832,4.7217,4.8657,4.9783,5.0614,5.1057,5.1497,5.1534,2.9913,2.9913,2.9913,2.9913,2.9913,2.9913,2.9913,2.9913,2.9913,2.9913,2.9913,2.9913,2.9913,2.9913,2.9913,2.99,2.986,2.986,2.9887,2.99,2.9887,2.9913,2.9913,2.9913,2.9913,2.9913,2.9913,2.9913,2.9913,2.9913,2.9913,2.9913,2.9913,2.99,2.99,2.9913,2.9913,2.9913,2.9913,2.9913,2.99,2.9887,2.9887,2.9873,2.986,2.9847,2.9806,2.9686,2.9886,3.0114,3.0401,3.0845,3.18,3.286,3.394,3.5317,3.6701,3.8153,3.9108,3.9828,4.0254,4.1016,4.1172,4.1211,4.1211,4.1211,4.1211,4.1211,4.1211,4.1211,4.1211,4.1211,4.1211,4.1211,4.1211,4.1152,4.1152,4.1093,4.1113,4.1054,4.121,4.1268,4.1671,4.1871,4.1929,4.1982,4.1653,4.1291,4.1001,4.0918,4.0918,4.0918,4.0918,4.0918,4.0918,4.0918,4.0918,4.0918,4.0918,4.0918,4.0989,4.1239,4.1437,4.1686,4.2194,4.2931,4.3848,4.4949,4.6449,4.8067,4.9274,5.0614,5.1183,5.1565,5.1565,2.9913,2.9913,2.9913,2.9913,2.9913,2.9913,2.9913,2.9913,2.9913,2.9913,2.9913,2.9913,2.9913,2.9913,2.9913,2.9913,2.9913,2.9913,2.9913,2.9913,2.9913,2.9913,2.9913,2.9913,2.9913,2.9913,2.9913,2.9913,2.9913,2.9913,2.9913,2.9913,2.9913,2.9913,2.9913,2.9913,2.9913,2.9913,2.9913,2.9913,2.9913,2.9913,2.9913,2.9913,2.9913,2.9913,2.9887,2.9873,3.0074,3.0537,3.0879,3.149,3.2469,3.3265,3.4264,3.5372,3.6669,3.814,3.9636,4.0634,4.1172,4.1308,4.1406,4.1328,4.1269,4.123,4.1211,4.1211,4.1211,4.1211,4.1211,4.1211,4.1211,4.1211,4.1211,4.1211,4.1211,4.1211,4.1211,4.1211,4.125,4.1405,4.1889,4.2247,4.2188,4.2064,4.1715,4.1415,4.1104,4.0918,4.0918,4.0918,4.0918,4.0918,4.0918,4.0918,4.0918,4.0918,4.0918,4.0918,4.0918,4.1025,4.1203,4.1402,4.1792,4.2392,4.3071,4.387,4.5877,4.7879,4.9468,5.0646,5.122,5.1596,5.1596,2.9913,2.9913,2.9913,2.9913,2.9913,2.9913,2.9913,2.9913,2.9913,2.9913,2.9913,2.9913,2.9913,2.9913,2.9913,2.9913,2.9913,2.9913,2.9913,2.9913,2.9913,2.9913,2.9913,2.9913,2.9913,2.9913,2.9913,2.9913,2.9913,2.9913,2.9913,2.9913,2.9913,2.9913,2.9913,2.9913,2.9913,2.9913,2.9913,2.9913,2.9913,2.9913,2.9913,2.9913,2.9913,2.9913,2.9913,2.9913,3.0258,3.0884,3.1271,3.191,3.31,3.4047,3.4957,3.625,3.7641,3.9181,4.0629,4.1662,4.1971,4.1933,4.1699,4.1562,4.1621,4.1348,4.1269,4.1211,4.1211,4.1211,4.1211,4.1211,4.1211,4.1211,4.1211,4.1211,4.1211,4.1211,4.1211,4.1211,4.1211,4.1599,4.2082,4.2331,4.236,4.2422,4.2175,4.1788,4.1436,4.1063,4.0918,4.0918,4.0918,4.0918,4.0918,4.0918,4.0918,4.0918,4.0918,4.0918,4.0918,4.0918,4.0954,4.1132,4.1437,4.1792,4.2756,4.3987,4.5944,4.7846,4.9152,5.0366,5.112,5.1466,5.1596,2.9913,2.9913,2.9913,2.9913,2.9913,2.9913,2.9913,2.9913,2.9913,2.9913,2.9913,2.9913,2.9913,2.9913,2.9913,2.9913,2.9913,2.9913,2.9913,2.9913,2.9913,2.9913,2.9913,2.9913,2.9913,2.9913,2.9913,2.9913,2.9913,2.9913,2.9913,2.9913,2.9913,2.9913,2.9913,2.9913,2.9913,2.9913,2.9913,2.9913,2.9913,2.9913,2.9913,2.9913,2.9913,2.9913,2.9913,3.0048,3.0303,3.1017,3.1552,3.2159,3.3499,3.4525,3.534,3.6687,3.8571,4.0102,4.1575,4.2329,4.2647,4.2811,4.2246,4.1836,4.1719,4.1445,4.1269,4.1211,4.1211,4.1211,4.1211,4.1211,4.1211,4.1211,4.1211,4.1211,4.1211,4.1211,4.1211,4.1211,4.125,4.1695,4.2062,4.2311,4.2474,4.2587,4.2654,4.2212,4.1767,4.1374,4.1042,4.1042,4.098,4.0959,4.0939,4.0918,4.0918,4.0918,4.0918,4.0918,4.0918,4.0918,4.0918,4.0918,4.1167,4.1664,4.277,4.4171,4.5775,4.7184,4.8436,4.9661,5.0836,5.1309,5.1534,2.9913,2.9913,2.9913,2.9913,2.9913,2.9913,2.9913,2.9913,2.9913,2.9913,2.9913,2.9913,2.9913,2.9913,2.9913,2.9913,2.9913,2.9913,2.9913,2.9913,2.9913,2.9913,2.9913,2.9913,2.9913,2.9913,2.9913,2.9913,2.9913,2.9913,2.9913,2.9913,2.9913,2.9913,2.9913,2.9913,2.9913,2.9913,2.9913,2.9913,2.9913,2.9913,2.9913,2.9913,2.9913,2.9913,2.9913,2.9958,3.0482,3.0973,3.1374,3.2262,3.3161,3.391,3.499,3.6627,3.8947,4.0626,4.1974,4.2586,4.3164,4.3238,4.248,4.2031,4.1758,4.1562,4.1367,4.125,4.1211,4.1211,4.1211,4.1211,4.1211,4.1211,4.1211,4.1211,4.1211,4.1211,4.1211,4.1211,4.1211,4.1463,4.185,4.2119,4.2522,4.2759,4.2789,4.2563,4.2062,4.1622,4.1353,4.1291,4.1187,4.1042,4.1001,4.1022,4.0918,4.0918,4.0918,4.0918,4.0918,4.0918,4.0918,4.0918,4.0954,4.1537,4.263,4.3814,4.5187,4.6516,4.7911,4.921,5.0487,5.1151,5.1471,2.9913,2.9913,2.9913,2.9913,2.9913,2.9913,2.9913,2.9913,2.9913,2.9913,2.9913,2.9913,2.9913,2.9913,2.9913,2.9913,2.9913,2.9913,2.9913,2.9913,2.9913,2.9913,2.9913,2.9913,2.9913,2.9913,2.9913,2.9913,2.9913,2.9913,2.9913,2.9913,2.9913,2.9913,2.9913,2.9913,2.9913,2.9913,2.9913,2.9913,2.9913,2.9913,2.9913,2.9913,2.9913,2.9913,2.9913,2.9913,3.0392,3.1106,3.1285,3.204,3.3338,3.3998,3.4947,3.7102,3.8947,4.0476,4.1756,4.2652,4.3234,4.339,4.2752,4.2362,4.2089,4.1816,4.1484,4.1308,4.1211,4.1211,4.1211,4.1211,4.1211,4.1211,4.1211,4.1211,4.1211,4.1211,4.1211,4.1211,4.1211,4.1327,4.1695,4.2139,4.2522,4.2823,4.2922,4.2757,4.2435,4.1959,4.1705,4.1643,4.154,4.1415,4.127,4.125,4.1042,4.0918,4.098,4.098,4.0918,4.0918,4.0918,4.0989,4.1132,4.1643,4.2454,4.364,4.4743,4.6204,4.7606,4.8853,4.9982,5.0715,5.1346,2.9913,2.9913,2.9913,2.9913,2.9913,2.9913,2.9913,2.9913,2.9913,2.9913,2.9913,2.9913,2.9913,2.9913,2.9913,2.9913,2.9913,2.9913,2.9913,2.9913,2.9913,2.9913,2.9913,2.9913,2.9913,2.9913,2.9913,2.9913,2.9913,2.9913,2.9913,2.9913,2.9913,2.9913,2.9913,2.9913,2.9913,2.9913,2.9913,2.9913,2.9913,2.9913,2.9913,2.9913,2.9913,2.9913,2.9913,2.9913,3.0406,3.1151,3.1285,3.1907,3.3205,3.3998,3.5165,3.7145,3.8606,4.001,4.1276,4.2277,4.2943,4.3225,4.2944,4.2635,4.2226,4.1816,4.1484,4.1269,4.123,4.1211,4.1211,4.1211,4.1211,4.1211,4.1211,4.1211,4.1211,4.1211,4.1211,4.1211,4.125,4.1327,4.1618,4.2062,4.2485,4.2693,4.3034,4.3211,4.289,4.2414,4.2182,4.2037,4.1954,4.1871,4.1726,4.1581,4.1457,4.1332,4.127,4.1229,4.1042,4.0918,4.0939,4.1117,4.1345,4.1841,4.23,4.3189,4.4297,4.5674,4.6908,4.801,4.9242,5.0429,5.1031,2.9913,2.9913,2.9913,2.9913,2.9913,2.9913,2.9913,2.9913,2.9913,2.9913,2.9913,2.9913,2.9913,2.9913,2.9913,2.9913,2.9913,2.9913,2.9913,2.9913,2.9913,2.9913,2.9913,2.9913,2.9913,2.9913,2.9913,2.9913,2.9913,2.9913,2.9913,2.9913,2.9913,2.9913,2.9913,2.9913,2.9913,2.9913,2.9913,2.9913,2.9913,2.9913,2.9913,2.9913,2.9913,2.9913,2.9913,3.0048,3.0316,3.0973,3.1463,3.1818,3.2984,3.3998,3.5383,3.667,3.8049,3.9458,4.0729,4.184,4.2569,4.2914,4.3036,4.2731,4.2305,4.1836,4.1504,4.1269,4.1211,4.1328,4.1367,4.1387,4.1387,4.1387,4.1387,4.1328,4.1211,4.1211,4.1211,4.1211,4.1211,4.1288,4.1405,4.185,4.2254,4.2524,4.2887,4.3304,4.3325,4.2849,4.272,4.2513,4.241,4.2348,4.2265,4.212,4.1954,4.183,4.1705,4.1602,4.1477,4.125,4.0959,4.1117,4.131,4.1558,4.2053,4.2931,4.3801,4.4778,4.5944,4.7017,4.8338,4.9822,5.0741,2.9913,2.9913,2.9913,2.9913,2.9913,2.9913,2.9913,2.9913,2.9913,2.9913,2.9913,2.9913,2.9913,2.9913,2.9913,2.9913,2.9913,2.9913,2.9913,2.9913,2.9913,2.9913,2.9913,2.9913,2.9913,2.9913,2.9913,2.9913,2.9913,2.9913,2.9913,2.9913,2.9913,2.9913,2.9913,2.9913,2.9913,2.9913,2.9913,2.9913,2.9913,2.9913,2.9913,2.9913,2.9913,2.9913,2.9913,2.9958,3.0495,3.1106,3.1285,3.204,3.3249,3.3998,3.5034,3.628,3.7404,3.8862,4.0222,4.136,4.2216,4.2694,4.2818,4.2594,4.2285,4.1875,4.1543,4.1348,4.1269,4.1406,4.1523,4.1582,4.1641,4.1641,4.1601,4.1406,4.125,4.1211,4.1211,4.1211,4.1211,4.125,4.1327,4.1579,4.2005,4.2428,4.2812,4.3175,4.3459,4.3304,4.3263,4.3077,4.287,4.2787,4.2725,4.26,4.2472,4.2285,4.214,4.2037,4.1912,4.1664,4.1395,4.115,4.1203,4.1557,4.1968,4.2546,4.3419,4.4194,4.529,4.6449,4.7747,4.921,5.0142,2.9913,2.9913,2.9913,2.9913,2.9913,2.9913,2.9913,2.9913,2.9913,2.9913,2.9913,2.9913,2.9913,2.9913,2.9913,2.9913,2.9913,2.9913,2.9913,2.9913,2.9913,2.9913,2.9913,2.9913,2.9913,2.9913,2.9913,2.9913,2.9913,2.9913,2.9913,2.9913,2.9913,2.9913,2.9913,2.9913,2.9913,2.9913,2.9913,2.9913,2.9913,2.9913,2.9913,2.9913,2.9913,2.9913,2.9913,2.9958,3.0482,3.124,3.1729,3.2173,3.3161,3.3822,3.4656,3.5732,3.6903,3.8263,3.9671,4.0939,4.1965,4.2446,4.2878,4.2772,4.2343,4.1973,4.1562,4.1367,4.123,4.1328,4.1601,4.1719,4.1914,4.1992,4.1797,4.1562,4.1367,4.1211,4.1211,4.1211,4.1211,4.1211,4.1327,4.156,4.1966,4.239,4.2774,4.3157,4.3424,4.3615,4.3615,4.3553,4.3284,4.3221,4.3221,4.3077,4.2911,4.2783,4.2596,4.2389,4.2223,4.2058,4.1845,4.1612,4.1512,4.1594,4.2038,4.2486,4.287,4.3524,4.4709,4.5968,4.725,4.8526,4.95,2.9913,2.9913,2.9913,2.9913,2.9913,2.9913,2.9913,2.9913,2.9913,2.9913,2.9913,2.9913,2.9913,2.9913,2.9913,2.9913,2.9913,2.9913,2.9913,2.9913,2.9913,2.9913,2.9913,2.9913,2.9913,2.9913,2.9913,2.9913,2.9913,2.9913,2.9913,2.9913,2.9913,2.9913,2.9913,2.9913,2.9913,2.9913,2.9913,2.9913,2.9913,2.9913,2.9913,2.9913,2.9913,2.9913,2.9913,3.0048,3.0437,3.124,3.2099,3.2586,3.3073,3.369,3.4349,3.5296,3.66,3.7877,3.916,4.0644,4.1588,4.2352,4.2831,4.2889,4.2479,4.2148,4.1738,4.1523,4.1387,4.1484,4.1738,4.2031,4.2246,4.2324,4.2051,4.1816,4.1562,4.1367,4.1328,4.1308,4.1269,4.1269,4.1386,4.1599,4.1909,4.2313,4.2736,4.3119,4.3424,4.3539,4.3615,4.3615,4.3491,4.3511,4.3573,4.3449,4.3221,4.318,4.2973,4.2725,4.2497,4.2393,4.2306,4.214,4.2064,4.1986,4.2021,4.2369,4.2707,4.3105,4.4313,4.561,4.664,4.7837,4.8853,2.9913,2.9913,2.9913,2.9913,2.9913,2.9913,2.9913,2.9913,2.9913,2.9913,2.9913,2.9913,2.9913,2.9913,2.9913,2.9913,2.9913,2.9913,2.9913,2.9913,2.9913,2.9913,2.9913,2.9913,2.9913,2.9913,2.9913,2.9913,2.9913,2.9913,2.9913,2.9913,2.9913,2.9913,2.9913,2.9913,2.9913,2.9913,2.9913,2.9913,2.9913,2.9913,2.9913,2.9913,2.9913,2.9913,2.9913,2.9913,3.0482,3.1285,3.2188,3.2675,3.3117,3.3646,3.4305,3.505,3.634,3.7619,3.8947,4.0391,4.142,4.2364,4.2823,4.3125,4.2793,4.2539,4.2246,4.209,4.1992,4.1992,4.2246,4.2598,4.2812,4.2734,4.2539,4.2324,4.2109,4.1855,4.1699,4.1582,4.1465,4.1387,4.1289,4.1503,4.1716,4.2122,4.2408,4.283,4.3386,4.35,4.3635,4.3615,4.3635,4.3615,4.3594,4.3594,4.347,4.3449,4.3387,4.3118,4.2932,4.2849,4.2704,4.2617,4.241,4.2255,4.235,4.2407,4.2782,4.3307,4.4211,4.5253,4.6224,4.7237,4.8337]},{"header":{"parameterUnit":"m.s-1","parameterCategory":1,"la1":31.0,"la2":29.5877,"lo1":-88.7671,"lo2":-86.6584,"dy":0.0162,"dx":0.0185,"nx":115,"ny":88,"refTime":"2023-05-26T00:00:00:Z","depth":0,"parameterNumber":3,"parameterNumberName":"V-component_of_WINDS"},"data":[0.0,0.0,0.0,0.0,0.0,0.0,0.0,0.0,0.0,0.0,0.0,0.0,0.0,0.0,0.0,0.0,0.0,0.0,0.0,0.0,0.0,0.0,0.0,0.0,0.0,0.0,0.0,0.0,0.0,0.0,0.0,0.0,0.0,0.0,0.0,0.0,0.0,0.0,0.0,0.0,0.0,0.0,0.0,0.0,0.0,0.0,0.0,0.0,0.0,0.0,0.0,0.0,0.0,0.0,0.0,0.0,0.0,0.0,0.0,0.0,0.0,0.0,0.0,0.0,0.0,0.0,0.0,0.0,0.0,0.0,0.0,0.0,0.0,0.0,0.0,0.0,0.0,0.0,0.0,0.0,0.0,0.0,0.0,0.0,0.0,0.0,0.0,0.0,0.0,0.0,0.0,0.0,0.0,0.0,0.0,0.0,0.0,0.0,0.0,0.0,0.0,0.0,0.0,0.0,0.0,0.0,0.0,0.0,0.0,0.0,0.0,0.0,0.0,0.0,0.0,0.0,0.0,0.0,0.0,0.0,0.0,0.0,0.0,0.0,0.0,0.0,0.0,0.0,0.0,0.0,0.0,0.0,0.0,0.0,0.0,0.0,0.0,0.0,0.0,0.0,0.0,0.0,0.0,0.0,0.0,0.0,0.0,0.0,0.0,0.0,0.0,0.0,0.0,0.0,0.0,0.0,0.0,0.0,0.0,0.0,0.0,0.0,0.0,0.0,0.0,0.0,0.0,0.0,0.0,0.0,0.0,0.0,0.0,0.0,0.0,0.0,0.0,0.0,0.0,0.0,0.0,0.0,0.0,0.0,0.0,0.0,0.0,0.0,0.0,0.0,0.0,0.0,0.0,0.0,0.0,0.0,0.0,0.0,0.0,0.0,0.0,0.0,0.0,0.0,0.0,0.0,0.0,0.0,0.0,0.0,0.0,0.0,0.0,0.0,0.0,0.0,0.0,0.0,0.0,0.0,0.0,0.0,0.0,0.0,0.0,0.0,0.0,0.0,0.0,0.0,0.0,0.0,0.0,0.0,0.0,0.0,0.0,0.0,0.0,0.0,0.0,0.0,0.0,0.0,0.0,0.0,0.0,0.0,0.0,0.0,0.0,0.0,0.0,0.0,0.0,0.0,0.0,0.0,0.0,0.0,0.0,0.0,0.0,0.0,0.0,0.0,0.0,0.0,0.0,0.0,0.0,0.0,0.0,0.0,0.0,0.0,0.0,0.0,0.0,0.0,0.0,0.0,0.0,0.0,0.0,0.0,0.0,0.0,0.0,0.0,0.0,0.0,0.0,0.0,0.0,0.0,0.0,0.0,0.0,0.0,0.0,0.0,0.0,0.0,0.0,0.0,0.0,0.0,0.0,0.0,0.0,0.0,0.0,0.0,0.0,0.0,0.0,0.0,0.0,0.0,0.0,0.0,0.0,0.0,0.0,0.0,0.0,0.0,0.0,0.0,0.0,0.0,0.0,0.0,0.0,0.0,0.0,0.0,0.0,0.0,0.0,0.0,0.0,0.0,0.0,0.0,0.0,0.0,0.0,0.0,0.0,0.0,0.0,0.0,0.0,0.0,0.0,0.0,0.0,0.0,0.0,0.0,0.0,0.0,0.0,0.0,0.0,0.0,0.0,0.0,0.0,0.0,0.0,0.0,0.0,0.0,0.0,0.0,0.0,0.0,0.0,0.0,0.0,0.0,0.0,0.0,0.0,0.0,0.0,0.0,0.0,0.0,0.0,0.0,0.0,0.0,0.0,0.0,0.0,0.0,0.0,0.0,0.0,0.0,0.0,0.0,0.0,0.0,0.0,0.0,0.0,0.0,0.0,0.0,0.0,0.0,0.0,0.0,0.0,0.0,0.0,0.0,0.0,0.0,0.0,0.0,0.0,0.0,0.0,0.0,0.0,0.0,0.0,0.0,0.0,0.0,0.0,0.0,0.0,0.0,0.0,0.0,0.0,0.0,0.0,0.0,0.0,0.0,0.0,0.0,0.0,0.0,0.0,0.0,0.0,0.0,0.0,0.0,0.0,0.0,0.0,0.0,0.0,0.0,0.0,0.0,0.0,0.0,0.0,0.0,0.0,0.0,0.0,0.0,0.0,0.0,0.0,0.0,0.0,0.0,0.0,0.0,0.0,0.0,0.0,0.0,0.0,0.0,0.0,0.0,0.0,0.0,0.0,0.0,0.0,0.0,0.0,0.0,0.0,0.0,0.0,0.0,0.0,0.0,0.0,0.0,0.0,0.0,0.0,0.0,0.0,0.0,0.0,0.0,0.0,0.0,0.0,0.0,0.0,0.0,0.0,0.0,0.0,0.0,0.0,0.0,0.0,0.0,0.0,0.0,0.0,0.0,0.0,0.0,0.0,0.0,0.0,0.0,0.0,0.0,0.0,0.0,0.0,0.0,0.0,0.0,0.0,0.0,0.0,0.0,0.0,0.0,0.0,0.0,0.0,0.0,0.0,0.0,0.0,0.0,0.0,0.0,0.0,0.0,0.0,0.0,0.0,0.0,0.0,0.0,0.0,0.0,0.0,0.0,0.0,0.0,0.0,0.0,0.0,0.0,0.0,0.0,0.0,0.0,0.0,0.0,0.0,0.0,0.0,0.0,0.0,0.0,0.0,0.0,0.0,0.0,0.0,0.0,0.0,0.0,0.0,0.0,0.0,0.0,0.0,0.0,0.0,0.0,0.0,0.0,0.0,0.0,0.0,0.0,0.0,0.0,0.0,0.0,0.0,0.0,0.0,0.0,0.0,0.0,0.0,0.0,0.0,0.0,0.0,0.0,0.0,0.0,0.0,0.0,0.0,0.0,0.0,0.0,0.0,0.0,0.0,0.0,0.0,0.0,0.0,0.0,0.0,0.0,0.0,0.0,0.0,0.0,0.0,0.0,0.0,0.0,0.0,0.0,0.0,0.0,0.0,0.0,0.0,0.0,0.0,0.0,0.0,0.0,0.0,0.0,0.0,0.0,0.0,0.0,0.0,0.0,0.0,0.0,0.0,0.0,0.0,0.0,0.0,0.0,0.0,0.0,0.0,0.0,0.0,0.0,0.0,0.0,0.0,0.0,0.0,0.0,0.0,0.0,0.0,0.0,0.0,0.0,0.0,0.0,0.0,0.0,0.0,0.0,0.0,0.0,0.0,0.0,0.0,0.0,0.0,0.0,0.0,0.0,0.0,0.0,0.0,0.0,0.0,0.0,0.0,0.0,0.0,0.0,0.0,0.0,0.0,0.0,0.0,0.0,0.0,0.0,0.0,0.0,0.0,0.0,0.0,0.0,0.0,0.0,0.0,0.0,0.0,0.0,0.0,0.0,0.0,0.0,0.0,0.0,0.0,0.0,0.0,0.0,0.0,0.0,0.0,0.0,0.0,0.0,0.0,0.0,0.0,0.0,0.0,0.0,0.0,0.0,0.0,0.0,0.0,0.0,0.0,0.0,0.0,0.0,0.0,0.0,0.0,0.0,0.0,0.0,0.0,0.0,0.0,0.0,0.0,0.0,0.0,0.0,0.0,0.0,0.0,0.0,0.0,0.0,0.0,0.0,0.0,0.0,0.0,0.0,0.0,0.0,0.0,0.0,0.0,0.0,0.0,0.0,0.0,0.0,0.0,0.0,0.0,0.0,0.0,0.0,0.0,0.0,0.0,0.0,0.0,0.0,0.0,0.0,0.0,0.0,0.0,0.0,0.0,0.0,0.0,0.0,0.0,0.0,0.0,0.0,0.0,0.0,0.0,0.0,0.0,0.0,0.0,0.0,0.0,0.0,0.0,0.0,0.0,0.0,0.0,0.0,0.0,0.0,0.0,0.0,0.0,0.0,0.0,0.0,0.0,0.0,0.0,0.0,0.0,0.0,0.0,0.0,0.0,0.0,0.0,0.0,0.0,0.0,0.0,0.0,0.0,0.0,0.0,0.0,0.0,0.0,0.0,0.0,0.0,0.0,0.0,0.0,0.0,0.0,0.0,0.0,0.0,0.0,0.0,0.0,0.0,0.0,0.0,0.0,0.0,0.0,0.0,0.0,0.0,0.0,0.0,0.0,0.0,0.0,0.0,0.0,0.0,0.0,0.0,0.0,0.0,0.0,0.0,0.0,0.0,0.0,0.0,0.0,0.0,0.0,0.0,0.0,0.0,0.0,0.0,0.0,0.0,0.0,0.0,0.0,0.0,0.0,0.0,0.0,0.0,0.0,0.0,0.0,0.0,0.0,0.0,0.0,0.0,0.0,0.0,0.0,0.0,0.0,0.0,0.0,0.0,0.0,0.0,0.0,2.8607,0.0,0.0,0.0,0.0,0.0,0.0,0.0,0.0,0.0,0.0,0.0,0.0,0.0,0.0,0.0,0.0,0.0,0.0,0.0,0.0,0.0,0.0,0.0,0.0,0.0,0.0,0.0,0.0,0.0,0.0,0.0,0.0,0.0,0.0,0.0,0.0,0.0,0.0,0.0,0.0,0.0,0.0,0.0,0.0,0.0,0.0,0.0,0.0,0.0,0.0,0.0,0.0,0.0,0.0,0.0,0.0,0.0,0.0,0.0,0.0,0.0,0.0,0.0,0.0,0.0,0.0,0.0,0.0,0.0,0.0,0.0,0.0,0.0,0.0,0.0,0.0,0.0,0.0,0.0,0.0,0.0,0.0,0.0,0.0,0.0,0.0,0.0,0.0,0.0,0.0,0.0,0.0,0.0,0.0,0.0,0.0,0.0,0.0,0.0,0.0,0.0,0.0,0.0,0.0,0.0,0.0,0.0,0.0,0.0,0.0,3.1689,3.1046,3.0432,2.9788,2.9159,0.0,0.0,0.0,0.0,0.0,0.0,0.0,0.0,0.0,0.0,0.0,0.0,0.0,0.0,0.0,0.0,0.0,0.0,0.0,0.0,0.0,0.0,0.0,0.0,0.0,0.0,0.0,0.0,0.0,0.0,0.0,0.0,0.0,0.0,0.0,0.0,0.0,0.0,0.0,0.0,0.0,0.0,0.0,0.0,0.0,0.0,0.0,0.0,0.0,0.0,0.0,0.0,0.0,0.0,0.0,0.0,0.0,0.0,0.0,0.0,0.0,0.0,0.0,0.0,0.0,0.0,0.0,0.0,0.0,0.0,0.0,0.0,0.0,0.0,0.0,0.0,0.0,0.0,0.0,0.0,0.0,0.0,0.0,0.0,0.0,0.0,0.0,0.0,0.0,0.0,0.0,0.0,0.0,0.0,0.0,0.0,0.0,0.0,0.0,0.0,0.0,0.0,0.0,0.0,0.0,0.0,0.0,0.0,0.0,0.0,0.0,0.0,3.0867,3.0133,2.9412,0.0,0.0,0.0,0.0,0.0,0.0,0.0,0.0,0.0,0.0,0.0,0.0,0.0,0.0,0.0,0.0,0.0,0.0,0.0,0.0,0.0,0.0,0.0,0.0,0.0,0.0,0.0,0.0,0.0,0.0,0.0,0.0,0.0,0.0,0.0,0.0,0.0,0.0,0.0,0.0,0.0,0.0,0.0,0.0,0.0,0.0,0.0,0.0,0.0,0.0,0.0,0.0,0.0,0.0,0.0,0.0,0.0,0.0,0.0,0.0,0.0,0.0,0.0,0.0,0.0,0.0,0.0,0.0,0.0,0.0,0.0,0.0,0.0,0.0,0.0,0.0,0.0,0.0,0.0,0.0,0.0,0.0,0.0,0.0,0.0,0.0,0.0,0.0,0.0,0.0,0.0,0.0,0.0,0.0,0.0,0.0,0.0,0.0,0.0,0.0,0.0,0.0,0.0,0.0,0.0,0.0,0.0,0.0,0.0,0.0,3.184,3.1481,3.0837,0.0,2.877,0.0,0.0,0.0,0.0,0.0,0.0,0.0,0.0,0.0,0.0,0.0,0.0,0.0,0.0,0.0,0.0,0.0,0.0,0.0,0.0,0.0,0.0,0.0,0.0,0.0,0.0,0.0,0.0,0.0,0.0,0.0,0.0,0.0,0.0,0.0,0.0,0.0,0.0,0.0,0.0,0.0,0.0,0.0,0.0,0.0,0.0,0.0,0.0,0.0,0.0,0.0,0.0,0.0,0.0,0.0,0.0,0.0,0.0,0.0,0.0,0.0,0.0,0.0,0.0,0.0,0.0,0.0,0.0,0.0,0.0,0.0,0.0,0.0,0.0,0.0,0.0,0.0,0.0,0.0,0.0,0.0,0.0,0.0,0.0,0.0,0.0,0.0,0.0,0.0,0.0,0.0,0.0,0.0,0.0,0.0,0.0,0.0,0.0,0.0,0.0,0.0,0.0,0.0,0.0,0.0,0.0,0.0,0.0,0.0,0.0,3.1897,3.1669,3.0578,2.9589,0.0,0.0,0.0,0.0,0.0,0.0,0.0,0.0,0.0,0.0,0.0,0.0,0.0,0.0,0.0,0.0,0.0,0.0,0.0,0.0,0.0,0.0,0.0,0.0,0.0,0.0,0.0,0.0,0.0,0.0,0.0,0.0,0.0,0.0,0.0,0.0,0.0,0.0,0.0,0.0,0.0,0.0,0.0,0.0,0.0,0.0,0.0,0.0,0.0,0.0,0.0,0.0,0.0,0.0,0.0,0.0,0.0,0.0,0.0,0.0,0.0,0.0,0.0,0.0,0.0,0.0,0.0,0.0,0.0,0.0,0.0,0.0,0.0,0.0,0.0,0.0,0.0,0.0,0.0,0.0,0.0,0.0,0.0,0.0,0.0,0.0,0.0,0.0,0.0,0.0,0.0,0.0,0.0,0.0,0.0,0.0,0.0,0.0,0.0,0.0,0.0,0.0,0.0,0.0,0.0,0.0,0.0,0.0,0.0,0.0,3.2113,3.1934,3.1496,3.0259,2.9359,2.8841,0.0,0.0,0.0,0.0,0.0,0.0,0.0,0.0,0.0,0.0,0.0,0.0,0.0,0.0,0.0,0.0,0.0,0.0,0.0,0.0,0.0,0.0,0.0,0.0,0.0,0.0,0.0,0.0,0.0,0.0,0.0,0.0,0.0,0.0,0.0,0.0,0.0,0.0,0.0,0.0,0.0,0.0,0.0,0.0,0.0,0.0,0.0,0.0,0.0,0.0,0.0,0.0,0.0,0.0,0.0,0.0,0.0,0.0,0.0,0.0,0.0,0.0,0.0,0.0,0.0,0.0,0.0,0.0,0.0,0.0,0.0,0.0,0.0,0.0,0.0,0.0,0.0,0.0,0.0,0.0,0.0,0.0,0.0,0.0,0.0,0.0,0.0,0.0,0.0,0.0,0.0,0.0,0.0,0.0,0.0,0.0,0.0,0.0,0.0,0.0,0.0,0.0,0.0,0.0,0.0,0.0,0.0,0.0,3.1445,3.2047,3.1899,3.089,3.0033,2.9359,0.0,0.0,0.0,0.0,0.0,0.0,0.0,0.0,0.0,0.0,0.0,0.0,0.0,0.0,0.0,0.0,0.0,0.0,0.0,0.0,0.0,0.0,0.0,0.0,0.0,0.0,0.0,0.0,0.0,0.0,0.0,0.0,0.0,0.0,0.0,0.0,0.0,0.0,0.0,0.0,0.0,0.0,0.0,0.0,0.0,0.0,0.0,0.0,0.0,0.0,0.0,0.0,0.0,0.0,0.0,0.0,0.0,0.0,0.0,0.0,0.0,0.0,0.0,0.0,0.0,0.0,0.0,0.0,0.0,0.0,0.0,0.0,0.0,0.0,0.0,0.0,0.0,0.0,0.0,0.0,0.0,0.0,0.0,0.0,0.0,0.0,0.0,0.0,0.0,0.0,0.0,0.0,0.0,0.0,0.0,0.0,0.0,0.0,0.0,0.0,0.0,0.0,0.0,0.0,0.0,0.0,0.0,0.0,0.0,3.165,3.2074,3.1857,3.094,3.0236,2.961,0.0,0.0,0.0,0.0,0.0,0.0,0.0,0.0,0.0,0.0,0.0,0.0,0.0,0.0,0.0,0.0,0.0,0.0,0.0,0.0,0.0,0.0,0.0,0.0,0.0,0.0,0.0,0.0,0.0,0.0,0.0,0.0,0.0,0.0,0.0,0.0,0.0,0.0,0.0,0.0,0.0,0.0,0.0,0.0,0.0,0.0,0.0,0.0,0.0,0.0,0.0,0.0,0.0,0.0,0.0,0.0,0.0,0.0,0.0,0.0,0.0,0.0,0.0,0.0,0.0,0.0,0.0,0.0,0.0,0.0,0.0,0.0,0.0,0.0,0.0,0.0,0.0,0.0,0.0,0.0,0.0,0.0,0.0,0.0,0.0,0.0,0.0,0.0,0.0,0.0,0.0,0.0,0.0,0.0,0.0,0.0,0.0,0.0,0.0,0.0,0.0,0.0,0.0,0.0,0.0,0.0,0.0,0.0,0.0,3.2119,0.0,3.1885,3.1107,3.0597,2.9968,0.0,0.0,0.0,0.0,0.0,0.0,0.0,0.0,0.0,0.0,0.0,0.0,0.0,0.0,0.0,0.0,0.0,0.0,0.0,0.0,0.0,0.0,0.0,0.0,0.0,0.0,0.0,0.0,0.0,0.0,0.0,0.0,0.0,0.0,0.0,0.0,0.0,0.0,0.0,0.0,0.0,0.0,0.0,0.0,0.0,0.0,0.0,0.0,0.0,0.0,0.0,0.0,0.0,0.0,0.0,0.0,0.0,0.0,0.0,0.0,0.0,0.0,0.0,0.0,0.0,0.0,0.0,0.0,0.0,0.0,0.0,0.0,0.0,0.0,0.0,0.0,0.0,0.0,0.0,0.0,0.0,0.0,0.0,0.0,0.0,0.0,0.0,0.0,0.0,0.0,0.0,0.0,0.0,0.0,0.0,0.0,0.0,0.0,0.0,0.0,0.0,0.0,0.0,0.0,0.0,0.0,0.0,0.0,3.1766,3.2832,3.2578,3.205,3.1257,3.106,3.0437,0.0,0.0,0.0,0.0,0.0,0.0,0.0,0.0,0.0,0.0,0.0,0.0,0.0,0.0,0.0,0.0,0.0,0.0,0.0,0.0,0.0,0.0,0.0,0.0,0.0,0.0,0.0,0.0,0.0,0.0,0.0,0.0,0.0,0.0,0.0,0.0,0.0,0.0,0.0,0.0,0.0,0.0,0.0,0.0,0.0,0.0,0.0,0.0,0.0,0.0,0.0,0.0,0.0,0.0,0.0,0.0,0.0,0.0,0.0,0.0,0.0,0.0,0.0,0.0,0.0,0.0,0.0,0.0,0.0,0.0,0.0,0.0,0.0,0.0,0.0,0.0,0.0,0.0,0.0,0.0,0.0,0.0,0.0,0.0,0.0,0.0,0.0,0.0,0.0,0.0,0.0,0.0,0.0,0.0,0.0,0.0,0.0,0.0,0.0,0.0,0.0,0.0,0.0,0.0,0.0,0.0,0.0,0.0,0.0,3.3029,3.2841,3.2553,3.2173,3.167,3.0957,0.0,0.0,0.0,0.0,0.0,0.0,0.0,0.0,0.0,0.0,0.0,0.0,0.0,0.0,0.0,0.0,0.0,0.0,0.0,0.0,0.0,0.0,0.0,0.0,0.0,0.0,0.0,0.0,0.0,0.0,0.0,0.0,0.0,0.0,0.0,0.0,0.0,0.0,0.0,0.0,0.0,0.0,0.0,0.0,0.0,0.0,0.0,0.0,0.0,0.0,0.0,0.0,0.0,0.0,0.0,0.0,0.0,0.0,0.0,0.0,0.0,0.0,0.0,0.0,0.0,0.0,0.0,0.0,0.0,0.0,0.0,0.0,0.0,0.0,0.0,0.0,0.0,0.0,0.0,0.0,0.0,0.0,0.0,0.0,0.0,0.0,0.0,0.0,0.0,0.0,0.0,0.0,0.0,0.0,0.0,0.0,0.0,0.0,0.0,0.0,0.0,0.0,0.0,0.0,0.0,0.0,0.0,0.0,0.0,3.3621,3.3715,3.3675,3.3477,3.2794,3.2115,3.1354,0.0,0.0,0.0,0.0,0.0,0.0,0.0,0.0,0.0,0.0,0.0,0.0,0.0,0.0,0.0,0.0,0.0,0.0,0.0,0.0,0.0,0.0,0.0,0.0,0.0,0.0,0.0,0.0,0.0,0.0,0.0,0.0,0.0,0.0,0.0,0.0,0.0,0.0,0.0,0.0,0.0,0.0,0.0,0.0,0.0,0.0,0.0,0.0,0.0,0.0,0.0,0.0,0.0,0.0,0.0,0.0,0.0,0.0,0.0,0.0,0.0,0.0,0.0,0.0,0.0,0.0,0.0,0.0,0.0,0.0,0.0,0.0,0.0,0.0,0.0,0.0,0.0,0.0,0.0,0.0,0.0,0.0,0.0,0.0,0.0,0.0,0.0,0.0,0.0,0.0,0.0,0.0,0.0,0.0,0.0,0.0,0.0,0.0,0.0,0.0,0.0,0.0,0.0,0.0,0.0,0.0,0.0,0.0,3.47,3.5149,3.5234,3.4892,3.422,3.3609,0.0,0.0,0.0,0.0,0.0,0.0,0.0,0.0,0.0,0.0,0.0,0.0,0.0,0.0,0.0,0.0,0.0,0.0,0.0,0.0,0.0,0.0,0.0,0.0,0.0,0.0,0.0,0.0,0.0,0.0,0.0,0.0,0.0,0.0,0.0,0.0,0.0,0.0,0.0,0.0,0.0,0.0,0.0,0.0,0.0,0.0,0.0,0.0,0.0,0.0,0.0,0.0,0.0,0.0,0.0,0.0,0.0,0.0,0.0,0.0,0.0,0.0,0.0,0.0,0.0,0.0,0.0,0.0,0.0,0.0,0.0,0.0,0.0,0.0,0.0,0.0,0.0,0.0,0.0,0.0,0.0,0.0,0.0,0.0,0.0,0.0,0.0,0.0,0.0,0.0,0.0,0.0,0.0,0.0,0.0,0.0,0.0,0.0,0.0,0.0,0.0,0.0,0.0,0.0,0.0,0.0,0.0,0.0,0.0,3.6965,3.7526,3.6958,3.5172,3.4405,3.3674,0.0,0.0,0.0,0.0,0.0,0.0,0.0,0.0,0.0,0.0,0.0,0.0,0.0,0.0,0.0,0.0,0.0,0.0,0.0,0.0,0.0,0.0,0.0,0.0,0.0,0.0,0.0,0.0,0.0,0.0,0.0,0.0,0.0,0.0,0.0,0.0,0.0,0.0,0.0,0.0,0.0,0.0,0.0,0.0,0.0,0.0,0.0,0.0,0.0,0.0,0.0,0.0,0.0,0.0,0.0,0.0,0.0,0.0,0.0,0.0,0.0,0.0,0.0,0.0,0.0,0.0,0.0,0.0,0.0,0.0,0.0,0.0,0.0,0.0,0.0,0.0,0.0,0.0,0.0,0.0,0.0,0.0,0.0,0.0,0.0,0.0,0.0,0.0,0.0,0.0,0.0,0.0,0.0,0.0,0.0,0.0,0.0,0.0,0.0,0.0,0.0,0.0,0.0,0.0,0.0,0.0,0.0,0.0,3.6658,3.8001,3.8486,3.8182,3.7149,3.6113,3.5033,0.0,0.0,0.0,0.0,0.0,0.0,0.0,0.0,0.0,0.0,0.0,0.0,0.0,0.0,0.0,0.0,0.0,0.0,0.0,0.0,0.0,0.0,0.0,0.0,0.0,0.0,0.0,0.0,0.0,0.0,0.0,0.0,0.0,0.0,0.0,0.0,0.0,0.0,0.0,0.0,0.0,0.0,0.0,0.0,0.0,0.0,0.0,0.0,0.0,0.0,0.0,0.0,0.0,0.0,0.0,0.0,0.0,0.0,0.0,0.0,0.0,0.0,0.0,0.0,0.0,0.0,0.0,0.0,0.0,0.0,0.0,0.0,0.0,0.0,0.0,0.0,0.0,0.0,0.0,0.0,0.0,0.0,0.0,0.0,0.0,0.0,0.0,0.0,0.0,0.0,0.0,0.0,0.0,0.0,0.0,0.0,0.0,0.0,0.0,0.0,0.0,0.0,0.0,0.0,0.0,0.0,0.0,0.0,3.6796,3.8384,3.8705,3.9163,3.9846,3.8344,3.6926,0.0,0.0,0.0,0.0,0.0,0.0,0.0,0.0,0.0,0.0,0.0,0.0,0.0,0.0,0.0,0.0,0.0,0.0,0.0,0.0,0.0,0.0,0.0,0.0,0.0,0.0,0.0,0.0,0.0,0.0,0.0,0.0,0.0,0.0,0.0,0.0,0.0,0.0,0.0,0.0,0.0,0.0,0.0,0.0,0.0,0.0,0.0,0.0,0.0,0.0,0.0,0.0,0.0,0.0,0.0,0.0,0.0,0.0,0.0,0.0,0.0,0.0,0.0,0.0,0.0,0.0,0.0,0.0,0.0,0.0,0.0,0.0,0.0,0.0,0.0,0.0,0.0,0.0,0.0,0.0,0.0,0.0,0.0,0.0,0.0,0.0,0.0,0.0,0.0,0.0,0.0,0.0,0.0,0.0,0.0,0.0,0.0,0.0,0.0,0.0,0.0,0.0,0.0,0.0,0.0,0.0,0.0,0.0,3.7492,3.9918,3.9815,4.0096,4.0814,3.8689,3.7337,0.0,0.0,0.0,0.0,0.0,0.0,0.0,0.0,0.0,0.0,0.0,0.0,0.0,0.0,0.0,0.0,0.0,0.0,0.0,0.0,0.0,0.0,0.0,0.0,0.0,0.0,0.0,0.0,0.0,0.0,0.0,0.0,0.0,0.0,0.0,0.0,0.0,0.0,0.0,0.0,0.0,0.0,0.0,0.0,0.0,0.0,0.0,0.0,3.2561,0.0,0.0,0.0,0.0,0.0,0.0,0.0,0.0,0.0,0.0,0.0,0.0,0.0,0.0,0.0,0.0,0.0,0.0,0.0,0.0,0.0,0.0,0.0,0.0,0.0,0.0,0.0,0.0,0.0,0.0,0.0,0.0,0.0,0.0,0.0,0.0,0.0,0.0,0.0,0.0,0.0,0.0,0.0,0.0,0.0,0.0,0.0,0.0,0.0,0.0,0.0,0.0,0.0,0.0,0.0,0.0,0.0,0.0,0.0,3.7987,4.0383,4.0503,4.0846,4.1469,3.9896,3.8507,0.0,0.0,0.0,0.0,0.0,0.0,0.0,0.0,0.0,0.0,0.0,0.0,0.0,0.0,0.0,0.0,0.0,0.0,0.0,0.0,0.0,0.0,0.0,0.0,0.0,0.0,0.0,0.0,0.0,0.0,0.0,0.0,0.0,0.0,0.0,0.0,0.0,0.0,0.0,0.0,0.0,0.0,0.0,0.0,0.0,0.0,0.0,0.0,0.0,0.0,0.0,0.0,0.0,0.0,0.0,0.0,0.0,0.0,0.0,0.0,0.0,0.0,0.0,0.0,0.0,0.0,0.0,0.0,0.0,0.0,0.0,0.0,0.0,0.0,0.0,0.0,0.0,0.0,0.0,0.0,0.0,0.0,0.0,0.0,0.0,0.0,0.0,0.0,0.0,0.0,0.0,0.0,0.0,0.0,0.0,0.0,0.0,0.0,0.0,0.0,0.0,0.0,0.0,0.0,0.0,0.0,0.0,3.7066,3.8505,4.0577,4.1065,4.1582,4.2221,4.1388,3.9945,3.7874,0.0,0.0,0.0,0.0,0.0,0.0,0.0,0.0,0.0,0.0,0.0,0.0,0.0,0.0,0.0,0.0,0.0,0.0,0.0,0.0,0.0,0.0,0.0,0.0,0.0,0.0,0.0,0.0,0.0,0.0,0.0,0.0,0.0,0.0,0.0,0.0,0.0,0.0,3.2391,3.2917,0.0,0.0,0.0,0.0,0.0,0.0,0.0,0.0,3.4705,0.0,0.0,0.0,0.0,0.0,0.0,0.0,0.0,0.0,0.0,0.0,0.0,0.0,0.0,0.0,0.0,0.0,0.0,0.0,0.0,0.0,0.0,0.0,0.0,0.0,0.0,0.0,0.0,0.0,0.0,0.0,0.0,0.0,0.0,0.0,0.0,0.0,0.0,0.0,0.0,0.0,0.0,0.0,0.0,0.0,0.0,0.0,0.0,0.0,0.0,0.0,0.0,0.0,0.0,0.0,0.0,3.6303,3.7566,3.925,4.1337,4.1771,4.2253,4.299,4.2579,4.1367,3.925,0.0,0.0,0.0,0.0,0.0,0.0,0.0,0.0,0.0,0.0,0.0,0.0,0.0,0.0,0.0,0.0,0.0,0.0,0.0,0.0,0.0,0.0,0.0,0.0,0.0,0.0,0.0,0.0,0.0,0.0,0.0,0.0,0.0,0.0,0.0,0.0,0.0,0.0,0.0,3.3881,3.4351,0.0,0.0,0.0,0.0,0.0,0.0,0.0,0.0,3.5059,0.0,0.0,0.0,0.0,0.0,0.0,0.0,0.0,0.0,0.0,0.0,0.0,0.0,0.0,0.0,0.0,0.0,0.0,0.0,0.0,0.0,0.0,0.0,0.0,0.0,0.0,0.0,0.0,0.0,0.0,0.0,0.0,0.0,0.0,0.0,0.0,0.0,0.0,0.0,0.0,0.0,0.0,0.0,0.0,0.0,0.0,0.0,0.0,0.0,0.0,0.0,0.0,0.0,0.0,0.0,3.6363,3.8079,3.9815,4.1532,4.2286,4.2989,4.3677,4.3055,4.1873,0.0,0.0,0.0,0.0,0.0,0.0,0.0,0.0,0.0,0.0,0.0,0.0,0.0,0.0,0.0,0.0,0.0,0.0,0.0,0.0,0.0,0.0,0.0,0.0,0.0,0.0,0.0,0.0,0.0,0.0,0.0,0.0,0.0,0.0,0.0,0.0,0.0,0.0,0.0,0.0,3.4425,3.5091,3.5214,0.0,0.0,0.0,0.0,0.0,0.0,3.6829,3.6511,0.0,0.0,0.0,0.0,0.0,0.0,0.0,0.0,0.0,0.0,0.0,0.0,0.0,0.0,0.0,0.0,0.0,0.0,0.0,0.0,0.0,0.0,0.0,0.0,0.0,0.0,0.0,0.0,0.0,0.0,0.0,0.0,0.0,0.0,0.0,0.0,0.0,0.0,0.0,0.0,0.0,0.0,0.0,0.0,0.0,0.0,0.0,0.0,0.0,0.0,0.0,0.0,0.0,0.0,0.0,3.6671,3.8803,4.0592,4.1985,4.3121,4.3918,4.4396,4.3453,4.2239,0.0,0.0,0.0,0.0,0.0,0.0,0.0,0.0,0.0,0.0,0.0,0.0,0.0,0.0,0.0,0.0,0.0,0.0,0.0,0.0,0.0,0.0,0.0,0.0,0.0,0.0,0.0,0.0,0.0,0.0,0.0,0.0,0.0,0.0,0.0,0.0,0.0,0.0,0.0,0.0,0.0,3.6059,3.6213,3.7155,0.0,0.0,0.0,0.0,3.893,3.846,0.0,0.0,0.0,0.0,0.0,0.0,0.0,0.0,0.0,0.0,0.0,0.0,0.0,0.0,0.0,0.0,0.0,0.0,0.0,0.0,0.0,0.0,0.0,0.0,0.0,0.0,0.0,0.0,0.0,0.0,0.0,0.0,0.0,0.0,0.0,0.0,0.0,0.0,0.0,0.0,0.0,0.0,0.0,0.0,0.0,0.0,0.0,0.0,0.0,0.0,0.0,0.0,0.0,0.0,0.0,0.0,3.7452,4.0018,4.205,4.3411,4.4685,4.5257,4.5166,4.4307,4.2816,0.0,0.0,0.0,0.0,0.0,0.0,0.0,0.0,0.0,0.0,0.0,0.0,0.0,0.0,0.0,0.0,0.0,0.0,0.0,0.0,0.0,0.0,0.0,0.0,0.0,0.0,0.0,0.0,0.0,0.0,0.0,0.0,0.0,0.0,0.0,0.0,0.0,0.0,0.0,0.0,0.0,3.7649,3.7641,3.8279,3.8749,0.0,0.0,3.893,3.893,3.8846,0.0,0.0,0.0,0.0,0.0,0.0,0.0,0.0,0.0,0.0,0.0,0.0,0.0,0.0,0.0,0.0,0.0,0.0,0.0,0.0,0.0,0.0,0.0,0.0,0.0,0.0,0.0,0.0,0.0,0.0,0.0,0.0,0.0,0.0,0.0,0.0,0.0,0.0,0.0,0.0,0.0,0.0,0.0,0.0,0.0,0.0,0.0,0.0,0.0,0.0,0.0,0.0,0.0,0.0,0.0,3.7117,3.8286,4.0451,4.2277,4.367,4.4945,4.576,4.6028,4.478,4.3272,0.0,0.0,0.0,0.0,0.0,0.0,0.0,0.0,0.0,0.0,0.0,0.0,0.0,0.0,0.0,0.0,0.0,0.0,0.0,0.0,0.0,0.0,0.0,0.0,0.0,0.0,0.0,0.0,0.0,0.0,0.0,0.0,0.0,0.0,0.0,0.0,0.0,0.0,0.0,0.0,0.0,0.0,3.8573,3.9489,0.0,0.0,0.0,4.0788,4.0689,0.0,0.0,0.0,0.0,0.0,0.0,0.0,0.0,0.0,0.0,0.0,0.0,0.0,0.0,0.0,0.0,0.0,0.0,0.0,0.0,0.0,0.0,0.0,0.0,0.0,0.0,0.0,0.0,0.0,0.0,0.0,0.0,0.0,0.0,0.0,0.0,0.0,0.0,0.0,0.0,0.0,0.0,0.0,0.0,0.0,0.0,0.0,0.0,0.0,0.0,0.0,0.0,0.0,0.0,0.0,0.0,0.0,3.9069,4.0948,4.2665,4.4204,4.5544,4.6409,4.6808,4.5561,0.0,0.0,0.0,0.0,0.0,0.0,0.0,0.0,0.0,0.0,0.0,0.0,0.0,0.0,0.0,0.0,0.0,0.0,0.0,0.0,0.0,0.0,0.0,0.0,0.0,0.0,0.0,3.2542,0.0,0.0,0.0,0.0,0.0,0.0,0.0,0.0,0.0,0.0,0.0,0.0,0.0,0.0,3.8577,3.9418,4.0616,4.1476,0.0,0.0,4.2438,4.2122,4.1256,4.0321,0.0,0.0,0.0,0.0,0.0,0.0,0.0,0.0,0.0,0.0,0.0,0.0,0.0,0.0,0.0,0.0,0.0,0.0,0.0,0.0,0.0,0.0,0.0,0.0,0.0,0.0,0.0,0.0,0.0,0.0,0.0,0.0,0.0,0.0,0.0,0.0,0.0,0.0,0.0,0.0,0.0,0.0,0.0,0.0,0.0,0.0,0.0,0.0,0.0,0.0,0.0,0.0,0.0,0.0,3.786,3.9794,4.182,4.37,4.5597,4.7069,4.779,4.7612,4.6922,4.5469,0.0,0.0,0.0,0.0,0.0,0.0,0.0,0.0,0.0,0.0,0.0,0.0,0.0,0.0,0.0,0.0,0.0,0.0,0.0,0.0,0.0,0.0,0.0,0.0,0.0,0.0,0.0,0.0,0.0,0.0,0.0,0.0,0.0,0.0,0.0,0.0,0.0,0.0,0.0,0.0,0.0,3.9633,4.031,4.1453,4.2224,0.0,4.2789,4.3017,4.2367,4.2196,4.1682,4.0236,0.0,0.0,0.0,0.0,0.0,0.0,0.0,0.0,0.0,0.0,0.0,0.0,0.0,0.0,0.0,0.0,0.0,0.0,0.0,0.0,0.0,0.0,0.0,0.0,0.0,0.0,0.0,0.0,0.0,0.0,0.0,0.0,0.0,0.0,0.0,0.0,0.0,0.0,0.0,0.0,0.0,0.0,0.0,0.0,0.0,0.0,0.0,0.0,0.0,0.0,0.0,0.0,0.0,3.9358,4.1362,4.2827,4.4561,4.6577,4.7528,4.8167,4.8483,4.7403,4.5996,0.0,0.0,0.0,0.0,0.0,0.0,0.0,0.0,0.0,0.0,0.0,0.0,0.0,0.0,0.0,0.0,0.0,0.0,0.0,0.0,0.0,0.0,0.0,0.0,0.0,0.0,0.0,0.0,3.5053,3.5174,3.5034,0.0,0.0,0.0,0.0,0.0,0.0,0.0,0.0,0.0,0.0,3.9914,4.1089,4.2316,0.0,0.0,4.3885,4.3992,4.3228,4.2804,4.203,4.057,4.0006,0.0,0.0,0.0,0.0,0.0,0.0,0.0,0.0,0.0,0.0,0.0,0.0,0.0,0.0,0.0,0.0,0.0,0.0,0.0,0.0,0.0,0.0,0.0,0.0,0.0,0.0,0.0,0.0,0.0,0.0,0.0,0.0,0.0,0.0,0.0,0.0,0.0,0.0,0.0,0.0,0.0,0.0,0.0,0.0,0.0,0.0,0.0,0.0,0.0,0.0,0.0,0.0,4.0448,4.269,4.3832,4.5489,4.753,4.8402,4.9011,4.9361,4.8471,4.7156,0.0,0.0,0.0,0.0,0.0,0.0,0.0,0.0,0.0,0.0,0.0,0.0,0.0,0.0,0.0,0.0,0.0,0.0,0.0,0.0,0.0,0.0,0.0,0.0,0.0,0.0,0.0,0.0,3.5935,3.5973,3.554,0.0,0.0,0.0,0.0,0.0,0.0,0.0,0.0,0.0,0.0,4.0489,4.1872,4.3019,4.3835,4.4219,4.4814,4.4922,4.4102,4.3625,4.2897,4.1621,0.0,0.0,0.0,0.0,0.0,0.0,0.0,0.0,0.0,0.0,0.0,0.0,0.0,0.0,0.0,0.0,0.0,0.0,0.0,0.0,0.0,0.0,0.0,0.0,0.0,0.0,0.0,4.2965,0.0,0.0,4.2804,0.0,0.0,0.0,0.0,0.0,0.0,0.0,0.0,0.0,0.0,0.0,0.0,0.0,0.0,0.0,0.0,0.0,0.0,0.0,0.0,0.0,0.0,4.0917,4.3532,4.4852,4.6487,4.8486,4.9894,5.0558,5.041,5.0363,4.9213,4.6927,0.0,0.0,0.0,0.0,0.0,0.0,0.0,0.0,0.0,0.0,0.0,0.0,0.0,0.0,0.0,0.0,0.0,0.0,0.0,0.0,0.0,0.0,0.0,0.0,0.0,0.0,3.6858,3.6677,3.6445,0.0,0.0,0.0,0.0,0.0,0.0,0.0,0.0,0.0,0.0,4.076,4.1541,4.2789,4.3573,4.4233,4.4785,4.5424,4.5656,4.4937,4.4821,4.4552,0.0,0.0,0.0,0.0,0.0,0.0,0.0,0.0,0.0,0.0,0.0,0.0,0.0,0.0,0.0,0.0,0.0,0.0,0.0,0.0,0.0,0.0,0.0,0.0,0.0,0.0,0.0,4.7696,4.7213,0.0,0.0,0.0,0.0,0.0,0.0,0.0,0.0,0.0,0.0,0.0,4.8793,4.8637,0.0,0.0,0.0,0.0,0.0,0.0,0.0,0.0,0.0,0.0,0.0,0.0,4.3504,4.5139,4.6366,4.8231,5.0811,5.1244,5.1841,5.2702,5.1819,5.0278,4.8102,0.0,0.0,0.0,0.0,0.0,0.0,0.0,0.0,0.0,0.0,0.0,0.0,0.0,0.0,0.0,0.0,0.0,0.0,0.0,0.0,0.0,0.0,0.0,0.0,0.0,3.8875,0.0,0.0,0.0,0.0,0.0,0.0,0.0,0.0,0.0,0.0,0.0,3.9483,4.1067,4.1772,4.2424,4.3107,4.4157,4.4894,0.0,0.0,0.0,0.0,0.0,0.0,0.0,0.0,0.0,0.0,0.0,0.0,0.0,0.0,4.376,4.1984,4.2391,4.3069,4.3074,0.0,0.0,0.0,0.0,0.0,0.0,0.0,0.0,0.0,0.0,0.0,0.0,0.0,0.0,5.2129,0.0,5.1574,0.0,0.0,0.0,0.0,0.0,0.0,0.0,0.0,5.3016,5.2913,5.2336,5.1941,5.1042,0.0,4.9242,4.8082,0.0,0.0,0.0,0.0,0.0,0.0,0.0,0.0,4.591,4.7574,4.8514,5.0114,5.244,5.2924,5.3522,5.4334,5.3194,5.1798,5.0159,4.7979,4.6684,0.0,0.0,0.0,0.0,0.0,0.0,0.0,0.0,0.0,0.0,0.0,0.0,0.0,0.0,0.0,0.0,0.0,0.0,0.0,0.0,0.0,0.0,0.0,4.0227,0.0,0.0,0.0,0.0,0.0,0.0,0.0,0.0,0.0,4.0666,4.0532,4.1078,4.2436,4.3055,4.354,4.3934,0.0,0.0,0.0,0.0,0.0,0.0,0.0,4.5772,4.5395,4.5724,4.6102,4.6212,4.6401,4.6523,4.6523,0.0,0.0,4.4656,4.5152,4.6001,4.6001,4.6001,4.6001,4.6001,4.6001,4.6001,0.0,0.0,0.0,0.0,0.0,0.0,0.0,0.0,5.6266,5.6219,0.0,5.605,0.0,0.0,0.0,0.0,5.4282,5.4343,0.0,0.0,5.6682,5.667,5.6524,5.5794,5.4957,5.3979,5.3078,5.2577,5.2208,4.8829,0.0,0.0,0.0,0.0,0.0,0.0,4.8019,5.066,5.119,5.2093,5.3515,5.4939,5.5572,5.5367,5.4555,5.3789,5.2978,5.0967,4.954,4.8801,4.6651,0.0,0.0,0.0,0.0,0.0,0.0,0.0,0.0,0.0,0.0,0.0,0.0,0.0,0.0,0.0,0.0,0.0,0.0,0.0,0.0,4.1012,0.0,0.0,0.0,0.0,0.0,0.0,0.0,0.0,0.0,0.0,4.3721,4.346,4.3648,4.4287,0.0,0.0,0.0,0.0,4.6398,4.6737,4.7375,4.7805,4.7805,4.7834,4.7863,4.7834,0.0,0.0,4.9264,4.9211,4.9033,4.9062,4.9549,4.9409,4.7634,4.8183,4.8955,4.8984,4.893,4.9037,4.9012,4.8848,4.8902,6.5537,0.0,0.0,0.0,0.0,6.1374,6.127,6.1296,6.1243,6.0839,6.0285,6.0225,0.0,0.0,0.0,0.0,0.0,0.0,5.9829,6.0295,6.0774,6.0347,5.9201,5.8908,5.8056,5.6598,5.6344,5.6103,5.5812,5.4784,5.2792,4.9925,0.0,0.0,0.0,0.0,5.0847,5.2438,5.333,5.4442,5.5719,5.668,5.7157,5.7066,5.6861,5.636,5.5633,5.4014,5.2968,5.2628,5.0041,0.0,0.0,0.0,0.0,0.0,0.0,0.0,0.0,0.0,0.0,0.0,0.0,0.0,0.0,0.0,0.0,0.0,0.0,0.0,4.3932,4.4047,4.3985,0.0,0.0,0.0,0.0,0.0,0.0,0.0,0.0,0.0,4.862,4.6967,4.5788,0.0,0.0,4.7336,4.6918,4.744,4.775,4.7532,4.8043,0.0,4.8426,4.8832,4.9175,4.9151,4.9698,5.0283,5.0846,5.0886,5.0861,5.0836,5.1381,5.1638,5.115,5.0558,5.0328,5.0274,5.0274,5.0274,5.0274,5.0274,5.03,7.0188,6.821,6.6504,6.5818,6.5807,6.5672,6.5566,6.5566,6.5475,6.5157,6.4649,6.4616,6.3903,6.2746,6.159,0.0,0.0,0.0,6.3677,6.4205,6.4326,6.3772,6.2741,6.2069,6.1238,6.0262,5.9883,5.9589,5.9427,5.9224,5.7883,5.5334,0.0,0.0,5.3086,5.327,5.3922,5.5018,5.5853,5.6782,5.7781,5.8527,5.8893,5.8893,5.8893,5.856,5.7847,5.6682,5.5894,5.5482,5.3262,5.1151,0.0,0.0,0.0,0.0,0.0,0.0,0.0,0.0,0.0,0.0,0.0,3.7774,3.8354,0.0,0.0,0.0,4.3527,4.5277,4.6448,4.6435,0.0,0.0,0.0,0.0,0.0,0.0,0.0,5.0866,5.0583,5.0858,5.2492,5.119,4.975,4.8976,4.9386,4.9592,4.907,0.0,4.9534,4.9153,4.9538,4.9847,4.9847,5.0423,5.1033,5.153,5.1933,5.2397,5.2981,5.3123,5.3097,5.3126,5.3239,5.3326,5.3382,5.2544,5.1874,5.1874,5.1874,5.1874,5.1874,5.1848,5.1874,7.3202,7.2954,7.0376,6.9228,6.9116,6.9105,6.9093,6.9093,6.8954,6.8895,6.8884,6.874,6.7764,6.611,6.4595,0.0,6.6026,6.61,6.6826,6.8086,6.7323,6.6877,6.6649,6.5204,6.4433,6.4249,6.3425,6.2995,6.2933,6.2516,6.2176,6.1831,5.8431,5.6644,5.652,5.6535,5.707,5.8142,5.8515,5.9079,5.9711,6.0409,6.0778,6.0731,6.0711,6.0376,5.9725,5.906,5.8356,5.7633,5.6209,5.4416,5.2302,0.0,0.0,0.0,0.0,0.0,0.0,0.0,0.0,0.0,0.0,0.0,0.0,0.0,0.0,0.0,4.6203,0.0,4.8684,4.8544,0.0,0.0,0.0,4.95,5.0053,5.0722,5.1984,5.4052,0.0,0.0,5.5568,5.5634,5.4769,5.2586,5.2048,5.1776,5.1473,5.1529,5.1537,5.1243,5.1583,5.1871,5.1875,5.2368,5.3123,5.4139,5.4548,5.4662,5.5126,5.5244,5.5358,5.5242,5.4923,5.4519,5.4548,5.3999,5.3619,5.3535,5.3474,5.3445,5.3361,5.3361,5.3332,7.409,7.403,7.3247,7.2203,7.1017,7.0938,7.0892,7.0843,7.0631,7.0535,7.0523,7.0376,6.9781,6.8791,6.9014,6.8964,6.8779,6.9285,6.9702,6.9997,6.9626,6.9101,6.8449,6.7961,6.71,6.5962,6.5715,6.554,6.5434,6.5168,6.521,6.5431,6.4243,6.2422,6.0132,5.9661,5.9736,6.0255,6.0585,6.1047,6.1635,6.2272,6.2353,6.1919,6.1747,6.166,6.1616,6.0926,6.0473,6.0218,5.8331,5.6743,5.5662,5.318,0.0,0.0,0.0,0.0,0.0,0.0,0.0,0.0,0.0,4.2036,4.2139,0.0,4.4938,0.0,4.8283,5.0175,5.0944,5.1497,0.0,0.0,5.2741,5.3413,5.3576,5.4425,5.5474,5.656,5.6739,5.7108,5.7837,5.8458,5.8514,5.7594,5.5434,5.3671,5.2894,5.3215,5.3317,5.2809,5.3425,5.4025,5.3902,5.4342,5.4807,5.5126,5.5213,5.5242,5.5387,5.5416,5.5416,5.5416,5.53,5.5213,5.5213,5.5012,5.4751,5.4345,5.3878,5.35,5.35,5.35,5.35,7.5001,7.4896,7.4394,7.3672,7.2796,7.2728,7.2705,7.2681,7.2395,7.2286,7.2273,7.1715,7.1218,7.0846,7.0871,7.0871,7.0834,7.1191,7.1535,7.1791,7.1196,7.0655,7.0146,6.9665,6.8972,6.8091,6.8091,6.805,6.7982,6.771,6.7702,6.797,6.7513,6.6284,6.4381,6.3272,6.2786,6.2788,6.3215,6.3589,6.3884,6.3791,6.3635,6.3367,6.2867,6.2678,6.2855,6.2499,6.2089,6.1732,6.0556,5.9276,5.7858,5.5928,5.3809,0.0,0.0,0.0,0.0,0.0,0.0,0.0,0.0,0.0,0.0,0.0,4.7884,4.9391,5.1211,5.2773,5.3935,5.425,5.4599,5.5006,5.5865,5.6534,5.672,5.7559,5.8528,5.9486,5.9616,5.9888,6.0478,6.0698,6.0683,6.0314,5.8507,5.6843,5.5883,5.5646,5.5351,5.4975,5.5224,5.5547,5.5517,5.5701,5.5968,5.62,5.6258,5.6258,5.6258,5.6258,5.6258,5.6229,5.6026,5.5852,5.5852,5.5591,5.53,5.4981,5.4633,5.4171,5.3646,5.35,5.3588,7.5811,7.5524,7.4694,7.4298,7.4186,7.4186,7.4186,7.4174,7.3912,7.379,7.3703,7.2782,7.2345,7.2308,7.1539,7.1626,7.2345,7.2345,7.2652,7.3138,7.2274,7.1806,7.1646,7.0818,7.033,7.0257,7.0257,7.0257,7.0257,6.9937,6.9792,6.9738,6.9384,6.8978,6.8439,6.6987,6.5932,6.5287,6.5883,6.6135,6.6013,6.5148,6.4678,6.4725,6.3886,6.3507,6.3675,6.3747,6.3419,6.2728,6.2607,6.1691,5.977,5.8819,5.7335,0.0,5.3654,0.0,0.0,0.0,0.0,0.0,0.0,0.0,0.0,4.974,5.151,5.3602,5.4478,5.5506,5.695,5.6948,5.7189,5.7977,5.8686,5.9265,5.9611,6.0304,6.1155,6.2242,6.2186,6.2343,6.2826,6.2513,6.2103,6.1847,6.1199,6.0287,5.9402,5.8247,5.7467,5.7457,5.6964,5.6753,5.6866,5.6767,5.6804,5.7298,5.73,5.736,5.7301,5.7273,5.7274,5.7216,5.6839,5.652,5.652,5.6055,5.5678,5.5591,5.5503,5.5126,5.4168,5.3878,5.3938,7.6301,7.5573,7.5295,7.4798,7.4186,7.4186,7.4186,7.4174,7.3912,7.369,7.3463,7.3263,7.3162,7.3162,7.3014,7.3014,7.3162,7.3162,7.3261,7.3333,7.2933,7.276,7.2682,7.2257,7.1688,7.1087,7.105,7.1087,7.105,7.0879,7.1048,7.1469,7.1184,7.0838,7.043,0.0,0.0,0.0,6.7387,6.7401,6.6643,6.6232,6.5739,6.5219,6.4366,0.0,6.4235,6.4411,6.4411,6.4236,6.371,0.0,0.0,0.0,0.0,0.0,0.0,0.0,0.0,0.0,0.0,0.0,5.5587,5.4293,5.1969,5.345,5.4785,5.5293,5.6982,5.8251,5.8573,5.9652,6.0391,6.0632,6.1604,6.226,6.2171,6.262,6.3031,6.3072,6.3375,6.3594,6.3759,6.3984,6.3946,6.352,6.3153,6.2676,6.2094,6.0433,5.9159,5.8694,5.8344,5.8142,5.7934,5.7851,5.7796,5.8001,5.7836,5.7725,5.7669,5.7444,5.7303,5.7303,5.7216,5.7129,5.7129,5.7013,5.6723,5.6316,5.6229,5.5997,5.5213,5.5012,5.507,7.6963,7.6082,7.5584,7.4875,0.0,7.4104,7.4068,7.3997,7.3864,7.3628,7.3385,7.3385,7.3385,7.3385,7.3385,7.3385,7.3385,7.3385,7.3346,7.3305,7.3091,7.2955,7.2835,7.2596,7.2298,7.1894,7.1894,7.1894,7.1894,7.175,7.1831,7.2159,7.1826,7.1531,7.124,7.0979,7.0101,6.8611,6.8893,6.8786,6.8309,6.7373,6.6723,6.6409,6.5198,0.0,0.0,0.0,0.0,0.0,0.0,0.0,0.0,6.3348,0.0,6.144,6.057,5.9908,5.9501,5.9301,5.9426,6.0012,6.0123,5.8812,5.5621,5.6567,5.7322,5.7356,5.9047,6.0283,6.0655,6.1719,6.255,6.2902,6.3498,6.393,6.4073,6.4212,6.4345,6.4517,6.4641,6.4696,6.4696,6.4813,6.4816,6.4574,6.4076,6.3643,6.3309,6.1851,6.0475,5.9779,5.9444,5.915,5.8716,5.8527,5.839,5.8252,5.8085,5.7948,5.7809,5.7669,5.75,5.736,5.7303,5.7303,5.7303,5.7303,5.7216,5.6955,5.6839,5.6752,5.6374,5.5852,5.5533,7.7734,7.6776,7.5938,7.5053,7.4196,7.406,7.39,7.3765,0.0,0.0,0.0,7.3385,7.3385,7.3385,7.3385,7.3385,7.3385,7.3396,7.3318,7.3185,7.3023,7.2835,7.2695,7.2567,7.2532,7.2532,7.2532,7.2532,7.2481,7.2365,7.2329,7.2284,7.203,7.1765,7.1526,7.1207,7.085,7.041,7.0219,7.0061,6.9991,6.8504,6.7779,6.7899,6.6415,6.5668,6.5788,6.5837,6.5918,6.6098,6.6094,6.5895,6.5395,6.5339,6.4912,6.3886,6.3103,6.2774,6.3009,6.2701,6.2734,6.3338,6.3411,6.2176,5.9193,5.9482,5.9791,5.9791,6.1042,6.2144,6.2719,6.3429,6.414,6.4749,6.4918,6.5174,6.5518,6.5353,6.5318,6.5724,6.5526,6.5403,6.537,6.5246,6.5122,6.5031,6.4597,6.4123,6.3888,6.2744,6.1494,6.0758,6.0394,6.0031,5.9476,5.918,5.8855,5.8552,5.8445,5.8223,5.7975,5.7836,5.7669,5.736,5.7303,5.7303,5.7303,5.7303,5.7303,5.7303,5.7303,5.7303,5.7216,5.649,5.5997,7.8562,7.7652,7.6717,7.5831,7.497,7.4187,7.3765,7.364,7.364,7.3564,7.3385,7.3385,7.3385,7.3385,7.3385,7.3385,7.3385,7.3292,7.3225,7.3185,7.2876,7.2737,7.2695,7.2553,7.2532,7.2532,7.2532,7.2532,7.2496,7.2467,7.2431,7.2314,7.2255,7.2054,7.1749,7.1456,7.1211,7.1146,7.093,7.0764,7.0579,6.9721,6.9189,6.9036,6.8296,6.7592,6.6996,6.7139,6.7234,6.7265,6.7353,6.7621,6.8107,6.8197,6.8019,6.7445,6.722,6.6921,6.6339,6.6108,6.5834,6.5507,6.5306,6.4312,6.2308,6.2566,6.2868,6.2902,6.3565,6.4174,6.4343,6.4918,6.5392,6.5581,6.6102,6.6437,6.6326,6.6057,6.5875,6.579,6.5559,6.5403,6.5403,6.5358,6.5269,6.5122,6.494,6.4758,6.4216,6.3333,6.2358,6.1633,6.1379,6.1021,6.0403,6.0193,5.9902,5.9422,5.9099,5.8773,5.828,5.8003,5.7725,5.736,5.7331,5.7303,5.7303,5.7303,5.7303,5.7303,5.7303,5.7303,5.7303,5.7071,5.6984,7.864,7.7779,7.7342,7.6319,7.491,7.3988,7.3527,7.3476,7.3476,7.345,7.3385,7.3385,7.3385,7.3385,7.3385,7.3385,7.3385,7.3265,7.3158,7.3077,7.2807,7.2667,7.2582,7.2524,7.2532,7.2532,7.2532,7.2532,7.2532,7.2532,7.2489,7.2431,7.2358,7.2144,7.1918,7.1672,7.1598,7.1546,7.1211,7.0946,7.0864,7.011,6.9647,6.9565,6.8893,6.8498,6.8311,6.8352,6.8475,6.8657,6.8681,6.8877,6.9165,6.9225,6.9089,6.8721,6.8478,6.8283,6.8098,6.7916,6.7642,6.7296,6.6966,6.6376,6.5395,6.4645,6.4193,6.414,6.4749,6.5189,6.5222,6.5865,6.6305,6.6305,6.6588,6.6749,6.6622,6.6311,6.6052,6.5977,6.5614,6.5403,6.5403,6.5403,6.5381,6.5279,6.5189,6.4963,6.4587,6.4146,6.35,6.2678,6.2333,6.191,6.12,6.0918,6.0607,6.0088,5.961,5.918,5.8746,5.8362,5.7948,5.7641,5.7416,5.7303,5.7303,5.7303,5.7303,5.7303,5.7303,5.7303,5.7303,5.7303,5.7303,7.8616,7.7928,7.7678,7.6516,7.4718,7.3796,7.3385,7.3385,7.3385,7.3385,7.3385,7.3385,7.3385,7.3385,7.3385,7.3372,7.3357,7.3225,7.3077,7.2927,7.2737,7.2596,7.2496,7.2532,7.2532,7.2532,7.2532,7.2532,7.2532,7.2532,7.2532,7.2481,7.2351,7.2218,7.2048,7.1918,7.1842,7.1811,7.1431,7.1191,7.111,7.0498,7.0226,7.0186,6.9697,6.9441,6.9573,6.9552,6.9672,6.9858,6.9916,6.9989,7.0142,7.0208,7.0076,6.9714,6.9419,6.917,6.9139,6.8899,6.8667,6.8416,6.8064,6.7725,6.7427,6.6275,6.5372,6.5196,6.5628,6.5954,6.6,6.644,6.6791,6.6791,6.6791,6.6791,6.6749,6.6375,6.6095,6.6052,6.568,6.5403,6.5403,6.5403,6.5403,6.5381,6.5246,6.5066,6.4907,6.4839,6.4426,6.3865,6.3341,6.2783,6.201,6.1658,6.1252,6.0685,6.0167,5.9663,5.9207,5.8637,5.8197,5.7864,5.7529,5.7331,5.7303,5.7303,5.7303,5.7303,5.7303,5.7303,5.7303,5.7303,5.7303,7.8776,7.8484,7.7731,7.6295,7.4638,7.3757,7.3423,7.3385,7.3385,7.3385,7.3385,7.3385,7.3385,7.3385,7.3385,7.3344,7.3225,7.3077,7.2927,7.2737,7.2582,7.251,7.2532,7.2532,7.2532,7.2532,7.2532,7.2532,7.2532,7.2532,7.2532,7.2518,7.2387,7.2299,7.227,7.2099,7.1973,7.1973,7.1927,7.1759,7.1463,7.1375,7.1453,7.1594,7.1521,7.125,7.0688,7.0667,7.0682,7.0711,7.0873,7.1202,7.1683,7.1918,7.182,7.1288,7.1103,7.0654,6.9636,6.9196,6.88,6.8435,6.8182,6.7919,6.7536,6.7339,6.7066,6.6646,6.6588,6.6622,6.669,6.6757,6.6791,6.6791,6.6791,6.6791,6.6749,6.6375,6.6095,6.6095,6.568,6.5403,6.5403,6.5403,6.5403,6.5403,6.5381,6.5314,6.5269,6.5134,6.5031,6.4781,6.4333,6.3604,6.2881,6.2457,6.1985,6.1303,6.084,6.0241,5.9503,5.8909,5.8472,5.7975,5.75,5.7331,5.7303,5.7303,5.7303,5.7303,5.7303,5.7303,5.7303,5.7303,5.7303,7.8708,7.8552,7.8187,7.6976,7.5318,7.4463,7.3831,7.3423,7.3385,7.3385,7.3385,7.3385,7.3385,7.3385,7.3331,7.3252,7.3185,7.2955,7.2779,7.2695,7.2553,7.2532,7.2532,7.2532,7.2532,7.2532,7.2532,7.2532,7.2532,7.2532,7.2532,7.2481,7.2423,7.2409,7.2394,7.2248,7.2174,7.2174,7.2048,7.1927,7.1821,7.179,7.1821,7.1918,7.1933,7.1848,7.1706,7.1699,7.1728,7.1816,7.1903,7.205,7.2285,7.2365,7.2233,7.179,7.1276,7.0596,6.9813,6.9287,6.8895,6.8609,6.828,6.7939,6.7536,6.7496,6.7291,6.6896,6.6791,6.6791,6.6791,6.6791,6.6791,6.6791,6.6791,6.6791,6.6791,6.6409,6.6095,6.6074,6.568,6.5403,6.5403,6.5403,6.5403,6.5403,6.5403,6.5403,6.5403,6.5336,6.5257,6.5099,6.4826,6.4356,6.3651,6.3236,6.2751,6.206,6.1405,6.0685,6.0035,5.9126,5.8527,5.8114,5.764,5.736,5.7303,5.7303,5.7303,5.7303,5.7303,5.7303,5.7303,5.7303,5.7303,7.8762,7.8417,7.8194,7.7345,7.6098,7.528,7.4463,7.3757,7.372,7.3608,7.3385,7.3346,7.3357,7.3344,7.3239,7.3158,7.3013,7.2807,7.2681,7.2638,7.2539,7.2532,7.2532,7.2532,7.2532,7.2532,7.2532,7.2532,7.2532,7.2532,7.2532,7.2532,7.2532,7.2532,7.2481,7.2416,7.2336,7.2358,7.2218,7.2122,7.2122,7.2122,7.2108,7.2078,7.2063,7.2174,7.2321,7.2373,7.238,7.2481,7.2532,7.2532,7.2532,7.2532,7.2336,7.1933,7.1207,7.0528,6.9991,6.9416,6.897,6.8724,6.8319,6.7905,6.7597,6.7496,6.727,6.6875,6.6791,6.6791,6.6791,6.6791,6.6791,6.6791,6.6791,6.6791,6.677,6.6375,6.6095,6.6052,6.568,6.5403,6.5403,6.5403,6.5403,6.5403,6.5403,6.5403,6.5403,6.5403,6.5336,6.5212,6.5189,6.4872,6.4216,6.3817,6.3333,6.2653,6.1885,6.12,6.056,5.9529,5.8664,5.8278,5.7779,5.7416,5.7331,5.7303,5.7303,5.7303,5.7303,5.7303,5.7303,5.7303,5.7303,7.9135,7.823,7.7486,7.7189,7.6952,7.6135,7.528,7.4537,7.4537,7.4128,7.3545,7.3315,7.3249,7.3236,7.3209,7.3,7.2765,7.2709,7.2624,7.2524,7.2496,7.2532,7.2532,7.2532,7.2532,7.2532,7.2532,7.2532,7.2532,7.2532,7.2532,7.2532,7.2532,7.2532,7.2496,7.2481,7.2481,7.2467,7.2452,7.2452,7.2467,7.2452,7.238,7.2277,7.2299,7.2336,7.2452,7.2481,7.2481,7.2496,7.2532,7.2532,7.2532,7.2481,7.2277,7.1847,7.1272,7.0731,7.0202,6.9598,6.912,6.8724,6.8319,6.7939,6.7571,6.7455,6.7284,6.6833,6.6791,6.6791,6.6791,6.6791,6.6791,6.6791,6.6791,6.6791,6.6791,6.6397,6.6139,6.603,6.568,6.5425,6.5403,6.5403,6.5403,6.5403,6.5403,6.5403,6.5403,6.5403,6.5403,6.5381,6.5314,6.5101,6.4439,6.417,6.3699,6.3051,6.2407,6.1633,6.0711,5.9819,5.9123,5.847,5.8003,5.7641,5.7416,5.7303,5.7303,5.7303,5.7303,5.7303,5.7303,5.7303,5.7303,7.9075,7.829,7.7993,7.7584,7.7064,7.6767,7.6172,7.5392,7.5355,7.519,7.4762,7.4226,7.3831,7.3614,7.3098,7.2807,7.2709,7.261,7.2539,7.2532,7.2532,7.2532,7.2532,7.2532,7.2532,7.2532,7.2532,7.2532,7.2532,7.2532,7.2532,7.2532,7.2532,7.2532,7.2532,7.2532,7.2532,7.2532,7.2532,7.2532,7.2532,7.2532,7.2467,7.2423,7.2409,7.2438,7.2496,7.2532,7.2532,7.2532,7.2532,7.2532,7.2481,7.2307,7.2084,7.1816,7.1308,7.0747,7.0237,6.9634,6.9139,6.8724,6.8201,6.7799,6.7536,6.7387,6.716,6.6875,6.6791,6.6791,6.6791,6.6791,6.6791,6.6791,6.6791,6.6791,6.6749,6.6537,6.6302,6.6074,6.568,6.5425,6.5403,6.5403,6.5403,6.5403,6.5403,6.5403,6.5403,6.5403,6.5403,6.5403,6.5403,6.5269,6.4885,6.461,6.424,6.3651,6.2971,6.2209,6.1328,6.032,5.9553,5.8743,5.8252,5.7725,5.7444,5.7303,5.7303,5.7303,5.7303,5.7303,5.7303,5.7303,5.7303,7.9033,7.8364,7.829,7.7993,7.751,7.7473,7.699,7.627,7.6155,7.5925,7.5532,7.4917,7.4491,7.4174,7.3403,7.3006,7.2955,7.2686,7.2496,7.2532,7.2532,7.2532,7.2532,7.2532,7.2532,7.2532,7.2532,7.2532,7.2532,7.2532,7.2532,7.2532,7.2532,7.2532,7.2532,7.2532,7.2532,7.2532,7.2532,7.2532,7.2532,7.2532,7.2532,7.2496,7.2532,7.2532,7.2532,7.2532,7.2532,7.2532,7.2532,7.2532,7.2467,7.2204,7.1948,7.1801,7.1308,7.0747,7.0237,6.9634,6.9101,6.8647,6.8103,6.7699,6.7448,6.7263,6.7077,6.6875,6.6791,6.6791,6.6791,6.6791,6.6791,6.6791,6.6791,6.6791,6.6791,6.6635,6.6323,6.6009,6.5636,6.5448,6.5403,6.5403,6.5403,6.5403,6.5403,6.5403,6.5403,6.5403,6.5403,6.5403,6.5403,6.5336,6.5134,6.493,6.4518,6.3935,6.3452,6.2727,6.1859,6.0866,5.9952,5.9123,5.8445,5.7863,5.75,5.736,5.7303,5.7303,5.7303,5.7303,5.7303,5.7303,5.7303,7.907,7.8402,7.8327,7.829,7.8179,7.8179,7.7807,7.7134,7.6899,7.6458,7.5842,7.5334,7.5146,7.4926,7.4111,7.3685,7.3516,7.2899,7.2569,7.2532,7.2532,7.2532,7.2532,7.2532,7.2532,7.2532,7.2532,7.2532,7.2532,7.2532,7.2532,7.2532,7.2532,7.2532,7.2532,7.2532,7.2532,7.2532,7.2532,7.2532,7.2532,7.2532,7.2532,7.2532,7.2532,7.2532,7.2532,7.2532,7.2532,7.2532,7.2532,7.2532,7.2452,7.2189,7.1933,7.1749,7.1324,7.08,7.0237,6.9634,6.9045,6.8494,6.8039,6.7597,6.7304,6.718,6.7056,6.6854,6.6791,6.6791,6.6791,6.6791,6.6791,6.6791,6.6791,6.6791,6.677,6.6635,6.6335,6.5911,6.5581,6.5425,6.5403,6.5403,6.5403,6.5403,6.5403,6.5403,6.5403,6.5403,6.5403,6.5403,6.5403,6.5381,6.5291,6.5179,6.4679,6.4193,6.3761,6.3188,6.2284,6.1328,6.042,5.9606,5.85,5.7892,5.7444,5.7303,5.7303,5.7303,5.7303,5.7303,5.7303,5.7303,5.7303,7.9888,7.907,7.8513,7.829,7.829,7.829,7.8086,7.7728,7.7658,7.7382,7.6921,7.628,7.5905,7.5632,7.4896,7.4221,7.3707,7.3413,7.3046,7.2606,7.2532,7.2532,7.2532,7.2532,7.2532,7.2532,7.2532,7.2532,7.2569,7.2569,7.2532,7.2532,7.2532,7.2532,7.2569,7.2532,7.2532,7.2532,7.2532,7.2532,7.2532,7.2532,7.2532,7.2532,7.2532,7.2532,7.2532,7.2532,7.2532,7.2532,7.2532,7.2532,7.2438,7.2204,7.2024,7.1903,7.1336,7.085,7.0393,6.9706,6.9045,6.8455,6.7885,6.7496,6.7222,6.7035,6.6896,6.6812,6.6791,6.6791,6.6791,6.6791,6.6791,6.6791,6.6791,6.6791,6.6749,6.6473,6.6182,6.5987,6.567,6.5448,6.5403,6.5403,6.5403,6.5403,6.5403,6.5403,6.5403,6.5403,6.5403,6.5403,6.5403,6.5403,6.5358,6.5291,6.5021,6.4564,6.417,6.3619,6.2727,6.1784,6.0913,5.9762,5.8689,5.7975,5.75,5.7303,5.7303,5.7303,5.7303,5.7303,5.7303,5.7303,5.7303,8.0222,7.9442,7.8662,7.829,7.8276,7.8235,7.8113,7.8,7.7885,7.7762,7.7488,7.7008,7.6676,7.6387,7.5711,7.5102,7.4551,7.4052,7.3597,7.334,7.3046,7.2936,7.301,7.3252,7.3413,7.3413,7.3399,7.3413,7.3362,7.3413,7.3413,7.3413,7.3413,7.345,7.3413,7.3377,7.3303,7.301,7.2936,7.2789,7.2569,7.2532,7.2532,7.2532,7.2532,7.2532,7.2532,7.2532,7.2532,7.2532,7.2532,7.2532,7.2467,7.2263,7.2069,7.1857,7.1415,7.0916,7.0393,6.9688,6.9008,6.8358,6.7799,6.7353,6.7118,6.6854,6.6812,6.6791,6.6791,6.6791,6.6791,6.6791,6.6791,6.6791,6.6791,6.6791,6.6749,6.6375,6.6139,6.5987,6.568,6.547,6.5403,6.5403,6.5403,6.5403,6.5403,6.5403,6.5403,6.5403,6.5403,6.5403,6.5403,6.5403,6.5403,6.5358,6.5324,6.4953,6.4587,6.3982,6.3244,6.2234,6.1328,5.9739,5.8472,5.7946,5.75,5.736,5.7303,5.7303,5.7303,5.7303,5.7303,5.7303,5.7303,8.0334,7.9553,7.8736,7.8425,7.836,7.8159,7.8,7.7928,7.7732,7.7635,7.7524,7.7329,7.7252,7.7105,7.6445,7.6056,7.5836,7.4698,7.4294,7.4441,7.4184,7.3891,7.3854,7.4331,7.4573,7.4683,7.472,7.4757,7.461,7.461,7.4903,7.4683,7.4647,7.483,7.4647,7.483,7.4404,7.3854,7.3744,7.3413,7.2826,7.2753,7.2789,7.2789,7.2716,7.2679,7.2679,7.2606,7.2532,7.2532,7.2532,7.2532,7.2467,7.2351,7.2136,7.1826,7.1483,7.0933,7.0289,6.9652,6.897,6.8201,6.7759,6.7291,6.6917,6.6812,6.6791,6.6791,6.6791,6.6791,6.6791,6.6791,6.6791,6.6791,6.6791,6.6791,6.677,6.6409,6.6139,6.603,6.5702,6.5403,6.5403,6.5403,6.5403,6.5403,6.5403,6.5403,6.5403,6.5403,6.5403,6.5403,6.5403,6.5403,6.5403,6.5403,6.5336,6.5201,6.4816,6.4263,6.3437,6.2383,6.1226,5.966,5.8527,5.7974,5.7556,5.7388,5.7303,5.7303,5.7303,5.7303,5.7303,5.7303,5.7303,8.1523,8.1188,7.9776,7.9112,7.8938,7.8325,7.7871,7.7718,7.7628,7.7508,7.7402,7.7304,7.7326,7.7289,7.7069,7.6665,7.6093,7.5652,7.5175,7.4977,7.5359,7.5102,7.4683,7.4793,7.494,7.4977,7.505,7.4903,7.4903,7.5014,7.4977,7.4903,7.5014,7.4977,7.4903,7.4977,7.4793,7.461,7.4588,7.45,7.428,7.4206,7.428,7.4206,7.3707,7.3413,7.3303,7.2826,7.2532,7.2532,7.2532,7.2532,7.2467,7.2263,7.2069,7.1866,7.142,7.09,7.0428,6.9759,6.8986,6.8182,6.787,6.7291,6.6854,6.6791,6.6791,6.6791,6.6791,6.6791,6.6791,6.6791,6.6791,6.6791,6.6791,6.6791,6.6728,6.643,6.6095,6.6052,6.568,6.5437,6.5403,6.5403,6.5403,6.5403,6.5403,6.5403,6.5403,6.5403,6.5403,6.5403,6.5403,6.5403,6.5403,6.5403,6.5381,6.5336,6.4998,6.4528,6.3437,6.2191,6.084,5.9342,5.8664,5.8085,5.764,5.7303,5.7303,5.7303,5.7303,5.7303,5.7303,5.7303,5.7303,8.2006,8.188,8.0508,7.9694,7.9237,7.8625,7.8042,7.7657,7.753,7.7417,7.7304,7.7326,7.7326,7.7326,7.7289,7.7069,7.6607,7.624,7.6056,7.6114,7.6371,7.6298,7.6004,7.5894,7.5931,7.5931,7.5894,7.5931,7.5968,7.5931,7.5894,7.5968,7.5894,7.5931,7.5968,7.5894,7.5711,7.5491,7.538,7.527,7.494,7.4903,7.4867,7.483,7.4404,7.4221,7.4147,7.3744,7.3266,7.2716,7.2532,7.2532,7.2481,7.2277,7.2033,7.1933,7.1609,7.1266,7.0753,7.0263,6.9718,6.9043,6.8535,6.7991,6.7472,6.7252,6.7197,6.6825,6.6825,6.6791,6.6791,6.6791,6.6791,6.6791,6.6791,6.6791,6.6791,6.6409,6.6139,6.5987,6.5702,6.5403,6.5403,6.5403,6.5403,6.5403,6.5403,6.5403,6.5403,6.5403,6.5403,6.5403,6.5403,6.5403,6.5403,6.5403,6.5403,6.5358,6.4976,6.4518,6.358,6.2184,6.0918,5.9713,5.8934,5.8252,5.7781,5.7417,5.7303,5.7303,5.7303,5.7303,5.7303,5.7303,5.7303,8.2103,8.1999,8.1022,8.0171,7.9542,7.9082,7.8504,7.7781,7.7623,7.7451,7.7326,7.7326,7.7326,7.7326,7.7326,7.7289,7.7215,7.6592,7.6738,7.6959,7.7179,7.7105,7.7032,7.6995,7.7032,7.7069,7.7252,7.7179,7.7032,7.7142,7.7215,7.7069,7.7142,7.7252,7.7032,7.7142,7.6885,7.6335,7.624,7.5968,7.5527,7.5454,7.5454,7.5417,7.516,7.4918,7.483,7.4683,7.4206,7.2863,7.2753,7.2899,7.2834,7.2666,7.2464,7.2221,7.2234,7.1901,7.1248,7.0982,7.064,6.9942,6.9475,6.9045,6.823,6.7895,6.759,6.7083,6.688,6.6791,6.6791,6.6791,6.6791,6.6791,6.6791,6.6791,6.6728,6.6397,6.6139,6.6074,6.568,6.5492,6.5425,6.5403,6.5403,6.5403,6.5403,6.5403,6.5403,6.5403,6.5403,6.5403,6.5403,6.5403,6.5403,6.5403,6.5403,6.5358,6.4885,6.4379,6.3667,6.2481,6.1246,6.0132,5.915,5.8417,5.7864,5.7585,5.7388,5.7303,5.7303,5.7303,5.7303,5.7303,5.7303,8.2824,8.2631,8.1808,8.1199,8.0711,8.0029,7.9237,7.8379,7.8348,7.7913,7.7436,7.7326,7.7326,7.7326,7.7326,7.7326,7.7326,7.7069,7.7179,7.7252,7.7326,7.7326,7.7326,7.7326,7.7326,7.7326,7.7326,7.7326,7.7326,7.7326,7.7326,7.7326,7.7326,7.7326,7.7326,7.7289,7.7252,7.7069,7.7032,7.6885,7.6738,7.6628,7.6628,7.6592,7.613,7.5542,7.5014,7.4903,7.472,7.4463,7.4353,7.4353,7.4198,7.3989,7.3707,7.3429,7.3055,7.2601,7.199,7.1396,7.0738,7.0223,6.9808,6.9249,6.8898,6.8301,6.7929,6.7557,6.7184,6.6893,6.6791,6.6791,6.6791,6.6791,6.6791,6.6791,6.6749,6.6558,6.6323,6.6095,6.5889,6.5625,6.5448,6.5425,6.5403,6.5403,6.5403,6.5403,6.5403,6.5403,6.5403,6.5403,6.5403,6.5403,6.5403,6.5403,6.5403,6.5358,6.493,6.4416,6.3738,6.2817,6.1652,6.042,5.9258,5.8637,5.8142,5.7613,5.736,5.7331,5.7303,5.7303,5.7303,5.7303,5.7303,8.2994,8.2867,8.2256,8.168,8.1176,8.0656,7.9989,7.9192,7.8736,7.8369,7.7876,7.7546,7.7326,7.7326,7.7326,7.7326,7.7326,7.7326,7.7289,7.7326,7.7326,7.7326,7.7326,7.7326,7.7326,7.7326,7.7326,7.7326,7.7326,7.7326,7.7326,7.7326,7.7326,7.7326,7.7326,7.7326,7.7289,7.7289,7.7326,7.7326,7.7326,7.7326,7.7326,7.7289,7.6885,7.6408,7.6114,7.6041,7.6041,7.6041,7.6004,7.5637,7.4969,7.4565,7.4321,7.4022,7.3784,7.3172,7.2526,7.2016,7.1546,7.0968,7.0531,7.0088,6.9732,6.918,6.8571,6.803,6.7557,6.7197,6.6859,6.6791,6.6791,6.6791,6.6791,6.6791,6.6749,6.6635,6.64,6.6151,6.5933,6.567,6.5514,6.5448,6.5403,6.5403,6.5403,6.5403,6.5403,6.5403,6.5403,6.5403,6.5403,6.5403,6.5403,6.5403,6.5403,6.5336,6.5111,6.4679,6.417,6.3132,6.2078,6.0913,5.9819,5.9072,5.8555,5.7974,5.7444,5.7331,5.7303,5.7303,5.7303,5.7303,5.7303,8.2852,8.2813,8.2518,8.1971,8.1371,8.1223,8.0718,7.9926,7.9286,7.8919,7.8479,7.7766,7.7546,7.7326,7.7326,7.7326,7.7326,7.7326,7.7326,7.7326,7.7326,7.7326,7.7326,7.7326,7.7326,7.7326,7.7326,7.7326,7.7326,7.7326,7.7326,7.7326,7.7326,7.7326,7.7326,7.7326,7.7326,7.7326,7.7326,7.7326,7.7326,7.7326,7.7326,7.7289,7.7252,7.7179,7.7069,7.7105,7.7215,7.7326,7.7326,7.6576,7.5605,7.4967,7.4638,7.4356,7.4293,7.3809,7.3143,7.2696,7.2316,7.2007,7.1512,7.0996,7.05,7.0094,6.9485,6.8707,6.8064,6.759,6.7062,6.6859,6.6825,6.6791,6.6791,6.6791,6.677,6.6656,6.6452,6.6237,6.6042,6.5824,6.5603,6.547,6.5448,6.5403,6.5403,6.5403,6.5403,6.5403,6.5403,6.5403,6.5403,6.5403,6.5403,6.5403,6.5403,6.5336,6.5234,6.4907,6.4495,6.3714,6.2695,6.1582,6.0581,5.9713,5.8828,5.8142,5.7697,5.7473,5.7303,5.7303,5.7303,5.7303,5.7303,8.2752,8.2487,8.2423,8.2254,8.2051,8.1982,8.1525,8.0865,8.0571,7.98,7.8699,7.8405,7.7913,7.7509,7.7326,7.7326,7.7326,7.7326,7.7326,7.7326,7.7326,7.7326,7.7326,7.7326,7.7326,7.7326,7.7362,7.7399,7.7326,7.7326,7.7326,7.7326,7.7326,7.7326,7.7326,7.7326,7.7326,7.7326,7.7326,7.7326,7.7326,7.7326,7.7326,7.7326,7.7326,7.7326,7.7326,7.7326,7.7326,7.7326,7.7326,7.7065,7.6627,7.6366,7.6077,7.5648,7.5101,7.4393,7.3698,7.2962,7.2454,7.2007,7.158,7.1334,7.0973,7.0567,7.0094,6.9574,6.8605,6.7861,6.7726,6.7286,6.6859,6.6825,6.6825,6.6791,6.6791,6.6728,6.6622,6.643,6.6215,6.5955,6.5736,6.5514,6.5448,6.5403,6.5403,6.5403,6.5403,6.5403,6.5403,6.5403,6.5403,6.5403,6.5403,6.5403,6.5403,6.5381,6.5246,6.5167,6.4725,6.4263,6.338,6.2202,6.099,5.9925,5.9096,5.8362,5.7836,5.7557,5.7416,5.7303,5.7303,5.7303,5.7303,8.255,8.2391,8.2311,8.2267,8.2203,8.2186,8.1966,8.1599,8.1158,8.0571,7.9764,7.8993,7.8405,7.7965,7.7436,7.7326,7.7326,7.7326,7.7326,7.7326,7.7326,7.7326,7.7362,7.7362,7.7619,7.7839,7.7949,7.7693,7.7326,7.7326,7.7399,7.7326,7.7326,7.7326,7.7326,7.7326,7.7326,7.7326,7.7326,7.7326,7.7326,7.7326,7.7326,7.7326,7.7326,7.7326,7.7326,7.7326,7.7326,7.7326,7.7326,7.7248,7.7092,7.6902,7.659,7.6123,7.5478,7.4748,7.3944,7.3121,7.2467,7.2029,7.1546,7.1334,7.1222,7.0973,7.0601,7.0026,6.935,6.8504,6.8504,6.7827,6.7455,6.732,6.7096,6.6893,6.6825,6.6825,6.6762,6.6668,6.6323,6.6042,6.5802,6.5603,6.547,6.5403,6.5403,6.5403,6.5403,6.5403,6.5403,6.5403,6.5403,6.5403,6.5403,6.5403,6.5403,6.5381,6.5336,6.5201,6.4953,6.4495,6.3785,6.2825,6.1576,6.0446,5.9553,5.8852,5.825,5.7669,5.7444,5.7331,5.7303,5.7303,5.7303,8.2375,8.2343,8.2251,8.2186,8.2186,8.2186,8.2186,8.2076,8.1525,8.1158,8.0812,7.9727,7.9066,7.8662,7.8038,7.7546,7.7362,7.7326,7.7399,7.7656,7.7656,7.7656,7.7803,7.7876,7.8243,7.8736,7.8809,7.8479,7.8148,7.8023,7.7876,7.7913,7.7766,7.7546,7.7619,7.7436,7.7399,7.7326,7.7326,7.7326,7.7326,7.7326,7.7326,7.7326,7.7326,7.7326,7.7326,7.7326,7.7326,7.7326,7.7273,7.7196,7.7045,7.6834,7.6475,7.5934,7.5371,7.4711,7.3944,7.3101,7.2446,7.2029,7.158,7.1356,7.1289,7.121,7.1007,7.0398,6.9755,6.9316,6.9214,6.8605,6.8233,6.8064,6.7692,6.7252,6.7151,6.7117,6.7015,6.6757,6.64,6.6184,6.6033,6.5714,6.5559,6.5425,6.5403,6.5403,6.5403,6.5403,6.5403,6.5403,6.5403,6.5403,6.5403,6.5403,6.5403,6.5403,6.5381,6.5314,6.5044,6.4748,6.3997,6.3357,6.2506,6.1399,6.0394,5.9285,5.85,5.7864,5.7557,5.7331,5.7303,5.7303,5.7303,8.2348,8.2219,8.2203,8.2186,8.2186,8.2186,8.2186,8.215,8.2039,8.1636,8.1122,8.0755,8.0204,7.9507,7.8809,7.8023,7.7619,7.7582,7.7913,7.8369,7.8442,7.8736,7.9339,7.9522,7.936,7.9617,7.9653,7.9633,7.9449,7.9412,7.9376,7.9213,7.8662,7.8442,7.8369,7.7949,7.7326,7.7362,7.7399,7.7399,7.7436,7.7472,7.7472,7.7472,7.7472,7.7546,7.7582,7.7582,7.7436,7.7399,7.7326,7.7134,7.6866,7.6692,7.6227,7.5691,7.5226,7.4748,7.3905,7.308,7.2446,7.2007,7.158,7.1356,7.1289,7.1289,7.1222,7.1188,7.05,7.0094,6.9958,6.9383,6.9045,6.8876,6.8673,6.8233,6.7963,6.7793,6.7624,6.7379,6.7177,6.6693,6.6375,6.6023,6.567,6.5537,6.5403,6.5403,6.5403,6.5403,6.5403,6.5403,6.5403,6.5403,6.5403,6.5403,6.5403,6.5403,6.5403,6.5381,6.5179,6.4907,6.4587,6.3879,6.3068,6.2035,6.0732,5.9633,5.8691,5.8086,5.7753,5.7472,5.7303,5.7303,5.7303,8.2251,8.2186,8.2186,8.2186,8.2186,8.2186,8.2186,8.2186,8.2186,8.2003,8.1636,8.1142,8.0571,7.9853,7.9412,7.9103,7.8736,7.8662,7.8883,7.9192,7.9302,7.9486,7.9669,7.9853,7.9963,8.0424,8.0534,8.0828,8.0771,8.0257,7.9816,7.9816,7.9486,7.9302,7.9265,7.8883,7.8772,7.8772,7.8772,7.8736,7.8736,7.8699,7.8699,7.8699,7.8662,7.8626,7.8552,7.8222,7.8075,7.7928,7.7656,7.7134,7.6886,7.6643,7.6261,7.555,7.4989,7.4446,7.3747,7.3018,7.2467,7.2007,7.1602,7.1312,7.1289,7.1289,7.1289,7.1255,7.1019,7.0838,7.0669,7.0128,6.9857,6.9654,6.9485,6.9113,6.8741,6.8673,6.8504,6.8224,6.7935,6.7495,6.6987,6.6444,6.6013,6.5625,6.5469,6.5403,6.5403,6.5403,6.5403,6.5403,6.5403,6.5403,6.5403,6.5403,6.5403,6.5403,6.5403,6.5381,6.5291,6.5066,6.4725,6.4161,6.3333,6.2202,6.099,6.0027,5.9177,5.8525,5.7948,5.7668,5.7416,5.7303,5.7303,8.2186,8.2186,8.2186,8.2186,8.2186,8.2186,8.2186,8.2186,8.2186,8.2186,8.2039,8.1562,8.0865,8.0257,8.0094,7.991,7.9743,7.9816,7.9963,8.0036,8.0147,8.0277,8.0514,8.055,8.0791,8.1269,8.1305,8.1562,8.1578,8.1175,8.055,8.0367,8.0241,8.0131,8.0057,7.9779,7.9596,7.9596,7.9596,7.9633,7.9669,7.9706,7.9706,7.9743,7.9779,7.9816,7.9706,7.925,7.8883,7.8772,7.8343,7.784,7.7308,7.6928,7.6308,7.5532,7.4804,7.4139,7.3522,7.2866,7.236,7.1942,7.1568,7.1289,7.1289,7.1289,7.1289,7.1289,7.1255,7.1222,7.1154,7.0737,7.0567,7.0331,7.0094,6.9722,6.9417,6.9383,6.9147,6.8719,6.8531,6.8469,6.7891,6.7057,6.6446,6.5857,6.5569,6.5436,6.5403,6.5403,6.5403,6.5403,6.5403,6.5403,6.5403,6.5403,6.5403,6.5403,6.5403,6.5403,6.5336,6.5134,6.4793,6.4193,6.3572,6.2849,6.1903,6.0784,5.9713,5.8934,5.8252,5.7836,5.7528,5.7388,5.7303,8.2186,8.2186,8.2186,8.2186,8.2186,8.2186,8.2186,8.2186,8.2186,8.2186,8.2186,8.2039,8.1562,8.1085,8.0865,8.0571,7.9926,7.9816,8.033,8.0755,8.0975,8.1269,8.1489,8.1709,8.1856,8.1966,8.1929,8.2003,8.2166,8.1929,8.1819,8.1966,8.1195,8.0975,8.0791,8.0461,8.022,8.0183,8.0183,8.011,8.0073,8.0036,8.0036,7.9963,7.989,7.9816,7.9816,7.9779,7.9674,7.9674,7.9233,7.8642,7.7906,7.7432,7.6659,7.5744,7.4947,7.4231,7.342,7.2705,7.2124,7.171,7.1434,7.1289,7.1289,7.1289,7.1289,7.1289,7.1289,7.1289,7.1255,7.1244,7.1041,7.0939,7.0703,7.05,7.0263,7.0161,6.9857,6.9316,6.9161,6.9288,6.8931,6.8205,6.7245,6.662,6.5834,6.5701,6.5436,6.5403,6.5403,6.5403,6.5403,6.5403,6.5403,6.5403,6.5403,6.5403,6.5403,6.5403,6.5403,6.5134,6.4895,6.4564,6.4053,6.3428,6.2751,6.1475,6.029,5.9315,5.8555,5.8059,5.7641,5.7416,5.7331,8.2186,8.2186,8.2186,8.2186,8.2186,8.2186,8.2186,8.2186,8.2186,8.2186,8.2186,8.215,8.2039,8.1782,8.1746,8.1599,8.1321,8.1285,8.1452,8.1599,8.1819,8.1929,8.2186,8.2186,8.215,8.2186,8.2186,8.2186,8.2186,8.2186,8.2186,8.2039,8.1819,8.1819,8.1562,8.1305,8.1195,8.1195,8.1211,8.1248,8.1285,8.1269,8.1269,8.1269,8.1285,8.1285,8.1248,8.0755,8.0544,8.028,7.9832,7.9221,7.856,7.804,7.7272,7.6341,7.5599,7.4665,7.3552,7.2755,7.205,7.1546,7.1356,7.1289,7.1289,7.1289,7.1289,7.1289,7.1289,7.1289,7.1289,7.1289,7.1222,7.1289,7.1222,7.1075,7.0939,7.077,7.0669,7.0128,7.0252,7.0445,6.9985,6.9401,6.8346,6.7405,6.6608,6.59,6.5602,6.5403,6.5403,6.5403,6.5403,6.5403,6.5403,6.5403,6.5403,6.5403,6.5403,6.5403,6.5403,6.5201,6.4986,6.4725,6.4449,6.3817,6.2995,6.201,6.0913,5.9819,5.8936,5.8225,5.7836,5.7445,5.736,8.2186,8.2186,8.2186,8.2186,8.2186,8.2186,8.2186,8.2186,8.2186,8.2186,8.2186,8.2186,8.2186,8.2186,8.2186,8.215,8.2039,8.2039,8.2113,8.215,8.2113,8.2186,8.2186,8.2186,8.2186,8.2186,8.2186,8.2186,8.2186,8.2186,8.2186,8.2186,8.2186,8.215,8.215,8.2186,8.2186,8.2186,8.2186,8.2186,8.215,8.2113,8.2113,8.2076,8.2039,8.2003,8.1893,8.1562,8.1281,8.0947,8.0506,7.9834,7.9206,7.8603,7.8057,7.7273,7.6408,7.5387,7.4235,7.2784,7.1879,7.1401,7.1312,7.1289,7.1289,7.1289,7.1289,7.1289,7.1289,7.1289,7.1289,7.1289,7.1289,7.1289,7.1289,7.1188,7.1188,7.1086,7.112,7.1019,7.1109,7.103,7.0568,6.9858,6.859,6.7594,6.674,6.5999,6.5536,6.5403,6.5403,6.5403,6.5403,6.5403,6.5403,6.5403,6.5403,6.5403,6.5403,6.5403,6.5358,6.5201,6.5122,6.4963,6.4587,6.41,6.3428,6.2653,6.15,6.0294,5.9312,5.8225,5.7725,5.7331,5.7331,8.2186,8.2186,8.2186,8.2186,8.2186,8.2186,8.2186,8.2186,8.2186,8.2186,8.2186,8.2186,8.2186,8.2186,8.2186,8.2186,8.2186,8.2186,8.2186,8.2186,8.2186,8.2186,8.2186,8.2186,8.2186,8.2186,8.2186,8.2186,8.2186,8.2186,8.2186,8.2186,8.2186,8.2186,8.2186,8.2186,8.2186,8.2186,8.2186,8.2186,8.2186,8.2186,8.2186,8.2186,8.2186,8.2186,8.2113,8.2076,8.1795,8.154,8.1369,8.0715,7.9863,7.945,7.8684,7.7505,7.677,7.5875,7.4839,7.265,7.1762,7.1639,7.1718,7.1492,7.1391,7.1323,7.1289,7.1289,7.1289,7.1289,7.1289,7.1289,7.1289,7.1289,7.1289,7.1289,7.1289,7.1289,7.1289,7.1289,7.1267,7.1176,7.0848,7.0224,6.8844,6.7727,6.684,6.6198,6.5701,6.5403,6.5403,6.5403,6.5403,6.5403,6.5403,6.5403,6.5403,6.5403,6.5403,6.5403,6.5403,6.5336,6.5224,6.5144,6.4895,6.4504,6.4006,6.346,6.1928,6.0394,5.915,5.8197,5.764,5.7303,5.7303,8.2186,8.2186,8.2186,8.2186,8.2186,8.2186,8.2186,8.2186,8.2186,8.2186,8.2186,8.2186,8.2186,8.2186,8.2186,8.2186,8.2186,8.2186,8.2186,8.2186,8.2186,8.2186,8.2186,8.2186,8.2186,8.2186,8.2186,8.2186,8.2186,8.2186,8.2186,8.2186,8.2186,8.2186,8.2186,8.2186,8.2186,8.2186,8.2186,8.2186,8.2186,8.2186,8.2186,8.2186,8.2186,8.2186,8.2186,8.2186,8.2018,8.1785,8.1596,8.1138,8.0406,7.9968,7.9446,7.852,7.782,7.6793,7.5416,7.3731,7.288,7.2631,7.2225,7.1988,7.1999,7.1526,7.1391,7.1289,7.1289,7.1289,7.1289,7.1289,7.1289,7.1289,7.1289,7.1289,7.1289,7.1289,7.1289,7.1289,7.1289,7.1063,7.0733,7.0538,6.938,6.847,6.7658,6.6794,6.6231,6.5635,6.5403,6.5403,6.5403,6.5403,6.5403,6.5403,6.5403,6.5403,6.5403,6.5403,6.5403,6.5403,6.5381,6.5269,6.5122,6.4895,6.4216,6.3333,6.1878,6.042,5.9362,5.8388,5.7781,5.7473,5.7303,8.2186,8.2186,8.2186,8.2186,8.2186,8.2186,8.2186,8.2186,8.2186,8.2186,8.2186,8.2186,8.2186,8.2186,8.2186,8.2186,8.2186,8.2186,8.2186,8.2186,8.2186,8.2186,8.2186,8.2186,8.2186,8.2186,8.2186,8.2186,8.2186,8.2186,8.2186,8.2186,8.2186,8.2186,8.2186,8.2186,8.2186,8.2186,8.2186,8.2186,8.2186,8.2186,8.2186,8.2186,8.2186,8.2186,8.2186,8.2137,8.2002,8.1734,8.1529,8.125,8.0749,8.0358,7.996,7.9351,7.8322,7.7241,7.588,7.5103,7.4429,7.4244,7.3172,7.2462,7.2259,7.1695,7.1391,7.1289,7.1289,7.1289,7.1289,7.1289,7.1289,7.1289,7.1289,7.1289,7.1289,7.1289,7.1289,7.1289,7.1267,7.0961,7.0699,7.0505,6.9996,6.9241,6.851,6.7635,6.6761,6.6132,6.5602,6.5602,6.5502,6.5469,6.5436,6.5403,6.5403,6.5403,6.5403,6.5403,6.5403,6.5403,6.5403,6.5403,6.5246,6.493,6.4161,6.3156,6.2003,6.0939,5.9948,5.8988,5.8031,5.7613,5.736,8.2186,8.2186,8.2186,8.2186,8.2186,8.2186,8.2186,8.2186,8.2186,8.2186,8.2186,8.2186,8.2186,8.2186,8.2186,8.2186,8.2186,8.2186,8.2186,8.2186,8.2186,8.2186,8.2186,8.2186,8.2186,8.2186,8.2186,8.2186,8.2186,8.2186,8.2186,8.2186,8.2186,8.2186,8.2186,8.2186,8.2186,8.2186,8.2186,8.2186,8.2186,8.2186,8.2186,8.2186,8.2186,8.2186,8.2186,8.217,8.1935,8.1751,8.1598,8.1251,8.093,8.0619,8.0114,7.9336,7.8223,7.732,7.6508,7.5945,7.5618,7.508,7.3578,7.28,7.2326,7.1988,7.156,7.1357,7.1289,7.1289,7.1289,7.1289,7.1289,7.1289,7.1289,7.1289,7.1289,7.1289,7.1289,7.1289,7.1289,7.1098,7.087,7.062,7.0333,6.9776,6.8978,6.8198,6.7314,6.6529,6.6099,6.5999,6.5834,6.5602,6.5536,6.5569,6.5403,6.5403,6.5403,6.5403,6.5403,6.5403,6.5403,6.5403,6.5381,6.4965,6.4254,6.3452,6.2481,6.145,6.0368,5.9365,5.8335,5.7753,5.7416,8.2186,8.2186,8.2186,8.2186,8.2186,8.2186,8.2186,8.2186,8.2186,8.2186,8.2186,8.2186,8.2186,8.2186,8.2186,8.2186,8.2186,8.2186,8.2186,8.2186,8.2186,8.2186,8.2186,8.2186,8.2186,8.2186,8.2186,8.2186,8.2186,8.2186,8.2186,8.2186,8.2186,8.2186,8.2186,8.2186,8.2186,8.2186,8.2186,8.2186,8.2186,8.2186,8.2186,8.2186,8.2186,8.2186,8.2186,8.2186,8.1969,8.17,8.1632,8.1339,8.0858,8.0582,8.0133,7.9115,7.8223,7.7443,7.6805,7.6356,7.6028,7.5534,7.4143,7.3466,7.2992,7.2428,7.1763,7.1458,7.1289,7.1289,7.1289,7.1289,7.1289,7.1289,7.1289,7.1289,7.1289,7.1289,7.1289,7.1289,7.1289,7.1222,7.0961,7.0654,7.0333,6.9966,6.9447,6.8676,6.791,6.7148,6.6662,6.6562,6.6397,6.6198,6.5966,6.5933,6.5602,6.5403,6.5502,6.5502,6.5403,6.5403,6.5403,6.5358,6.5269,6.4897,6.437,6.3572,6.28,6.1734,6.0659,5.966,5.8716,5.8085,5.7528,8.2186,8.2186,8.2186,8.2186,8.2186,8.2186,8.2186,8.2186,8.2186,8.2186,8.2186,8.2186,8.2186,8.2186,8.2186,8.2186,8.2186,8.2186,8.2186,8.2186,8.2186,8.2186,8.2186,8.2186,8.2186,8.2186,8.2186,8.2186,8.2186,8.2186,8.2186,8.2186,8.2186,8.2186,8.2186,8.2186,8.2186,8.2186,8.2186,8.2186,8.2186,8.2186,8.2186,8.2186,8.2186,8.2186,8.2186,8.2186,8.2005,8.1683,8.1632,8.1391,8.0912,8.0582,8.0037,7.9095,7.8392,7.7685,7.702,7.6564,7.6192,7.5628,7.4663,7.394,7.3138,7.2428,7.1853,7.1391,7.1323,7.1289,7.1289,7.1289,7.1289,7.1289,7.1289,7.1289,7.1289,7.1289,7.1289,7.1289,7.1267,7.1222,7.1007,7.0699,7.0446,7.0183,6.9883,6.9405,6.8639,6.7877,6.7423,6.7191,6.7059,6.6926,6.6695,6.6463,6.6264,6.6065,6.5966,6.59,6.5602,6.5403,6.5436,6.5324,6.5134,6.4816,6.4518,6.3879,6.3116,6.2078,6.12,6.029,5.9339,5.8333,5.7807,8.2186,8.2186,8.2186,8.2186,8.2186,8.2186,8.2186,8.2186,8.2186,8.2186,8.2186,8.2186,8.2186,8.2186,8.2186,8.2186,8.2186,8.2186,8.2186,8.2186,8.2186,8.2186,8.2186,8.2186,8.2186,8.2186,8.2186,8.2186,8.2186,8.2186,8.2186,8.2186,8.2186,8.2186,8.2186,8.2186,8.2186,8.2186,8.2186,8.2186,8.2186,8.2186,8.2186,8.2186,8.2186,8.2186,8.2186,8.2137,8.2038,8.1751,8.1564,8.1426,8.1003,8.0582,7.9941,7.9316,7.8664,7.7966,7.731,7.6759,7.6402,7.585,7.5106,7.42,7.3274,7.2462,7.1887,7.1391,7.1289,7.1492,7.156,7.1684,7.1684,7.1684,7.1684,7.1492,7.1289,7.1289,7.1289,7.1289,7.1289,7.1244,7.1176,7.087,7.0584,7.0423,7.0156,6.9808,6.9334,6.8572,6.8284,6.7953,6.7787,6.7688,6.7556,6.7324,6.7059,6.686,6.6662,6.6496,6.6297,6.5933,6.5469,6.5324,6.5156,6.4998,6.4679,6.41,6.3508,6.2776,6.1878,6.1067,6.0027,5.8852,5.8114,8.2186,8.2186,8.2186,8.2186,8.2186,8.2186,8.2186,8.2186,8.2186,8.2186,8.2186,8.2186,8.2186,8.2186,8.2186,8.2186,8.2186,8.2186,8.2186,8.2186,8.2186,8.2186,8.2186,8.2186,8.2186,8.2186,8.2186,8.2186,8.2186,8.2186,8.2186,8.2186,8.2186,8.2186,8.2186,8.2186,8.2186,8.2186,8.2186,8.2186,8.2186,8.2186,8.2186,8.2186,8.2186,8.2186,8.2186,8.217,8.1972,8.17,8.1632,8.1339,8.0894,8.0582,8.0095,7.9495,7.8973,7.8265,7.7575,7.6975,7.6553,7.575,7.4916,7.4054,7.324,7.2529,7.1954,7.1526,7.1391,7.1627,7.1921,7.2022,7.2124,7.2124,7.2056,7.1718,7.1357,7.1289,7.1289,7.1289,7.1289,7.1267,7.1222,7.103,7.0779,7.0526,7.0293,7.0025,6.9803,6.9301,6.9235,6.8937,6.8606,6.8473,6.8374,6.8175,6.7887,6.7589,6.7357,6.7191,6.6993,6.6595,6.6165,6.5535,6.5224,6.5231,6.5013,6.4356,6.377,6.3188,6.2407,6.15,6.0498,5.9365,5.858,8.2186,8.2186,8.2186,8.2186,8.2186,8.2186,8.2186,8.2186,8.2186,8.2186,8.2186,8.2186,8.2186,8.2186,8.2186,8.2186,8.2186,8.2186,8.2186,8.2186,8.2186,8.2186,8.2186,8.2186,8.2186,8.2186,8.2186,8.2186,8.2186,8.2186,8.2186,8.2186,8.2186,8.2186,8.2186,8.2186,8.2186,8.2186,8.2186,8.2186,8.2186,8.2186,8.2186,8.2186,8.2186,8.2186,8.2186,8.217,8.1935,8.1649,8.146,8.1286,8.093,8.0656,8.0302,7.9786,7.9251,7.856,7.7858,7.7199,7.6691,7.5889,7.4926,7.4177,7.3432,7.2699,7.1988,7.156,7.1323,7.1492,7.2056,7.2259,7.2597,7.2732,7.2394,7.1988,7.156,7.1289,7.1289,7.1289,7.1289,7.1289,7.1222,7.1086,7.0802,7.0549,7.0316,7.0082,6.9917,6.9798,6.9798,6.9699,6.9268,6.9169,6.9169,6.8937,6.8672,6.8384,6.8085,6.7754,6.7489,6.7224,6.6804,6.6351,6.5952,6.5763,6.5433,6.4956,6.4235,6.3699,6.2825,6.191,6.0887,5.9925,5.9123,8.2186,8.2186,8.2186,8.2186,8.2186,8.2186,8.2186,8.2186,8.2186,8.2186,8.2186,8.2186,8.2186,8.2186,8.2186,8.2186,8.2186,8.2186,8.2186,8.2186,8.2186,8.2186,8.2186,8.2186,8.2186,8.2186,8.2186,8.2186,8.2186,8.2186,8.2186,8.2186,8.2186,8.2186,8.2186,8.2186,8.2186,8.2186,8.2186,8.2186,8.2186,8.2186,8.2186,8.2186,8.2186,8.2186,8.2186,8.2137,8.1952,8.1649,8.1358,8.1163,8.0967,8.0712,8.0433,7.998,7.9391,7.8747,7.8116,7.7355,7.6896,7.621,7.5223,7.438,7.3669,7.3003,7.2293,7.1921,7.1684,7.1763,7.2293,7.28,7.3172,7.3308,7.2834,7.2428,7.1988,7.156,7.1492,7.1458,7.1391,7.1391,7.1233,7.1063,7.0881,7.0595,7.034,7.0106,6.9917,6.9846,6.9798,6.9798,6.9599,6.9633,6.9732,6.9533,6.9169,6.9103,6.8771,6.8374,6.8009,6.7844,6.7622,6.7357,6.699,6.6624,6.6278,6.587,6.5139,6.4359,6.3581,6.2705,6.1405,6.0477,5.966,8.2186,8.2186,8.2186,8.2186,8.2186,8.2186,8.2186,8.2186,8.2186,8.2186,8.2186,8.2186,8.2186,8.2186,8.2186,8.2186,8.2186,8.2186,8.2186,8.2186,8.2186,8.2186,8.2186,8.2186,8.2186,8.2186,8.2186,8.2186,8.2186,8.2186,8.2186,8.2186,8.2186,8.2186,8.2186,8.2186,8.2186,8.2186,8.2186,8.2186,8.2186,8.2186,8.2186,8.2186,8.2186,8.2186,8.2186,8.2186,8.1935,8.1632,8.1322,8.1128,8.0948,8.073,8.0452,8.013,7.9511,7.887,7.8223,7.7487,7.6986,7.6427,7.5497,7.4695,7.4119,7.368,7.3172,7.2902,7.2732,7.2732,7.3172,7.3781,7.4153,7.4018,7.368,7.3308,7.2935,7.2496,7.2225,7.2022,7.1819,7.1684,7.1424,7.1255,7.1085,7.08,7.0492,7.0236,6.9941,6.9869,6.9831,6.9798,6.9831,6.9798,6.9765,6.9765,6.9566,6.9533,6.9434,6.9003,6.8705,6.8572,6.8341,6.8119,6.7787,6.7377,6.704,6.6727,6.6115,6.5352,6.4554,6.3588,6.2255,6.1145,6.0429]}]]